<?xml version="1.0" encoding="UTF-8"?>
<gpx version="1.1" creator="https://www.youtrack.es" xsi:schemaLocation="http://www.topografix.com/GPX/1/1 http://www.topografix.com/GPX/1/1/gpx.xsd http://www.garmin.com/xmlschemas/GpxExtensions/v3 http://www.garmin.com/xmlschemas/GpxExtensionsv3.xsd http://www.garmin.com/xmlschemas/TrackPointExtension/v1 http://www.garmin.com/xmlschemas/TrackPointExtensionv1.xsd" xmlns:gpxtpx="http://www.garmin.com/xmlschemas/TrackPointExtension/v1" xmlns:gpxx="http://www.garmin.com/xmlschemas/GpxExtensions/v3" xmlns:xsi="http://www.w3.org/2001/XMLSchema-instance">
  <metadata>
    <link href="https://www.youtrack.es">
      <text>YouTrack.es</text>
    </link>
    <time>2026-05-08T14:48:09Z</time>
  </metadata>
  <trk>
    <src>https://www.youtrack.es</src>
    <link href="https://www.youtrack.es/ruta/23341-11--ringmo-takla-khola">
      <text>YouTrack.es</text>
    </link>
    <trkseg>
      <trkpt lat="29.17016964" lon="82.93682098">
        <ele>3633.0000</ele>
        <time>2010-01-01T00:00:00Z</time>
      </trkpt>
      <trkpt lat="29.17016000" lon="82.93686000">
        <ele>3633.0000</ele>
        <time>2010-01-01T00:00:01Z</time>
      </trkpt>
      <trkpt lat="29.17051000" lon="82.93708000">
        <ele>3634.0000</ele>
        <time>2010-01-01T00:00:17Z</time>
      </trkpt>
      <trkpt lat="29.17074000" lon="82.93708000">
        <ele>3636.0000</ele>
        <time>2010-01-01T00:00:26Z</time>
      </trkpt>
      <trkpt lat="29.17124000" lon="82.93725000">
        <ele>3640.0000</ele>
        <time>2010-01-01T00:00:47Z</time>
      </trkpt>
      <trkpt lat="29.17143000" lon="82.93741000">
        <ele>3639.0000</ele>
        <time>2010-01-01T00:00:56Z</time>
      </trkpt>
      <trkpt lat="29.17151000" lon="82.93743000">
        <ele>3638.0000</ele>
        <time>2010-01-01T00:01:00Z</time>
      </trkpt>
      <trkpt lat="29.17184000" lon="82.93745000">
        <ele>3635.0000</ele>
        <time>2010-01-01T00:01:13Z</time>
      </trkpt>
      <trkpt lat="29.17205000" lon="82.93739000">
        <ele>3635.0000</ele>
        <time>2010-01-01T00:01:22Z</time>
      </trkpt>
      <trkpt lat="29.17213000" lon="82.93735000">
        <ele>3635.0000</ele>
        <time>2010-01-01T00:01:25Z</time>
      </trkpt>
      <trkpt lat="29.17229000" lon="82.93737000">
        <ele>3634.0000</ele>
        <time>2010-01-01T00:01:32Z</time>
      </trkpt>
      <trkpt lat="29.17249000" lon="82.93734000">
        <ele>3634.0000</ele>
        <time>2010-01-01T00:01:40Z</time>
      </trkpt>
      <trkpt lat="29.17257000" lon="82.93728000">
        <ele>3634.0000</ele>
        <time>2010-01-01T00:01:43Z</time>
      </trkpt>
      <trkpt lat="29.17272000" lon="82.93728000">
        <ele>3632.0000</ele>
        <time>2010-01-01T00:01:49Z</time>
      </trkpt>
      <trkpt lat="29.17280000" lon="82.93734000">
        <ele>3629.0000</ele>
        <time>2010-01-01T00:01:53Z</time>
      </trkpt>
      <trkpt lat="29.17287000" lon="82.93734000">
        <ele>3628.0000</ele>
        <time>2010-01-01T00:01:56Z</time>
      </trkpt>
      <trkpt lat="29.17294000" lon="82.93730000">
        <ele>3629.0000</ele>
        <time>2010-01-01T00:01:59Z</time>
      </trkpt>
      <trkpt lat="29.17335000" lon="82.93699000">
        <ele>3628.0000</ele>
        <time>2010-01-01T00:02:19Z</time>
      </trkpt>
      <trkpt lat="29.17374000" lon="82.93634000">
        <ele>3633.0000</ele>
        <time>2010-01-01T00:02:46Z</time>
      </trkpt>
      <trkpt lat="29.17384000" lon="82.93618000">
        <ele>3636.0000</ele>
        <time>2010-01-01T00:02:53Z</time>
      </trkpt>
      <trkpt lat="29.17413000" lon="82.93590000">
        <ele>3638.0000</ele>
        <time>2010-01-01T00:03:08Z</time>
      </trkpt>
      <trkpt lat="29.17479000" lon="82.93563000">
        <ele>3636.0000</ele>
        <time>2010-01-01T00:03:37Z</time>
      </trkpt>
      <trkpt lat="29.17491000" lon="82.93552000">
        <ele>3634.0000</ele>
        <time>2010-01-01T00:03:43Z</time>
      </trkpt>
      <trkpt lat="29.17545000" lon="82.93526000">
        <ele>3623.0000</ele>
        <time>2010-01-01T00:04:06Z</time>
      </trkpt>
      <trkpt lat="29.17577000" lon="82.93511000">
        <ele>3619.0000</ele>
        <time>2010-01-01T00:04:20Z</time>
      </trkpt>
      <trkpt lat="29.17591000" lon="82.93507000">
        <ele>3620.0000</ele>
        <time>2010-01-01T00:04:26Z</time>
      </trkpt>
      <trkpt lat="29.17616000" lon="82.93493000">
        <ele>3620.0000</ele>
        <time>2010-01-01T00:04:37Z</time>
      </trkpt>
      <trkpt lat="29.17681000" lon="82.93470000">
        <ele>3634.0000</ele>
        <time>2010-01-01T00:05:04Z</time>
      </trkpt>
      <trkpt lat="29.17685000" lon="82.93470000">
        <ele>3634.0000</ele>
        <time>2010-01-01T00:05:06Z</time>
      </trkpt>
      <trkpt lat="29.17712000" lon="82.93483000">
        <ele>3640.0000</ele>
        <time>2010-01-01T00:05:17Z</time>
      </trkpt>
      <trkpt lat="29.17724000" lon="82.93485000">
        <ele>3644.0000</ele>
        <time>2010-01-01T00:05:22Z</time>
      </trkpt>
      <trkpt lat="29.17757000" lon="82.93481000">
        <ele>3652.0000</ele>
        <time>2010-01-01T00:05:36Z</time>
      </trkpt>
      <trkpt lat="29.17765000" lon="82.93485000">
        <ele>3648.0000</ele>
        <time>2010-01-01T00:05:39Z</time>
      </trkpt>
      <trkpt lat="29.17776000" lon="82.93485000">
        <ele>3650.0000</ele>
        <time>2010-01-01T00:05:44Z</time>
      </trkpt>
      <trkpt lat="29.17785000" lon="82.93500000">
        <ele>3641.0000</ele>
        <time>2010-01-01T00:05:50Z</time>
      </trkpt>
      <trkpt lat="29.17790000" lon="82.93505000">
        <ele>3641.0000</ele>
        <time>2010-01-01T00:05:53Z</time>
      </trkpt>
      <trkpt lat="29.17797000" lon="82.93505000">
        <ele>3645.0000</ele>
        <time>2010-01-01T00:05:55Z</time>
      </trkpt>
      <trkpt lat="29.17802000" lon="82.93507000">
        <ele>3647.0000</ele>
        <time>2010-01-01T00:05:57Z</time>
      </trkpt>
      <trkpt lat="29.17806000" lon="82.93514000">
        <ele>3643.0000</ele>
        <time>2010-01-01T00:06:00Z</time>
      </trkpt>
      <trkpt lat="29.17811000" lon="82.93519000">
        <ele>3642.0000</ele>
        <time>2010-01-01T00:06:03Z</time>
      </trkpt>
      <trkpt lat="29.17828000" lon="82.93519000">
        <ele>3651.0000</ele>
        <time>2010-01-01T00:06:10Z</time>
      </trkpt>
      <trkpt lat="29.17854000" lon="82.93536000">
        <ele>3645.0000</ele>
        <time>2010-01-01T00:06:22Z</time>
      </trkpt>
      <trkpt lat="29.17871000" lon="82.93541000">
        <ele>3645.0000</ele>
        <time>2010-01-01T00:06:29Z</time>
      </trkpt>
      <trkpt lat="29.17892000" lon="82.93561000">
        <ele>3637.0000</ele>
        <time>2010-01-01T00:06:40Z</time>
      </trkpt>
      <trkpt lat="29.17917000" lon="82.93576000">
        <ele>3631.0000</ele>
        <time>2010-01-01T00:06:51Z</time>
      </trkpt>
      <trkpt lat="29.17923000" lon="82.93578000">
        <ele>3629.0000</ele>
        <time>2010-01-01T00:06:54Z</time>
      </trkpt>
      <trkpt lat="29.17934000" lon="82.93575000">
        <ele>3628.0000</ele>
        <time>2010-01-01T00:06:58Z</time>
      </trkpt>
      <trkpt lat="29.17944000" lon="82.93568000">
        <ele>3628.0000</ele>
        <time>2010-01-01T00:07:03Z</time>
      </trkpt>
      <trkpt lat="29.17963000" lon="82.93561000">
        <ele>3628.0000</ele>
        <time>2010-01-01T00:07:11Z</time>
      </trkpt>
      <trkpt lat="29.17971000" lon="82.93551000">
        <ele>3632.0000</ele>
        <time>2010-01-01T00:07:16Z</time>
      </trkpt>
      <trkpt lat="29.17987000" lon="82.93544000">
        <ele>3631.0000</ele>
        <time>2010-01-01T00:07:22Z</time>
      </trkpt>
      <trkpt lat="29.18006000" lon="82.93530000">
        <ele>3637.0000</ele>
        <time>2010-01-01T00:07:31Z</time>
      </trkpt>
      <trkpt lat="29.18013000" lon="82.93512000">
        <ele>3657.0000</ele>
        <time>2010-01-01T00:07:38Z</time>
      </trkpt>
      <trkpt lat="29.18018000" lon="82.93492000">
        <ele>3681.0000</ele>
        <time>2010-01-01T00:07:46Z</time>
      </trkpt>
      <trkpt lat="29.18027000" lon="82.93485000">
        <ele>3691.0000</ele>
        <time>2010-01-01T00:07:50Z</time>
      </trkpt>
      <trkpt lat="29.18032000" lon="82.93483000">
        <ele>3694.0000</ele>
        <time>2010-01-01T00:07:52Z</time>
      </trkpt>
      <trkpt lat="29.18042000" lon="82.93485000">
        <ele>3690.0000</ele>
        <time>2010-01-01T00:07:56Z</time>
      </trkpt>
      <trkpt lat="29.18050000" lon="82.93489000">
        <ele>3685.0000</ele>
        <time>2010-01-01T00:08:00Z</time>
      </trkpt>
      <trkpt lat="29.18066000" lon="82.93509000">
        <ele>3660.0000</ele>
        <time>2010-01-01T00:08:09Z</time>
      </trkpt>
      <trkpt lat="29.18088000" lon="82.93525000">
        <ele>3642.0000</ele>
        <time>2010-01-01T00:08:20Z</time>
      </trkpt>
      <trkpt lat="29.18097000" lon="82.93540000">
        <ele>3641.0000</ele>
        <time>2010-01-01T00:08:26Z</time>
      </trkpt>
      <trkpt lat="29.18102000" lon="82.93552000">
        <ele>3638.0000</ele>
        <time>2010-01-01T00:08:31Z</time>
      </trkpt>
      <trkpt lat="29.18103000" lon="82.93562000">
        <ele>3636.0000</ele>
        <time>2010-01-01T00:08:34Z</time>
      </trkpt>
      <trkpt lat="29.18095000" lon="82.93583000">
        <ele>3628.0000</ele>
        <time>2010-01-01T00:08:42Z</time>
      </trkpt>
      <trkpt lat="29.18087000" lon="82.93596000">
        <ele>3621.0000</ele>
        <time>2010-01-01T00:08:48Z</time>
      </trkpt>
      <trkpt lat="29.18093000" lon="82.93608000">
        <ele>3624.0000</ele>
        <time>2010-01-01T00:08:52Z</time>
      </trkpt>
      <trkpt lat="29.18093000" lon="82.93614000">
        <ele>3624.0000</ele>
        <time>2010-01-01T00:08:55Z</time>
      </trkpt>
      <trkpt lat="29.18087000" lon="82.93623000">
        <ele>3621.0000</ele>
        <time>2010-01-01T00:08:59Z</time>
      </trkpt>
      <trkpt lat="29.18089000" lon="82.93635000">
        <ele>3622.0000</ele>
        <time>2010-01-01T00:09:03Z</time>
      </trkpt>
      <trkpt lat="29.18088000" lon="82.93646000">
        <ele>3621.0000</ele>
        <time>2010-01-01T00:09:07Z</time>
      </trkpt>
      <trkpt lat="29.18092000" lon="82.93651000">
        <ele>3621.0000</ele>
        <time>2010-01-01T00:09:09Z</time>
      </trkpt>
      <trkpt lat="29.18099000" lon="82.93654000">
        <ele>3622.0000</ele>
        <time>2010-01-01T00:09:12Z</time>
      </trkpt>
      <trkpt lat="29.18140000" lon="82.93663000">
        <ele>3629.0000</ele>
        <time>2010-01-01T00:09:29Z</time>
      </trkpt>
      <trkpt lat="29.18192000" lon="82.93680000">
        <ele>3629.0000</ele>
        <time>2010-01-01T00:09:50Z</time>
      </trkpt>
      <trkpt lat="29.18202000" lon="82.93679000">
        <ele>3628.0000</ele>
        <time>2010-01-01T00:09:54Z</time>
      </trkpt>
      <trkpt lat="29.18205000" lon="82.93672000">
        <ele>3630.0000</ele>
        <time>2010-01-01T00:09:57Z</time>
      </trkpt>
      <trkpt lat="29.18203000" lon="82.93659000">
        <ele>3634.0000</ele>
        <time>2010-01-01T00:10:02Z</time>
      </trkpt>
      <trkpt lat="29.18208000" lon="82.93650000">
        <ele>3635.0000</ele>
        <time>2010-01-01T00:10:05Z</time>
      </trkpt>
      <trkpt lat="29.18228000" lon="82.93642000">
        <ele>3631.0000</ele>
        <time>2010-01-01T00:10:14Z</time>
      </trkpt>
      <trkpt lat="29.18244000" lon="82.93628000">
        <ele>3629.0000</ele>
        <time>2010-01-01T00:10:22Z</time>
      </trkpt>
      <trkpt lat="29.18254000" lon="82.93626000">
        <ele>3627.0000</ele>
        <time>2010-01-01T00:10:26Z</time>
      </trkpt>
      <trkpt lat="29.18271000" lon="82.93630000">
        <ele>3620.0000</ele>
        <time>2010-01-01T00:10:33Z</time>
      </trkpt>
      <trkpt lat="29.18279000" lon="82.93634000">
        <ele>3616.0000</ele>
        <time>2010-01-01T00:10:36Z</time>
      </trkpt>
      <trkpt lat="29.18285000" lon="82.93641000">
        <ele>3613.0000</ele>
        <time>2010-01-01T00:10:40Z</time>
      </trkpt>
      <trkpt lat="29.18290000" lon="82.93644000">
        <ele>3612.0000</ele>
        <time>2010-01-01T00:10:42Z</time>
      </trkpt>
      <trkpt lat="29.18300000" lon="82.93643000">
        <ele>3610.0000</ele>
        <time>2010-01-01T00:10:46Z</time>
      </trkpt>
      <trkpt lat="29.18306000" lon="82.93634000">
        <ele>3610.0000</ele>
        <time>2010-01-01T00:10:50Z</time>
      </trkpt>
      <trkpt lat="29.18332000" lon="82.93629000">
        <ele>3608.0000</ele>
        <time>2010-01-01T00:11:01Z</time>
      </trkpt>
      <trkpt lat="29.18355000" lon="82.93628000">
        <ele>3613.0000</ele>
        <time>2010-01-01T00:11:10Z</time>
      </trkpt>
      <trkpt lat="29.18369000" lon="82.93634000">
        <ele>3614.0000</ele>
        <time>2010-01-01T00:11:16Z</time>
      </trkpt>
      <trkpt lat="29.18382000" lon="82.93629000">
        <ele>3617.0000</ele>
        <time>2010-01-01T00:11:21Z</time>
      </trkpt>
      <trkpt lat="29.18391000" lon="82.93629000">
        <ele>3618.0000</ele>
        <time>2010-01-01T00:11:25Z</time>
      </trkpt>
      <trkpt lat="29.18397000" lon="82.93622000">
        <ele>3619.0000</ele>
        <time>2010-01-01T00:11:28Z</time>
      </trkpt>
      <trkpt lat="29.18407000" lon="82.93618000">
        <ele>3621.0000</ele>
        <time>2010-01-01T00:11:33Z</time>
      </trkpt>
      <trkpt lat="29.18439000" lon="82.93623000">
        <ele>3623.0000</ele>
        <time>2010-01-01T00:11:46Z</time>
      </trkpt>
      <trkpt lat="29.18453000" lon="82.93628000">
        <ele>3623.0000</ele>
        <time>2010-01-01T00:11:51Z</time>
      </trkpt>
      <trkpt lat="29.18489000" lon="82.93616000">
        <ele>3636.0000</ele>
        <time>2010-01-01T00:12:06Z</time>
      </trkpt>
      <trkpt lat="29.18505000" lon="82.93619000">
        <ele>3637.0000</ele>
        <time>2010-01-01T00:12:13Z</time>
      </trkpt>
      <trkpt lat="29.18524000" lon="82.93616000">
        <ele>3638.0000</ele>
        <time>2010-01-01T00:12:21Z</time>
      </trkpt>
      <trkpt lat="29.18554000" lon="82.93603000">
        <ele>3641.0000</ele>
        <time>2010-01-01T00:12:33Z</time>
      </trkpt>
      <trkpt lat="29.18583000" lon="82.93583000">
        <ele>3643.0000</ele>
        <time>2010-01-01T00:12:47Z</time>
      </trkpt>
      <trkpt lat="29.18612000" lon="82.93572000">
        <ele>3646.0000</ele>
        <time>2010-01-01T00:12:59Z</time>
      </trkpt>
      <trkpt lat="29.18627000" lon="82.93563000">
        <ele>3647.0000</ele>
        <time>2010-01-01T00:13:06Z</time>
      </trkpt>
      <trkpt lat="29.18645000" lon="82.93557000">
        <ele>3647.0000</ele>
        <time>2010-01-01T00:13:14Z</time>
      </trkpt>
      <trkpt lat="29.18667000" lon="82.93553000">
        <ele>3644.0000</ele>
        <time>2010-01-01T00:13:22Z</time>
      </trkpt>
      <trkpt lat="29.18684000" lon="82.93554000">
        <ele>3647.0000</ele>
        <time>2010-01-01T00:13:29Z</time>
      </trkpt>
      <trkpt lat="29.18692000" lon="82.93543000">
        <ele>3651.0000</ele>
        <time>2010-01-01T00:13:34Z</time>
      </trkpt>
      <trkpt lat="29.18706000" lon="82.93538000">
        <ele>3657.0000</ele>
        <time>2010-01-01T00:13:40Z</time>
      </trkpt>
      <trkpt lat="29.18731000" lon="82.93544000">
        <ele>3663.0000</ele>
        <time>2010-01-01T00:13:50Z</time>
      </trkpt>
      <trkpt lat="29.18744000" lon="82.93541000">
        <ele>3666.0000</ele>
        <time>2010-01-01T00:13:56Z</time>
      </trkpt>
      <trkpt lat="29.18768000" lon="82.93540000">
        <ele>3665.0000</ele>
        <time>2010-01-01T00:14:05Z</time>
      </trkpt>
      <trkpt lat="29.18781000" lon="82.93542000">
        <ele>3665.0000</ele>
        <time>2010-01-01T00:14:11Z</time>
      </trkpt>
      <trkpt lat="29.18789000" lon="82.93542000">
        <ele>3667.0000</ele>
        <time>2010-01-01T00:14:14Z</time>
      </trkpt>
      <trkpt lat="29.18801000" lon="82.93538000">
        <ele>3670.0000</ele>
        <time>2010-01-01T00:14:19Z</time>
      </trkpt>
      <trkpt lat="29.18809000" lon="82.93542000">
        <ele>3671.0000</ele>
        <time>2010-01-01T00:14:22Z</time>
      </trkpt>
      <trkpt lat="29.18831000" lon="82.93543000">
        <ele>3679.0000</ele>
        <time>2010-01-01T00:14:31Z</time>
      </trkpt>
      <trkpt lat="29.18849000" lon="82.93548000">
        <ele>3684.0000</ele>
        <time>2010-01-01T00:14:38Z</time>
      </trkpt>
      <trkpt lat="29.18863000" lon="82.93544000">
        <ele>3691.0000</ele>
        <time>2010-01-01T00:14:44Z</time>
      </trkpt>
      <trkpt lat="29.18869000" lon="82.93552000">
        <ele>3693.0000</ele>
        <time>2010-01-01T00:14:48Z</time>
      </trkpt>
      <trkpt lat="29.18870000" lon="82.93563000">
        <ele>3691.0000</ele>
        <time>2010-01-01T00:14:52Z</time>
      </trkpt>
      <trkpt lat="29.18876000" lon="82.93571000">
        <ele>3694.0000</ele>
        <time>2010-01-01T00:14:55Z</time>
      </trkpt>
      <trkpt lat="29.18877000" lon="82.93581000">
        <ele>3693.0000</ele>
        <time>2010-01-01T00:14:59Z</time>
      </trkpt>
      <trkpt lat="29.18876000" lon="82.93592000">
        <ele>3691.0000</ele>
        <time>2010-01-01T00:15:03Z</time>
      </trkpt>
      <trkpt lat="29.18869000" lon="82.93602000">
        <ele>3686.0000</ele>
        <time>2010-01-01T00:15:07Z</time>
      </trkpt>
      <trkpt lat="29.18865000" lon="82.93612000">
        <ele>3684.0000</ele>
        <time>2010-01-01T00:15:11Z</time>
      </trkpt>
      <trkpt lat="29.18870000" lon="82.93640000">
        <ele>3698.0000</ele>
        <time>2010-01-01T00:15:21Z</time>
      </trkpt>
      <trkpt lat="29.18874000" lon="82.93650000">
        <ele>3706.0000</ele>
        <time>2010-01-01T00:15:25Z</time>
      </trkpt>
      <trkpt lat="29.18895000" lon="82.93674000">
        <ele>3734.0000</ele>
        <time>2010-01-01T00:15:37Z</time>
      </trkpt>
      <trkpt lat="29.18895000" lon="82.93697000">
        <ele>3739.0000</ele>
        <time>2010-01-01T00:15:45Z</time>
      </trkpt>
      <trkpt lat="29.18898000" lon="82.93713000">
        <ele>3739.0000</ele>
        <time>2010-01-01T00:15:51Z</time>
      </trkpt>
      <trkpt lat="29.18902000" lon="82.93725000">
        <ele>3741.0000</ele>
        <time>2010-01-01T00:15:55Z</time>
      </trkpt>
      <trkpt lat="29.18909000" lon="82.93757000">
        <ele>3740.0000</ele>
        <time>2010-01-01T00:16:07Z</time>
      </trkpt>
      <trkpt lat="29.18908000" lon="82.93814000">
        <ele>3742.0000</ele>
        <time>2010-01-01T00:16:27Z</time>
      </trkpt>
      <trkpt lat="29.18890000" lon="82.93858000">
        <ele>3744.0000</ele>
        <time>2010-01-01T00:16:44Z</time>
      </trkpt>
      <trkpt lat="29.18895000" lon="82.93860000">
        <ele>3750.0000</ele>
        <time>2010-01-01T00:16:46Z</time>
      </trkpt>
      <trkpt lat="29.18893000" lon="82.93868000">
        <ele>3752.0000</ele>
        <time>2010-01-01T00:16:49Z</time>
      </trkpt>
      <trkpt lat="29.18899000" lon="82.93869000">
        <ele>3759.0000</ele>
        <time>2010-01-01T00:16:51Z</time>
      </trkpt>
      <trkpt lat="29.18899000" lon="82.93879000">
        <ele>3764.0000</ele>
        <time>2010-01-01T00:16:55Z</time>
      </trkpt>
      <trkpt lat="29.18905000" lon="82.93881000">
        <ele>3772.0000</ele>
        <time>2010-01-01T00:16:57Z</time>
      </trkpt>
      <trkpt lat="29.18903000" lon="82.93884000">
        <ele>3771.0000</ele>
        <time>2010-01-01T00:16:58Z</time>
      </trkpt>
      <trkpt lat="29.18915000" lon="82.93884000">
        <ele>3784.0000</ele>
        <time>2010-01-01T00:17:03Z</time>
      </trkpt>
      <trkpt lat="29.18923000" lon="82.93917000">
        <ele>3794.0000</ele>
        <time>2010-01-01T00:17:15Z</time>
      </trkpt>
      <trkpt lat="29.18940000" lon="82.93902000">
        <ele>3809.0000</ele>
        <time>2010-01-01T00:17:24Z</time>
      </trkpt>
      <trkpt lat="29.18941000" lon="82.93914000">
        <ele>3811.0000</ele>
        <time>2010-01-01T00:17:28Z</time>
      </trkpt>
      <trkpt lat="29.18946000" lon="82.93912000">
        <ele>3816.0000</ele>
        <time>2010-01-01T00:17:30Z</time>
      </trkpt>
      <trkpt lat="29.18956000" lon="82.93956000">
        <ele>3845.0000</ele>
        <time>2010-01-01T00:17:46Z</time>
      </trkpt>
      <trkpt lat="29.18961000" lon="82.93993000">
        <ele>3864.0000</ele>
        <time>2010-01-01T00:17:59Z</time>
      </trkpt>
      <trkpt lat="29.18945000" lon="82.94088000">
        <ele>3861.0000</ele>
        <time>2010-01-01T00:18:33Z</time>
      </trkpt>
      <trkpt lat="29.18959000" lon="82.94078000">
        <ele>3867.0000</ele>
        <time>2010-01-01T00:18:39Z</time>
      </trkpt>
      <trkpt lat="29.18968000" lon="82.94085000">
        <ele>3869.0000</ele>
        <time>2010-01-01T00:18:44Z</time>
      </trkpt>
      <trkpt lat="29.18971000" lon="82.94077000">
        <ele>3871.0000</ele>
        <time>2010-01-01T00:18:47Z</time>
      </trkpt>
      <trkpt lat="29.18977000" lon="82.94084000">
        <ele>3872.0000</ele>
        <time>2010-01-01T00:18:50Z</time>
      </trkpt>
      <trkpt lat="29.18983000" lon="82.94069000">
        <ele>3878.0000</ele>
        <time>2010-01-01T00:18:56Z</time>
      </trkpt>
      <trkpt lat="29.18996000" lon="82.94083000">
        <ele>3878.0000</ele>
        <time>2010-01-01T00:19:03Z</time>
      </trkpt>
      <trkpt lat="29.19002000" lon="82.94062000">
        <ele>3890.0000</ele>
        <time>2010-01-01T00:19:11Z</time>
      </trkpt>
      <trkpt lat="29.19038000" lon="82.94079000">
        <ele>3909.0000</ele>
        <time>2010-01-01T00:19:26Z</time>
      </trkpt>
      <trkpt lat="29.19034000" lon="82.94065000">
        <ele>3919.0000</ele>
        <time>2010-01-01T00:19:32Z</time>
      </trkpt>
      <trkpt lat="29.19045000" lon="82.94066000">
        <ele>3929.0000</ele>
        <time>2010-01-01T00:19:36Z</time>
      </trkpt>
      <trkpt lat="29.19060000" lon="82.94057000">
        <ele>3950.0000</ele>
        <time>2010-01-01T00:19:43Z</time>
      </trkpt>
      <trkpt lat="29.19101000" lon="82.93999000">
        <ele>3992.0000</ele>
        <time>2010-01-01T00:20:09Z</time>
      </trkpt>
      <trkpt lat="29.19113000" lon="82.93995000">
        <ele>4000.0000</ele>
        <time>2010-01-01T00:20:14Z</time>
      </trkpt>
      <trkpt lat="29.19124000" lon="82.93995000">
        <ele>4004.0000</ele>
        <time>2010-01-01T00:20:18Z</time>
      </trkpt>
      <trkpt lat="29.19131000" lon="82.94002000">
        <ele>4004.0000</ele>
        <time>2010-01-01T00:20:22Z</time>
      </trkpt>
      <trkpt lat="29.19156000" lon="82.93991000">
        <ele>4012.0000</ele>
        <time>2010-01-01T00:20:33Z</time>
      </trkpt>
      <trkpt lat="29.19167000" lon="82.93999000">
        <ele>4008.0000</ele>
        <time>2010-01-01T00:20:38Z</time>
      </trkpt>
      <trkpt lat="29.19198000" lon="82.94013000">
        <ele>4009.0000</ele>
        <time>2010-01-01T00:20:51Z</time>
      </trkpt>
      <trkpt lat="29.19220000" lon="82.94036000">
        <ele>4005.0000</ele>
        <time>2010-01-01T00:21:03Z</time>
      </trkpt>
      <trkpt lat="29.19229000" lon="82.94060000">
        <ele>4010.0000</ele>
        <time>2010-01-01T00:21:12Z</time>
      </trkpt>
      <trkpt lat="29.19251000" lon="82.94067000">
        <ele>4029.0000</ele>
        <time>2010-01-01T00:21:21Z</time>
      </trkpt>
      <trkpt lat="29.19261000" lon="82.94075000">
        <ele>4033.0000</ele>
        <time>2010-01-01T00:21:26Z</time>
      </trkpt>
      <trkpt lat="29.19275000" lon="82.94106000">
        <ele>4055.0000</ele>
        <time>2010-01-01T00:21:39Z</time>
      </trkpt>
      <trkpt lat="29.19276000" lon="82.94117000">
        <ele>4058.0000</ele>
        <time>2010-01-01T00:21:42Z</time>
      </trkpt>
      <trkpt lat="29.19287000" lon="82.94145000">
        <ele>4058.0000</ele>
        <time>2010-01-01T00:21:53Z</time>
      </trkpt>
      <trkpt lat="29.19275000" lon="82.94163000">
        <ele>4051.0000</ele>
        <time>2010-01-01T00:22:01Z</time>
      </trkpt>
      <trkpt lat="29.19288000" lon="82.94179000">
        <ele>4052.0000</ele>
        <time>2010-01-01T00:22:09Z</time>
      </trkpt>
      <trkpt lat="29.19287000" lon="82.94194000">
        <ele>4046.0000</ele>
        <time>2010-01-01T00:22:14Z</time>
      </trkpt>
      <trkpt lat="29.19279000" lon="82.94206000">
        <ele>4026.0000</ele>
        <time>2010-01-01T00:22:19Z</time>
      </trkpt>
      <trkpt lat="29.19279000" lon="82.94215000">
        <ele>4018.0000</ele>
        <time>2010-01-01T00:22:22Z</time>
      </trkpt>
      <trkpt lat="29.19286000" lon="82.94219000">
        <ele>4024.0000</ele>
        <time>2010-01-01T00:22:26Z</time>
      </trkpt>
      <trkpt lat="29.19300000" lon="82.94214000">
        <ele>4048.0000</ele>
        <time>2010-01-01T00:22:31Z</time>
      </trkpt>
      <trkpt lat="29.19311000" lon="82.94208000">
        <ele>4064.0000</ele>
        <time>2010-01-01T00:22:36Z</time>
      </trkpt>
      <trkpt lat="29.19322000" lon="82.94206000">
        <ele>4072.0000</ele>
        <time>2010-01-01T00:22:41Z</time>
      </trkpt>
      <trkpt lat="29.19342000" lon="82.94216000">
        <ele>4081.0000</ele>
        <time>2010-01-01T00:22:49Z</time>
      </trkpt>
      <trkpt lat="29.19345000" lon="82.94221000">
        <ele>4082.0000</ele>
        <time>2010-01-01T00:22:52Z</time>
      </trkpt>
      <trkpt lat="29.19344000" lon="82.94224000">
        <ele>4079.0000</ele>
        <time>2010-01-01T00:22:53Z</time>
      </trkpt>
      <trkpt lat="29.19344000" lon="82.94228000">
        <ele>4077.0000</ele>
        <time>2010-01-01T00:22:54Z</time>
      </trkpt>
      <trkpt lat="29.19354000" lon="82.94241000">
        <ele>4079.0000</ele>
        <time>2010-01-01T00:23:00Z</time>
      </trkpt>
      <trkpt lat="29.19357000" lon="82.94264000">
        <ele>4063.0000</ele>
        <time>2010-01-01T00:23:08Z</time>
      </trkpt>
      <trkpt lat="29.19364000" lon="82.94279000">
        <ele>4056.0000</ele>
        <time>2010-01-01T00:23:14Z</time>
      </trkpt>
      <trkpt lat="29.19373000" lon="82.94311000">
        <ele>4030.0000</ele>
        <time>2010-01-01T00:23:26Z</time>
      </trkpt>
      <trkpt lat="29.19379000" lon="82.94312000">
        <ele>4031.0000</ele>
        <time>2010-01-01T00:23:28Z</time>
      </trkpt>
      <trkpt lat="29.19395000" lon="82.94302000">
        <ele>4045.0000</ele>
        <time>2010-01-01T00:23:36Z</time>
      </trkpt>
      <trkpt lat="29.19424000" lon="82.94289000">
        <ele>4065.0000</ele>
        <time>2010-01-01T00:23:48Z</time>
      </trkpt>
      <trkpt lat="29.19488000" lon="82.94280000">
        <ele>4068.0000</ele>
        <time>2010-01-01T00:24:14Z</time>
      </trkpt>
      <trkpt lat="29.19511000" lon="82.94287000">
        <ele>4064.0000</ele>
        <time>2010-01-01T00:24:24Z</time>
      </trkpt>
      <trkpt lat="29.19542000" lon="82.94284000">
        <ele>4072.0000</ele>
        <time>2010-01-01T00:24:36Z</time>
      </trkpt>
      <trkpt lat="29.19570000" lon="82.94312000">
        <ele>4063.0000</ele>
        <time>2010-01-01T00:24:51Z</time>
      </trkpt>
      <trkpt lat="29.19602000" lon="82.94315000">
        <ele>4066.0000</ele>
        <time>2010-01-01T00:25:04Z</time>
      </trkpt>
      <trkpt lat="29.19614000" lon="82.94323000">
        <ele>4065.0000</ele>
        <time>2010-01-01T00:25:09Z</time>
      </trkpt>
      <trkpt lat="29.19643000" lon="82.94379000">
        <ele>4047.0000</ele>
        <time>2010-01-01T00:25:32Z</time>
      </trkpt>
      <trkpt lat="29.19650000" lon="82.94392000">
        <ele>4044.0000</ele>
        <time>2010-01-01T00:25:37Z</time>
      </trkpt>
      <trkpt lat="29.19652000" lon="82.94402000">
        <ele>4041.0000</ele>
        <time>2010-01-01T00:25:41Z</time>
      </trkpt>
      <trkpt lat="29.19649000" lon="82.94415000">
        <ele>4036.0000</ele>
        <time>2010-01-01T00:25:46Z</time>
      </trkpt>
      <trkpt lat="29.19657000" lon="82.94419000">
        <ele>4038.0000</ele>
        <time>2010-01-01T00:25:49Z</time>
      </trkpt>
      <trkpt lat="29.19693000" lon="82.94425000">
        <ele>4050.0000</ele>
        <time>2010-01-01T00:26:04Z</time>
      </trkpt>
      <trkpt lat="29.19723000" lon="82.94447000">
        <ele>4047.0000</ele>
        <time>2010-01-01T00:26:18Z</time>
      </trkpt>
      <trkpt lat="29.19735000" lon="82.94447000">
        <ele>4042.0000</ele>
        <time>2010-01-01T00:26:23Z</time>
      </trkpt>
      <trkpt lat="29.19735000" lon="82.94456000">
        <ele>4041.0000</ele>
        <time>2010-01-01T00:26:26Z</time>
      </trkpt>
      <trkpt lat="29.19741000" lon="82.94458000">
        <ele>4038.0000</ele>
        <time>2010-01-01T00:26:28Z</time>
      </trkpt>
      <trkpt lat="29.19743000" lon="82.94464000">
        <ele>4035.0000</ele>
        <time>2010-01-01T00:26:31Z</time>
      </trkpt>
      <trkpt lat="29.19737000" lon="82.94472000">
        <ele>4036.0000</ele>
        <time>2010-01-01T00:26:34Z</time>
      </trkpt>
      <trkpt lat="29.19733000" lon="82.94498000">
        <ele>4007.0000</ele>
        <time>2010-01-01T00:26:44Z</time>
      </trkpt>
      <trkpt lat="29.19737000" lon="82.94512000">
        <ele>3991.0000</ele>
        <time>2010-01-01T00:26:49Z</time>
      </trkpt>
      <trkpt lat="29.19736000" lon="82.94519000">
        <ele>3984.0000</ele>
        <time>2010-01-01T00:26:51Z</time>
      </trkpt>
      <trkpt lat="29.19739000" lon="82.94524000">
        <ele>3979.0000</ele>
        <time>2010-01-01T00:26:53Z</time>
      </trkpt>
      <trkpt lat="29.19744000" lon="82.94524000">
        <ele>3980.0000</ele>
        <time>2010-01-01T00:26:55Z</time>
      </trkpt>
      <trkpt lat="29.19779000" lon="82.94503000">
        <ele>3988.0000</ele>
        <time>2010-01-01T00:27:11Z</time>
      </trkpt>
      <trkpt lat="29.19795000" lon="82.94499000">
        <ele>3995.0000</ele>
        <time>2010-01-01T00:27:18Z</time>
      </trkpt>
      <trkpt lat="29.19835000" lon="82.94460000">
        <ele>3981.0000</ele>
        <time>2010-01-01T00:27:39Z</time>
      </trkpt>
      <trkpt lat="29.19843000" lon="82.94448000">
        <ele>3975.0000</ele>
        <time>2010-01-01T00:27:44Z</time>
      </trkpt>
      <trkpt lat="29.19871000" lon="82.94419000">
        <ele>3967.0000</ele>
        <time>2010-01-01T00:27:59Z</time>
      </trkpt>
      <trkpt lat="29.19896000" lon="82.94414000">
        <ele>3957.0000</ele>
        <time>2010-01-01T00:28:09Z</time>
      </trkpt>
      <trkpt lat="29.19901000" lon="82.94408000">
        <ele>3952.0000</ele>
        <time>2010-01-01T00:28:12Z</time>
      </trkpt>
      <trkpt lat="29.19907000" lon="82.94409000">
        <ele>3948.0000</ele>
        <time>2010-01-01T00:28:15Z</time>
      </trkpt>
      <trkpt lat="29.19916000" lon="82.94405000">
        <ele>3938.0000</ele>
        <time>2010-01-01T00:28:18Z</time>
      </trkpt>
      <trkpt lat="29.19924000" lon="82.94405000">
        <ele>3927.0000</ele>
        <time>2010-01-01T00:28:22Z</time>
      </trkpt>
      <trkpt lat="29.19929000" lon="82.94405000">
        <ele>3920.0000</ele>
        <time>2010-01-01T00:28:24Z</time>
      </trkpt>
      <trkpt lat="29.19941000" lon="82.94389000">
        <ele>3904.0000</ele>
        <time>2010-01-01T00:28:31Z</time>
      </trkpt>
      <trkpt lat="29.19941000" lon="82.94380000">
        <ele>3908.0000</ele>
        <time>2010-01-01T00:28:34Z</time>
      </trkpt>
      <trkpt lat="29.19944000" lon="82.94369000">
        <ele>3910.0000</ele>
        <time>2010-01-01T00:28:38Z</time>
      </trkpt>
      <trkpt lat="29.19951000" lon="82.94364000">
        <ele>3909.0000</ele>
        <time>2010-01-01T00:28:41Z</time>
      </trkpt>
      <trkpt lat="29.19971000" lon="82.94366000">
        <ele>3902.0000</ele>
        <time>2010-01-01T00:28:50Z</time>
      </trkpt>
      <trkpt lat="29.19977000" lon="82.94368000">
        <ele>3900.0000</ele>
        <time>2010-01-01T00:28:52Z</time>
      </trkpt>
      <trkpt lat="29.20014000" lon="82.94368000">
        <ele>3897.0000</ele>
        <time>2010-01-01T00:29:07Z</time>
      </trkpt>
      <trkpt lat="29.20039000" lon="82.94392000">
        <ele>3878.0000</ele>
        <time>2010-01-01T00:29:20Z</time>
      </trkpt>
      <trkpt lat="29.20046000" lon="82.94397000">
        <ele>3874.0000</ele>
        <time>2010-01-01T00:29:23Z</time>
      </trkpt>
      <trkpt lat="29.20050000" lon="82.94398000">
        <ele>3872.0000</ele>
        <time>2010-01-01T00:29:25Z</time>
      </trkpt>
      <trkpt lat="29.20056000" lon="82.94381000">
        <ele>3880.0000</ele>
        <time>2010-01-01T00:29:31Z</time>
      </trkpt>
      <trkpt lat="29.20065000" lon="82.94376000">
        <ele>3880.0000</ele>
        <time>2010-01-01T00:29:35Z</time>
      </trkpt>
      <trkpt lat="29.20086000" lon="82.94372000">
        <ele>3878.0000</ele>
        <time>2010-01-01T00:29:44Z</time>
      </trkpt>
      <trkpt lat="29.20123000" lon="82.94405000">
        <ele>3854.0000</ele>
        <time>2010-01-01T00:30:03Z</time>
      </trkpt>
      <trkpt lat="29.20161000" lon="82.94400000">
        <ele>3855.0000</ele>
        <time>2010-01-01T00:30:18Z</time>
      </trkpt>
      <trkpt lat="29.20196000" lon="82.94409000">
        <ele>3833.0000</ele>
        <time>2010-01-01T00:30:32Z</time>
      </trkpt>
      <trkpt lat="29.20208000" lon="82.94405000">
        <ele>3830.0000</ele>
        <time>2010-01-01T00:30:37Z</time>
      </trkpt>
      <trkpt lat="29.20215000" lon="82.94401000">
        <ele>3831.0000</ele>
        <time>2010-01-01T00:30:40Z</time>
      </trkpt>
      <trkpt lat="29.20226000" lon="82.94384000">
        <ele>3838.0000</ele>
        <time>2010-01-01T00:30:48Z</time>
      </trkpt>
      <trkpt lat="29.20257000" lon="82.94381000">
        <ele>3826.0000</ele>
        <time>2010-01-01T00:31:00Z</time>
      </trkpt>
      <trkpt lat="29.20278000" lon="82.94367000">
        <ele>3824.0000</ele>
        <time>2010-01-01T00:31:10Z</time>
      </trkpt>
      <trkpt lat="29.20286000" lon="82.94365000">
        <ele>3826.0000</ele>
        <time>2010-01-01T00:31:13Z</time>
      </trkpt>
      <trkpt lat="29.20312000" lon="82.94375000">
        <ele>3819.0000</ele>
        <time>2010-01-01T00:31:24Z</time>
      </trkpt>
      <trkpt lat="29.20321000" lon="82.94388000">
        <ele>3810.0000</ele>
        <time>2010-01-01T00:31:30Z</time>
      </trkpt>
      <trkpt lat="29.20328000" lon="82.94390000">
        <ele>3809.0000</ele>
        <time>2010-01-01T00:31:33Z</time>
      </trkpt>
      <trkpt lat="29.20333000" lon="82.94390000">
        <ele>3809.0000</ele>
        <time>2010-01-01T00:31:35Z</time>
      </trkpt>
      <trkpt lat="29.20361000" lon="82.94373000">
        <ele>3812.0000</ele>
        <time>2010-01-01T00:31:48Z</time>
      </trkpt>
      <trkpt lat="29.20375000" lon="82.94371000">
        <ele>3810.0000</ele>
        <time>2010-01-01T00:31:53Z</time>
      </trkpt>
      <trkpt lat="29.20387000" lon="82.94376000">
        <ele>3805.0000</ele>
        <time>2010-01-01T00:31:58Z</time>
      </trkpt>
      <trkpt lat="29.20395000" lon="82.94390000">
        <ele>3797.0000</ele>
        <time>2010-01-01T00:32:04Z</time>
      </trkpt>
      <trkpt lat="29.20409000" lon="82.94372000">
        <ele>3799.0000</ele>
        <time>2010-01-01T00:32:13Z</time>
      </trkpt>
      <trkpt lat="29.20470000" lon="82.94315000">
        <ele>3805.0000</ele>
        <time>2010-01-01T00:32:44Z</time>
      </trkpt>
      <trkpt lat="29.20515000" lon="82.94278000">
        <ele>3800.0000</ele>
        <time>2010-01-01T00:33:06Z</time>
      </trkpt>
      <trkpt lat="29.20534000" lon="82.94273000">
        <ele>3790.0000</ele>
        <time>2010-01-01T00:33:14Z</time>
      </trkpt>
      <trkpt lat="29.20542000" lon="82.94268000">
        <ele>3788.0000</ele>
        <time>2010-01-01T00:33:18Z</time>
      </trkpt>
      <trkpt lat="29.20576000" lon="82.94241000">
        <ele>3793.0000</ele>
        <time>2010-01-01T00:33:34Z</time>
      </trkpt>
      <trkpt lat="29.20609000" lon="82.94245000">
        <ele>3787.0000</ele>
        <time>2010-01-01T00:33:48Z</time>
      </trkpt>
      <trkpt lat="29.20635000" lon="82.94243000">
        <ele>3792.0000</ele>
        <time>2010-01-01T00:33:58Z</time>
      </trkpt>
      <trkpt lat="29.20651000" lon="82.94258000">
        <ele>3782.0000</ele>
        <time>2010-01-01T00:34:06Z</time>
      </trkpt>
      <trkpt lat="29.20660000" lon="82.94260000">
        <ele>3782.0000</ele>
        <time>2010-01-01T00:34:10Z</time>
      </trkpt>
      <trkpt lat="29.20693000" lon="82.94247000">
        <ele>3787.0000</ele>
        <time>2010-01-01T00:34:24Z</time>
      </trkpt>
      <trkpt lat="29.20705000" lon="82.94247000">
        <ele>3782.0000</ele>
        <time>2010-01-01T00:34:29Z</time>
      </trkpt>
      <trkpt lat="29.20715000" lon="82.94235000">
        <ele>3784.0000</ele>
        <time>2010-01-01T00:34:34Z</time>
      </trkpt>
      <trkpt lat="29.20737000" lon="82.94217000">
        <ele>3788.0000</ele>
        <time>2010-01-01T00:34:45Z</time>
      </trkpt>
      <trkpt lat="29.20751000" lon="82.94197000">
        <ele>3801.0000</ele>
        <time>2010-01-01T00:34:54Z</time>
      </trkpt>
      <trkpt lat="29.20773000" lon="82.94182000">
        <ele>3801.0000</ele>
        <time>2010-01-01T00:35:05Z</time>
      </trkpt>
      <trkpt lat="29.20807000" lon="82.94151000">
        <ele>3798.0000</ele>
        <time>2010-01-01T00:35:22Z</time>
      </trkpt>
      <trkpt lat="29.20817000" lon="82.94145000">
        <ele>3791.0000</ele>
        <time>2010-01-01T00:35:26Z</time>
      </trkpt>
      <trkpt lat="29.20828000" lon="82.94141000">
        <ele>3781.0000</ele>
        <time>2010-01-01T00:35:31Z</time>
      </trkpt>
      <trkpt lat="29.20833000" lon="82.94142000">
        <ele>3774.0000</ele>
        <time>2010-01-01T00:35:33Z</time>
      </trkpt>
      <trkpt lat="29.20836000" lon="82.94138000">
        <ele>3773.0000</ele>
        <time>2010-01-01T00:35:35Z</time>
      </trkpt>
      <trkpt lat="29.20837000" lon="82.94131000">
        <ele>3775.0000</ele>
        <time>2010-01-01T00:35:37Z</time>
      </trkpt>
      <trkpt lat="29.20860000" lon="82.94092000">
        <ele>3784.0000</ele>
        <time>2010-01-01T00:35:54Z</time>
      </trkpt>
      <trkpt lat="29.20884000" lon="82.94080000">
        <ele>3779.0000</ele>
        <time>2010-01-01T00:36:04Z</time>
      </trkpt>
      <trkpt lat="29.20905000" lon="82.94065000">
        <ele>3772.0000</ele>
        <time>2010-01-01T00:36:14Z</time>
      </trkpt>
      <trkpt lat="29.20937000" lon="82.94054000">
        <ele>3763.0000</ele>
        <time>2010-01-01T00:36:28Z</time>
      </trkpt>
      <trkpt lat="29.20951000" lon="82.94057000">
        <ele>3756.0000</ele>
        <time>2010-01-01T00:36:33Z</time>
      </trkpt>
      <trkpt lat="29.20968000" lon="82.94063000">
        <ele>3746.0000</ele>
        <time>2010-01-01T00:36:40Z</time>
      </trkpt>
      <trkpt lat="29.20972000" lon="82.94063000">
        <ele>3744.0000</ele>
        <time>2010-01-01T00:36:42Z</time>
      </trkpt>
      <trkpt lat="29.21003000" lon="82.94035000">
        <ele>3742.0000</ele>
        <time>2010-01-01T00:36:58Z</time>
      </trkpt>
      <trkpt lat="29.21018000" lon="82.94029000">
        <ele>3733.0000</ele>
        <time>2010-01-01T00:37:04Z</time>
      </trkpt>
      <trkpt lat="29.21043000" lon="82.94007000">
        <ele>3723.0000</ele>
        <time>2010-01-01T00:37:17Z</time>
      </trkpt>
      <trkpt lat="29.21059000" lon="82.94003000">
        <ele>3713.0000</ele>
        <time>2010-01-01T00:37:23Z</time>
      </trkpt>
      <trkpt lat="29.21069000" lon="82.93995000">
        <ele>3711.0000</ele>
        <time>2010-01-01T00:37:28Z</time>
      </trkpt>
      <trkpt lat="29.21076000" lon="82.93969000">
        <ele>3720.0000</ele>
        <time>2010-01-01T00:37:38Z</time>
      </trkpt>
      <trkpt lat="29.21084000" lon="82.93958000">
        <ele>3717.0000</ele>
        <time>2010-01-01T00:37:43Z</time>
      </trkpt>
      <trkpt lat="29.21093000" lon="82.93939000">
        <ele>3713.0000</ele>
        <time>2010-01-01T00:37:50Z</time>
      </trkpt>
      <trkpt lat="29.21104000" lon="82.93904000">
        <ele>3710.0000</ele>
        <time>2010-01-01T00:38:03Z</time>
      </trkpt>
      <trkpt lat="29.21109000" lon="82.93892000">
        <ele>3709.0000</ele>
        <time>2010-01-01T00:38:08Z</time>
      </trkpt>
      <trkpt lat="29.21112000" lon="82.93881000">
        <ele>3713.0000</ele>
        <time>2010-01-01T00:38:12Z</time>
      </trkpt>
      <trkpt lat="29.21114000" lon="82.93878000">
        <ele>3714.0000</ele>
        <time>2010-01-01T00:38:13Z</time>
      </trkpt>
      <trkpt lat="29.21118000" lon="82.93879000">
        <ele>3712.0000</ele>
        <time>2010-01-01T00:38:15Z</time>
      </trkpt>
      <trkpt lat="29.21127000" lon="82.93883000">
        <ele>3705.0000</ele>
        <time>2010-01-01T00:38:19Z</time>
      </trkpt>
      <trkpt lat="29.21139000" lon="82.93875000">
        <ele>3704.0000</ele>
        <time>2010-01-01T00:38:24Z</time>
      </trkpt>
      <trkpt lat="29.21152000" lon="82.93876000">
        <ele>3699.0000</ele>
        <time>2010-01-01T00:38:30Z</time>
      </trkpt>
      <trkpt lat="29.21173000" lon="82.93885000">
        <ele>3690.0000</ele>
        <time>2010-01-01T00:38:39Z</time>
      </trkpt>
      <trkpt lat="29.21192000" lon="82.93889000">
        <ele>3689.0000</ele>
        <time>2010-01-01T00:38:46Z</time>
      </trkpt>
      <trkpt lat="29.21199000" lon="82.93884000">
        <ele>3689.0000</ele>
        <time>2010-01-01T00:38:50Z</time>
      </trkpt>
      <trkpt lat="29.21205000" lon="82.93887000">
        <ele>3688.0000</ele>
        <time>2010-01-01T00:38:52Z</time>
      </trkpt>
      <trkpt lat="29.21216000" lon="82.93887000">
        <ele>3687.0000</ele>
        <time>2010-01-01T00:38:57Z</time>
      </trkpt>
      <trkpt lat="29.21226000" lon="82.93890000">
        <ele>3685.0000</ele>
        <time>2010-01-01T00:39:01Z</time>
      </trkpt>
      <trkpt lat="29.21271000" lon="82.93886000">
        <ele>3681.0000</ele>
        <time>2010-01-01T00:39:19Z</time>
      </trkpt>
      <trkpt lat="29.21275000" lon="82.93882000">
        <ele>3682.0000</ele>
        <time>2010-01-01T00:39:21Z</time>
      </trkpt>
      <trkpt lat="29.21279000" lon="82.93874000">
        <ele>3686.0000</ele>
        <time>2010-01-01T00:39:24Z</time>
      </trkpt>
      <trkpt lat="29.21286000" lon="82.93868000">
        <ele>3687.0000</ele>
        <time>2010-01-01T00:39:28Z</time>
      </trkpt>
      <trkpt lat="29.21308000" lon="82.93858000">
        <ele>3685.0000</ele>
        <time>2010-01-01T00:39:37Z</time>
      </trkpt>
      <trkpt lat="29.21346000" lon="82.93830000">
        <ele>3686.0000</ele>
        <time>2010-01-01T00:39:55Z</time>
      </trkpt>
      <trkpt lat="29.21360000" lon="82.93823000">
        <ele>3684.0000</ele>
        <time>2010-01-01T00:40:01Z</time>
      </trkpt>
      <trkpt lat="29.21394000" lon="82.93799000">
        <ele>3676.0000</ele>
        <time>2010-01-01T00:40:17Z</time>
      </trkpt>
      <trkpt lat="29.21416000" lon="82.93793000">
        <ele>3661.0000</ele>
        <time>2010-01-01T00:40:26Z</time>
      </trkpt>
      <trkpt lat="29.21444000" lon="82.93783000">
        <ele>3653.0000</ele>
        <time>2010-01-01T00:40:38Z</time>
      </trkpt>
      <trkpt lat="29.21461000" lon="82.93774000">
        <ele>3645.0000</ele>
        <time>2010-01-01T00:40:46Z</time>
      </trkpt>
      <trkpt lat="29.21469000" lon="82.93767000">
        <ele>3641.0000</ele>
        <time>2010-01-01T00:40:50Z</time>
      </trkpt>
      <trkpt lat="29.21474000" lon="82.93756000">
        <ele>3639.0000</ele>
        <time>2010-01-01T00:40:54Z</time>
      </trkpt>
      <trkpt lat="29.21478000" lon="82.93744000">
        <ele>3638.0000</ele>
        <time>2010-01-01T00:40:58Z</time>
      </trkpt>
      <trkpt lat="29.21479000" lon="82.93734000">
        <ele>3640.0000</ele>
        <time>2010-01-01T00:41:02Z</time>
      </trkpt>
      <trkpt lat="29.21491000" lon="82.93703000">
        <ele>3640.0000</ele>
        <time>2010-01-01T00:41:14Z</time>
      </trkpt>
      <trkpt lat="29.21499000" lon="82.93693000">
        <ele>3636.0000</ele>
        <time>2010-01-01T00:41:19Z</time>
      </trkpt>
      <trkpt lat="29.21506000" lon="82.93693000">
        <ele>3634.0000</ele>
        <time>2010-01-01T00:41:21Z</time>
      </trkpt>
      <trkpt lat="29.21514000" lon="82.93695000">
        <ele>3631.0000</ele>
        <time>2010-01-01T00:41:25Z</time>
      </trkpt>
      <trkpt lat="29.21533000" lon="82.93691000">
        <ele>3627.0000</ele>
        <time>2010-01-01T00:41:32Z</time>
      </trkpt>
      <trkpt lat="29.21548000" lon="82.93680000">
        <ele>3627.0000</ele>
        <time>2010-01-01T00:41:40Z</time>
      </trkpt>
      <trkpt lat="29.21565000" lon="82.93680000">
        <ele>3628.0000</ele>
        <time>2010-01-01T00:41:46Z</time>
      </trkpt>
      <trkpt lat="29.21589000" lon="82.93678000">
        <ele>3630.0000</ele>
        <time>2010-01-01T00:41:56Z</time>
      </trkpt>
      <trkpt lat="29.21631000" lon="82.93670000">
        <ele>3625.0000</ele>
        <time>2010-01-01T00:42:13Z</time>
      </trkpt>
      <trkpt lat="29.21667000" lon="82.93668000">
        <ele>3616.0000</ele>
        <time>2010-01-01T00:42:27Z</time>
      </trkpt>
      <trkpt lat="29.21693000" lon="82.93669000">
        <ele>3616.0000</ele>
        <time>2010-01-01T00:42:38Z</time>
      </trkpt>
      <trkpt lat="29.21820000" lon="82.93651000">
        <ele>3622.0000</ele>
        <time>2010-01-01T00:43:29Z</time>
      </trkpt>
      <trkpt lat="29.21849000" lon="82.93644000">
        <ele>3625.0000</ele>
        <time>2010-01-01T00:43:41Z</time>
      </trkpt>
      <trkpt lat="29.21849796" lon="82.93647766">
        <ele>3625.0000</ele>
        <time>2010-01-01T00:00:00Z</time>
      </trkpt>
      <trkpt lat="29.21849000" lon="82.93644000">
        <ele>3625.0000</ele>
        <time>2010-01-01T00:00:02Z</time>
      </trkpt>
      <trkpt lat="29.21886000" lon="82.93645000">
        <ele>3625.0000</ele>
        <time>2010-01-01T00:00:32Z</time>
      </trkpt>
      <trkpt lat="29.21954000" lon="82.93643000">
        <ele>3623.0000</ele>
        <time>2010-01-01T00:01:26Z</time>
      </trkpt>
      <trkpt lat="29.21989000" lon="82.93630000">
        <ele>3622.0000</ele>
        <time>2010-01-01T00:01:56Z</time>
      </trkpt>
      <trkpt lat="29.22030000" lon="82.93630000">
        <ele>3623.0000</ele>
        <time>2010-01-01T00:02:29Z</time>
      </trkpt>
      <trkpt lat="29.22093000" lon="82.93603000">
        <ele>3624.0000</ele>
        <time>2010-01-01T00:03:22Z</time>
      </trkpt>
      <trkpt lat="29.22216000" lon="82.93520000">
        <ele>3628.0000</ele>
        <time>2010-01-01T00:05:17Z</time>
      </trkpt>
      <trkpt lat="29.22255000" lon="82.93472000">
        <ele>3625.0000</ele>
        <time>2010-01-01T00:06:03Z</time>
      </trkpt>
      <trkpt lat="29.22288000" lon="82.93421000">
        <ele>3626.0000</ele>
        <time>2010-01-01T00:06:47Z</time>
      </trkpt>
      <trkpt lat="29.22310000" lon="82.93390000">
        <ele>3630.0000</ele>
        <time>2010-01-01T00:07:15Z</time>
      </trkpt>
      <trkpt lat="29.22327000" lon="82.93335000">
        <ele>3630.0000</ele>
        <time>2010-01-01T00:07:56Z</time>
      </trkpt>
      <trkpt lat="29.22332000" lon="82.93293000">
        <ele>3630.0000</ele>
        <time>2010-01-01T00:08:25Z</time>
      </trkpt>
      <trkpt lat="29.22340000" lon="82.93275000">
        <ele>3630.0000</ele>
        <time>2010-01-01T00:08:39Z</time>
      </trkpt>
      <trkpt lat="29.22349000" lon="82.93239000">
        <ele>3631.0000</ele>
        <time>2010-01-01T00:09:05Z</time>
      </trkpt>
      <trkpt lat="29.22376000" lon="82.93170000">
        <ele>3633.0000</ele>
        <time>2010-01-01T00:09:58Z</time>
      </trkpt>
      <trkpt lat="29.22408000" lon="82.93093000">
        <ele>3630.0000</ele>
        <time>2010-01-01T00:10:58Z</time>
      </trkpt>
      <trkpt lat="29.22483000" lon="82.92998000">
        <ele>3633.0000</ele>
        <time>2010-01-01T00:12:27Z</time>
      </trkpt>
      <trkpt lat="29.22517000" lon="82.92955000">
        <ele>3633.0000</ele>
        <time>2010-01-01T00:13:08Z</time>
      </trkpt>
      <trkpt lat="29.22592000" lon="82.92871000">
        <ele>3634.0000</ele>
        <time>2010-01-01T00:14:32Z</time>
      </trkpt>
      <trkpt lat="29.22626000" lon="82.92829000">
        <ele>3636.0000</ele>
        <time>2010-01-01T00:15:12Z</time>
      </trkpt>
      <trkpt lat="29.22660000" lon="82.92774000">
        <ele>3639.0000</ele>
        <time>2010-01-01T00:15:59Z</time>
      </trkpt>
      <trkpt lat="29.22731000" lon="82.92708000">
        <ele>3642.0000</ele>
        <time>2010-01-01T00:17:12Z</time>
      </trkpt>
      <trkpt lat="29.22813000" lon="82.92626000">
        <ele>3643.0000</ele>
        <time>2010-01-01T00:18:39Z</time>
      </trkpt>
      <trkpt lat="29.22828000" lon="82.92615000">
        <ele>3644.0000</ele>
        <time>2010-01-01T00:18:54Z</time>
      </trkpt>
      <trkpt lat="29.22866000" lon="82.92559000">
        <ele>3647.0000</ele>
        <time>2010-01-01T00:19:43Z</time>
      </trkpt>
      <trkpt lat="29.22901000" lon="82.92523000">
        <ele>3645.0000</ele>
        <time>2010-01-01T00:20:21Z</time>
      </trkpt>
      <trkpt lat="29.22966000" lon="82.92512000">
        <ele>3641.0000</ele>
        <time>2010-01-01T00:21:13Z</time>
      </trkpt>
      <trkpt lat="29.22979000" lon="82.92517000">
        <ele>3641.0000</ele>
        <time>2010-01-01T00:21:24Z</time>
      </trkpt>
      <trkpt lat="29.23014000" lon="82.92537000">
        <ele>3641.0000</ele>
        <time>2010-01-01T00:21:56Z</time>
      </trkpt>
      <trkpt lat="29.23046000" lon="82.92540000">
        <ele>3642.0000</ele>
        <time>2010-01-01T00:22:21Z</time>
      </trkpt>
      <trkpt lat="29.23060000" lon="82.92545000">
        <ele>3642.0000</ele>
        <time>2010-01-01T00:22:33Z</time>
      </trkpt>
      <trkpt lat="29.23084000" lon="82.92551000">
        <ele>3641.0000</ele>
        <time>2010-01-01T00:22:53Z</time>
      </trkpt>
      <trkpt lat="29.23101000" lon="82.92540000">
        <ele>3641.0000</ele>
        <time>2010-01-01T00:23:08Z</time>
      </trkpt>
      <trkpt lat="29.23131000" lon="82.92538000">
        <ele>3641.0000</ele>
        <time>2010-01-01T00:23:33Z</time>
      </trkpt>
      <trkpt lat="29.23143000" lon="82.92531000">
        <ele>3642.0000</ele>
        <time>2010-01-01T00:23:43Z</time>
      </trkpt>
      <trkpt lat="29.23152000" lon="82.92522000">
        <ele>3643.0000</ele>
        <time>2010-01-01T00:23:53Z</time>
      </trkpt>
      <trkpt lat="29.23156000" lon="82.92508000">
        <ele>3644.0000</ele>
        <time>2010-01-01T00:24:03Z</time>
      </trkpt>
      <trkpt lat="29.23169000" lon="82.92495000">
        <ele>3645.0000</ele>
        <time>2010-01-01T00:24:17Z</time>
      </trkpt>
      <trkpt lat="29.23180000" lon="82.92487000">
        <ele>3645.0000</ele>
        <time>2010-01-01T00:24:27Z</time>
      </trkpt>
      <trkpt lat="29.23251000" lon="82.92427000">
        <ele>3645.0000</ele>
        <time>2010-01-01T00:25:38Z</time>
      </trkpt>
      <trkpt lat="29.23261000" lon="82.92413000">
        <ele>3647.0000</ele>
        <time>2010-01-01T00:25:51Z</time>
      </trkpt>
      <trkpt lat="29.23270000" lon="82.92413000">
        <ele>3647.0000</ele>
        <time>2010-01-01T00:25:58Z</time>
      </trkpt>
      <trkpt lat="29.23318000" lon="82.92386000">
        <ele>3650.0000</ele>
        <time>2010-01-01T00:26:41Z</time>
      </trkpt>
      <trkpt lat="29.23342000" lon="82.92378000">
        <ele>3648.0000</ele>
        <time>2010-01-01T00:27:01Z</time>
      </trkpt>
      <trkpt lat="29.23362000" lon="82.92363000">
        <ele>3649.0000</ele>
        <time>2010-01-01T00:27:20Z</time>
      </trkpt>
      <trkpt lat="29.23383000" lon="82.92344000">
        <ele>3650.0000</ele>
        <time>2010-01-01T00:27:41Z</time>
      </trkpt>
      <trkpt lat="29.23398000" lon="82.92323000">
        <ele>3651.0000</ele>
        <time>2010-01-01T00:28:00Z</time>
      </trkpt>
      <trkpt lat="29.23405000" lon="82.92312000">
        <ele>3651.0000</ele>
        <time>2010-01-01T00:28:10Z</time>
      </trkpt>
      <trkpt lat="29.23436000" lon="82.92270000">
        <ele>3656.0000</ele>
        <time>2010-01-01T00:28:48Z</time>
      </trkpt>
      <trkpt lat="29.23448000" lon="82.92244000">
        <ele>3656.0000</ele>
        <time>2010-01-01T00:29:09Z</time>
      </trkpt>
      <trkpt lat="29.23489000" lon="82.92198000">
        <ele>3653.0000</ele>
        <time>2010-01-01T00:29:55Z</time>
      </trkpt>
      <trkpt lat="29.23512000" lon="82.92156000">
        <ele>3653.0000</ele>
        <time>2010-01-01T00:30:29Z</time>
      </trkpt>
      <trkpt lat="29.23525000" lon="82.92140000">
        <ele>3653.0000</ele>
        <time>2010-01-01T00:30:45Z</time>
      </trkpt>
      <trkpt lat="29.23535000" lon="82.92122000">
        <ele>3654.0000</ele>
        <time>2010-01-01T00:30:59Z</time>
      </trkpt>
      <trkpt lat="29.23546000" lon="82.92108000">
        <ele>3655.0000</ele>
        <time>2010-01-01T00:31:13Z</time>
      </trkpt>
      <trkpt lat="29.23564000" lon="82.92094000">
        <ele>3655.0000</ele>
        <time>2010-01-01T00:31:30Z</time>
      </trkpt>
      <trkpt lat="29.23577000" lon="82.92068000">
        <ele>3656.0000</ele>
        <time>2010-01-01T00:31:51Z</time>
      </trkpt>
      <trkpt lat="29.23596000" lon="82.92060000">
        <ele>3655.0000</ele>
        <time>2010-01-01T00:32:07Z</time>
      </trkpt>
      <trkpt lat="29.23613000" lon="82.92062000">
        <ele>3653.0000</ele>
        <time>2010-01-01T00:32:21Z</time>
      </trkpt>
      <trkpt lat="29.23635000" lon="82.92058000">
        <ele>3652.0000</ele>
        <time>2010-01-01T00:32:39Z</time>
      </trkpt>
      <trkpt lat="29.23659000" lon="82.92038000">
        <ele>3650.0000</ele>
        <time>2010-01-01T00:33:02Z</time>
      </trkpt>
      <trkpt lat="29.23695000" lon="82.92014000">
        <ele>3652.0000</ele>
        <time>2010-01-01T00:33:36Z</time>
      </trkpt>
      <trkpt lat="29.23714000" lon="82.91990000">
        <ele>3651.0000</ele>
        <time>2010-01-01T00:33:58Z</time>
      </trkpt>
      <trkpt lat="29.23738000" lon="82.91973000">
        <ele>3652.0000</ele>
        <time>2010-01-01T00:34:21Z</time>
      </trkpt>
      <trkpt lat="29.23775000" lon="82.91952000">
        <ele>3654.0000</ele>
        <time>2010-01-01T00:34:54Z</time>
      </trkpt>
      <trkpt lat="29.23811000" lon="82.91921000">
        <ele>3649.0000</ele>
        <time>2010-01-01T00:35:30Z</time>
      </trkpt>
      <trkpt lat="29.23828000" lon="82.91912000">
        <ele>3650.0000</ele>
        <time>2010-01-01T00:35:45Z</time>
      </trkpt>
      <trkpt lat="29.23887000" lon="82.91876000">
        <ele>3655.0000</ele>
        <time>2010-01-01T00:36:39Z</time>
      </trkpt>
      <trkpt lat="29.23921000" lon="82.91848000">
        <ele>3656.0000</ele>
        <time>2010-01-01T00:37:12Z</time>
      </trkpt>
      <trkpt lat="29.23949000" lon="82.91818000">
        <ele>3661.0000</ele>
        <time>2010-01-01T00:37:43Z</time>
      </trkpt>
      <trkpt lat="29.23969000" lon="82.91800000">
        <ele>3663.0000</ele>
        <time>2010-01-01T00:38:03Z</time>
      </trkpt>
      <trkpt lat="29.23982000" lon="82.91781000">
        <ele>3664.0000</ele>
        <time>2010-01-01T00:38:20Z</time>
      </trkpt>
      <trkpt lat="29.24000000" lon="82.91761000">
        <ele>3663.0000</ele>
        <time>2010-01-01T00:38:40Z</time>
      </trkpt>
      <trkpt lat="29.24025000" lon="82.91745000">
        <ele>3661.0000</ele>
        <time>2010-01-01T00:39:03Z</time>
      </trkpt>
      <trkpt lat="29.24058000" lon="82.91695000">
        <ele>3657.0000</ele>
        <time>2010-01-01T00:39:47Z</time>
      </trkpt>
      <trkpt lat="29.24171000" lon="82.91580000">
        <ele>3663.0000</ele>
        <time>2010-01-01T00:41:48Z</time>
      </trkpt>
      <trkpt lat="29.24179000" lon="82.91560000">
        <ele>3665.0000</ele>
        <time>2010-01-01T00:42:03Z</time>
      </trkpt>
      <trkpt lat="29.24192000" lon="82.91540000">
        <ele>3668.0000</ele>
        <time>2010-01-01T00:42:21Z</time>
      </trkpt>
      <trkpt lat="29.24215000" lon="82.91521000">
        <ele>3665.0000</ele>
        <time>2010-01-01T00:42:43Z</time>
      </trkpt>
      <trkpt lat="29.24225000" lon="82.91508000">
        <ele>3663.0000</ele>
        <time>2010-01-01T00:42:55Z</time>
      </trkpt>
      <trkpt lat="29.24251000" lon="82.91495000">
        <ele>3664.0000</ele>
        <time>2010-01-01T00:43:18Z</time>
      </trkpt>
      <trkpt lat="29.24295000" lon="82.91461000">
        <ele>3665.0000</ele>
        <time>2010-01-01T00:44:01Z</time>
      </trkpt>
      <trkpt lat="29.24327000" lon="82.91415000">
        <ele>3665.0000</ele>
        <time>2010-01-01T00:44:42Z</time>
      </trkpt>
      <trkpt lat="29.24349000" lon="82.91400000">
        <ele>3667.0000</ele>
        <time>2010-01-01T00:45:02Z</time>
      </trkpt>
      <trkpt lat="29.24363000" lon="82.91398000">
        <ele>3667.0000</ele>
        <time>2010-01-01T00:45:14Z</time>
      </trkpt>
      <trkpt lat="29.24372000" lon="82.91394000">
        <ele>3667.0000</ele>
        <time>2010-01-01T00:45:21Z</time>
      </trkpt>
      <trkpt lat="29.24384000" lon="82.91377000">
        <ele>3667.0000</ele>
        <time>2010-01-01T00:45:37Z</time>
      </trkpt>
      <trkpt lat="29.24394000" lon="82.91366000">
        <ele>3667.0000</ele>
        <time>2010-01-01T00:45:48Z</time>
      </trkpt>
      <trkpt lat="29.24420000" lon="82.91355000">
        <ele>3667.0000</ele>
        <time>2010-01-01T00:46:10Z</time>
      </trkpt>
      <trkpt lat="29.24441000" lon="82.91332000">
        <ele>3668.0000</ele>
        <time>2010-01-01T00:46:33Z</time>
      </trkpt>
      <trkpt lat="29.24456000" lon="82.91322000">
        <ele>3668.0000</ele>
        <time>2010-01-01T00:46:47Z</time>
      </trkpt>
      <trkpt lat="29.24495000" lon="82.91282000">
        <ele>3668.0000</ele>
        <time>2010-01-01T00:47:29Z</time>
      </trkpt>
      <trkpt lat="29.24530000" lon="82.91263000">
        <ele>3667.0000</ele>
        <time>2010-01-01T00:48:00Z</time>
      </trkpt>
      <trkpt lat="29.24534000" lon="82.91256000">
        <ele>3668.0000</ele>
        <time>2010-01-01T00:48:06Z</time>
      </trkpt>
      <trkpt lat="29.24549000" lon="82.91252000">
        <ele>3668.0000</ele>
        <time>2010-01-01T00:48:18Z</time>
      </trkpt>
      <trkpt lat="29.24558000" lon="82.91243000">
        <ele>3669.0000</ele>
        <time>2010-01-01T00:48:28Z</time>
      </trkpt>
      <trkpt lat="29.24569000" lon="82.91218000">
        <ele>3669.0000</ele>
        <time>2010-01-01T00:48:47Z</time>
      </trkpt>
      <trkpt lat="29.24583000" lon="82.91210000">
        <ele>3669.0000</ele>
        <time>2010-01-01T00:49:00Z</time>
      </trkpt>
      <trkpt lat="29.24610000" lon="82.91204000">
        <ele>3671.0000</ele>
        <time>2010-01-01T00:49:22Z</time>
      </trkpt>
      <trkpt lat="29.24629000" lon="82.91205000">
        <ele>3673.0000</ele>
        <time>2010-01-01T00:49:37Z</time>
      </trkpt>
      <trkpt lat="29.24642000" lon="82.91212000">
        <ele>3673.0000</ele>
        <time>2010-01-01T00:49:48Z</time>
      </trkpt>
      <trkpt lat="29.24662000" lon="82.91213000">
        <ele>3674.0000</ele>
        <time>2010-01-01T00:50:04Z</time>
      </trkpt>
      <trkpt lat="29.24673000" lon="82.91208000">
        <ele>3675.0000</ele>
        <time>2010-01-01T00:50:14Z</time>
      </trkpt>
      <trkpt lat="29.24688000" lon="82.91206000">
        <ele>3676.0000</ele>
        <time>2010-01-01T00:50:26Z</time>
      </trkpt>
      <trkpt lat="29.24702000" lon="82.91211000">
        <ele>3675.0000</ele>
        <time>2010-01-01T00:50:38Z</time>
      </trkpt>
      <trkpt lat="29.24720000" lon="82.91212000">
        <ele>3672.0000</ele>
        <time>2010-01-01T00:50:52Z</time>
      </trkpt>
      <trkpt lat="29.24741000" lon="82.91215000">
        <ele>3671.0000</ele>
        <time>2010-01-01T00:51:09Z</time>
      </trkpt>
      <trkpt lat="29.24783000" lon="82.91203000">
        <ele>3676.0000</ele>
        <time>2010-01-01T00:51:44Z</time>
      </trkpt>
      <trkpt lat="29.24820000" lon="82.91178000">
        <ele>3681.0000</ele>
        <time>2010-01-01T00:52:18Z</time>
      </trkpt>
      <trkpt lat="29.24838000" lon="82.91176000">
        <ele>3684.0000</ele>
        <time>2010-01-01T00:52:33Z</time>
      </trkpt>
      <trkpt lat="29.24888000" lon="82.91146000">
        <ele>3683.0000</ele>
        <time>2010-01-01T00:53:18Z</time>
      </trkpt>
      <trkpt lat="29.24923000" lon="82.91119000">
        <ele>3680.0000</ele>
        <time>2010-01-01T00:53:52Z</time>
      </trkpt>
      <trkpt lat="29.24937000" lon="82.91111000">
        <ele>3680.0000</ele>
        <time>2010-01-01T00:54:04Z</time>
      </trkpt>
      <trkpt lat="29.24947000" lon="82.91101000">
        <ele>3679.0000</ele>
        <time>2010-01-01T00:54:15Z</time>
      </trkpt>
      <trkpt lat="29.24954000" lon="82.91085000">
        <ele>3680.0000</ele>
        <time>2010-01-01T00:54:27Z</time>
      </trkpt>
      <trkpt lat="29.24955000" lon="82.91074000">
        <ele>3681.0000</ele>
        <time>2010-01-01T00:54:35Z</time>
      </trkpt>
      <trkpt lat="29.24958000" lon="82.91067000">
        <ele>3682.0000</ele>
        <time>2010-01-01T00:54:40Z</time>
      </trkpt>
      <trkpt lat="29.24963000" lon="82.91063000">
        <ele>3680.0000</ele>
        <time>2010-01-01T00:54:45Z</time>
      </trkpt>
      <trkpt lat="29.24988000" lon="82.91067000">
        <ele>3678.0000</ele>
        <time>2010-01-01T00:55:06Z</time>
      </trkpt>
      <trkpt lat="29.25017000" lon="82.91066000">
        <ele>3679.0000</ele>
        <time>2010-01-01T00:55:29Z</time>
      </trkpt>
      <trkpt lat="29.25044000" lon="82.91051000">
        <ele>3681.0000</ele>
        <time>2010-01-01T00:55:53Z</time>
      </trkpt>
      <trkpt lat="29.25068000" lon="82.91030000">
        <ele>3682.0000</ele>
        <time>2010-01-01T00:56:17Z</time>
      </trkpt>
      <trkpt lat="29.25117000" lon="82.90972000">
        <ele>3689.0000</ele>
        <time>2010-01-01T00:57:13Z</time>
      </trkpt>
      <trkpt lat="29.25154000" lon="82.90937000">
        <ele>3687.0000</ele>
        <time>2010-01-01T00:57:52Z</time>
      </trkpt>
      <trkpt lat="29.25223000" lon="82.90891000">
        <ele>3690.0000</ele>
        <time>2010-01-01T00:58:56Z</time>
      </trkpt>
      <trkpt lat="29.25249000" lon="82.90864000">
        <ele>3690.0000</ele>
        <time>2010-01-01T00:59:24Z</time>
      </trkpt>
      <trkpt lat="29.25254000" lon="82.90859000">
        <ele>3690.0000</ele>
        <time>2010-01-01T00:59:29Z</time>
      </trkpt>
      <trkpt lat="29.25277000" lon="82.90851000">
        <ele>3690.0000</ele>
        <time>2010-01-01T00:59:48Z</time>
      </trkpt>
      <trkpt lat="29.25295000" lon="82.90839000">
        <ele>3689.0000</ele>
        <time>2010-01-01T01:00:05Z</time>
      </trkpt>
      <trkpt lat="29.25322000" lon="82.90837000">
        <ele>3688.0000</ele>
        <time>2010-01-01T01:00:27Z</time>
      </trkpt>
      <trkpt lat="29.25344000" lon="82.90843000">
        <ele>3687.0000</ele>
        <time>2010-01-01T01:00:45Z</time>
      </trkpt>
      <trkpt lat="29.25359000" lon="82.90851000">
        <ele>3689.0000</ele>
        <time>2010-01-01T01:00:58Z</time>
      </trkpt>
      <trkpt lat="29.25406000" lon="82.90855000">
        <ele>3688.0000</ele>
        <time>2010-01-01T01:01:36Z</time>
      </trkpt>
      <trkpt lat="29.25422000" lon="82.90863000">
        <ele>3688.0000</ele>
        <time>2010-01-01T01:01:50Z</time>
      </trkpt>
      <trkpt lat="29.25447000" lon="82.90863000">
        <ele>3687.0000</ele>
        <time>2010-01-01T01:02:10Z</time>
      </trkpt>
      <trkpt lat="29.25461000" lon="82.90866000">
        <ele>3687.0000</ele>
        <time>2010-01-01T01:02:21Z</time>
      </trkpt>
      <trkpt lat="29.25467000" lon="82.90863000">
        <ele>3686.0000</ele>
        <time>2010-01-01T01:02:26Z</time>
      </trkpt>
      <trkpt lat="29.25539000" lon="82.90797000">
        <ele>3692.0000</ele>
        <time>2010-01-01T01:03:40Z</time>
      </trkpt>
      <trkpt lat="29.25569000" lon="82.90762000">
        <ele>3689.0000</ele>
        <time>2010-01-01T01:04:14Z</time>
      </trkpt>
      <trkpt lat="29.25604000" lon="82.90728000">
        <ele>3690.0000</ele>
        <time>2010-01-01T01:04:51Z</time>
      </trkpt>
      <trkpt lat="29.25642000" lon="82.90676000">
        <ele>3691.0000</ele>
        <time>2010-01-01T01:05:39Z</time>
      </trkpt>
      <trkpt lat="29.25664000" lon="82.90655000">
        <ele>3695.0000</ele>
        <time>2010-01-01T01:06:01Z</time>
      </trkpt>
      <trkpt lat="29.25704000" lon="82.90630000">
        <ele>3704.0000</ele>
        <time>2010-01-01T01:06:38Z</time>
      </trkpt>
      <trkpt lat="29.25753000" lon="82.90609000">
        <ele>3706.0000</ele>
        <time>2010-01-01T01:07:20Z</time>
      </trkpt>
      <trkpt lat="29.25768000" lon="82.90607000">
        <ele>3705.0000</ele>
        <time>2010-01-01T01:07:32Z</time>
      </trkpt>
      <trkpt lat="29.25784000" lon="82.90611000">
        <ele>3708.0000</ele>
        <time>2010-01-01T01:07:45Z</time>
      </trkpt>
      <trkpt lat="29.25796000" lon="82.90606000">
        <ele>3710.0000</ele>
        <time>2010-01-01T01:07:55Z</time>
      </trkpt>
      <trkpt lat="29.25831000" lon="82.90581000">
        <ele>3713.0000</ele>
        <time>2010-01-01T01:08:28Z</time>
      </trkpt>
      <trkpt lat="29.25842000" lon="82.90566000">
        <ele>3712.0000</ele>
        <time>2010-01-01T01:08:42Z</time>
      </trkpt>
      <trkpt lat="29.25853000" lon="82.90558000">
        <ele>3711.0000</ele>
        <time>2010-01-01T01:08:52Z</time>
      </trkpt>
      <trkpt lat="29.25877000" lon="82.90554000">
        <ele>3713.0000</ele>
        <time>2010-01-01T01:09:12Z</time>
      </trkpt>
      <trkpt lat="29.25936000" lon="82.90514000">
        <ele>3707.0000</ele>
        <time>2010-01-01T01:10:07Z</time>
      </trkpt>
      <trkpt lat="29.25946000" lon="82.90503000">
        <ele>3706.0000</ele>
        <time>2010-01-01T01:10:18Z</time>
      </trkpt>
      <trkpt lat="29.25963000" lon="82.90492000">
        <ele>3708.0000</ele>
        <time>2010-01-01T01:10:33Z</time>
      </trkpt>
      <trkpt lat="29.25995000" lon="82.90481000">
        <ele>3711.0000</ele>
        <time>2010-01-01T01:11:00Z</time>
      </trkpt>
      <trkpt lat="29.26005000" lon="82.90472000">
        <ele>3710.0000</ele>
        <time>2010-01-01T01:11:10Z</time>
      </trkpt>
      <trkpt lat="29.26038000" lon="82.90455000">
        <ele>3709.0000</ele>
        <time>2010-01-01T01:11:39Z</time>
      </trkpt>
      <trkpt lat="29.26048000" lon="82.90453000">
        <ele>3709.0000</ele>
        <time>2010-01-01T01:11:47Z</time>
      </trkpt>
      <trkpt lat="29.26060000" lon="82.90448000">
        <ele>3708.0000</ele>
        <time>2010-01-01T01:11:58Z</time>
      </trkpt>
      <trkpt lat="29.26083000" lon="82.90444000">
        <ele>3710.0000</ele>
        <time>2010-01-01T01:12:16Z</time>
      </trkpt>
      <trkpt lat="29.26106000" lon="82.90436000">
        <ele>3710.0000</ele>
        <time>2010-01-01T01:12:36Z</time>
      </trkpt>
      <trkpt lat="29.26122000" lon="82.90435000">
        <ele>3710.0000</ele>
        <time>2010-01-01T01:12:48Z</time>
      </trkpt>
      <trkpt lat="29.26160000" lon="82.90427000">
        <ele>3707.0000</ele>
        <time>2010-01-01T01:13:19Z</time>
      </trkpt>
      <trkpt lat="29.26173000" lon="82.90418000">
        <ele>3706.0000</ele>
        <time>2010-01-01T01:13:31Z</time>
      </trkpt>
      <trkpt lat="29.26202000" lon="82.90404000">
        <ele>3711.0000</ele>
        <time>2010-01-01T01:13:57Z</time>
      </trkpt>
      <trkpt lat="29.26274000" lon="82.90380000">
        <ele>3719.0000</ele>
        <time>2010-01-01T01:14:57Z</time>
      </trkpt>
      <trkpt lat="29.26289000" lon="82.90371000">
        <ele>3719.0000</ele>
        <time>2010-01-01T01:15:10Z</time>
      </trkpt>
      <trkpt lat="29.26304000" lon="82.90369000">
        <ele>3719.0000</ele>
        <time>2010-01-01T01:15:22Z</time>
      </trkpt>
      <trkpt lat="29.26322000" lon="82.90369000">
        <ele>3723.0000</ele>
        <time>2010-01-01T01:15:37Z</time>
      </trkpt>
      <trkpt lat="29.26353000" lon="82.90375000">
        <ele>3732.0000</ele>
        <time>2010-01-01T01:16:02Z</time>
      </trkpt>
      <trkpt lat="29.26372000" lon="82.90382000">
        <ele>3743.0000</ele>
        <time>2010-01-01T01:16:18Z</time>
      </trkpt>
      <trkpt lat="29.26386000" lon="82.90395000">
        <ele>3763.0000</ele>
        <time>2010-01-01T01:16:32Z</time>
      </trkpt>
      <trkpt lat="29.26403000" lon="82.90400000">
        <ele>3770.0000</ele>
        <time>2010-01-01T01:16:46Z</time>
      </trkpt>
      <trkpt lat="29.26425000" lon="82.90391000">
        <ele>3752.0000</ele>
        <time>2010-01-01T01:17:05Z</time>
      </trkpt>
      <trkpt lat="29.26442000" lon="82.90396000">
        <ele>3761.0000</ele>
        <time>2010-01-01T01:17:19Z</time>
      </trkpt>
      <trkpt lat="29.26450000" lon="82.90401000">
        <ele>3767.0000</ele>
        <time>2010-01-01T01:17:26Z</time>
      </trkpt>
      <trkpt lat="29.26466000" lon="82.90395000">
        <ele>3764.0000</ele>
        <time>2010-01-01T01:17:40Z</time>
      </trkpt>
      <trkpt lat="29.26471000" lon="82.90395000">
        <ele>3764.0000</ele>
        <time>2010-01-01T01:17:44Z</time>
      </trkpt>
      <trkpt lat="29.26490000" lon="82.90403000">
        <ele>3773.0000</ele>
        <time>2010-01-01T01:18:00Z</time>
      </trkpt>
      <trkpt lat="29.26501000" lon="82.90401000">
        <ele>3770.0000</ele>
        <time>2010-01-01T01:18:09Z</time>
      </trkpt>
      <trkpt lat="29.26513000" lon="82.90394000">
        <ele>3760.0000</ele>
        <time>2010-01-01T01:18:20Z</time>
      </trkpt>
      <trkpt lat="29.26518000" lon="82.90389000">
        <ele>3753.0000</ele>
        <time>2010-01-01T01:18:25Z</time>
      </trkpt>
      <trkpt lat="29.26528000" lon="82.90386000">
        <ele>3748.0000</ele>
        <time>2010-01-01T01:18:33Z</time>
      </trkpt>
      <trkpt lat="29.26548000" lon="82.90383000">
        <ele>3743.0000</ele>
        <time>2010-01-01T01:18:50Z</time>
      </trkpt>
      <trkpt lat="29.26573000" lon="82.90383000">
        <ele>3740.0000</ele>
        <time>2010-01-01T01:19:10Z</time>
      </trkpt>
      <trkpt lat="29.26586000" lon="82.90378000">
        <ele>3734.0000</ele>
        <time>2010-01-01T01:19:21Z</time>
      </trkpt>
      <trkpt lat="29.26604000" lon="82.90366000">
        <ele>3726.0000</ele>
        <time>2010-01-01T01:19:37Z</time>
      </trkpt>
      <trkpt lat="29.26660000" lon="82.90355000">
        <ele>3729.0000</ele>
        <time>2010-01-01T01:20:23Z</time>
      </trkpt>
      <trkpt lat="29.26675000" lon="82.90346000">
        <ele>3727.0000</ele>
        <time>2010-01-01T01:20:36Z</time>
      </trkpt>
      <trkpt lat="29.26678000" lon="82.90340000">
        <ele>3725.0000</ele>
        <time>2010-01-01T01:20:41Z</time>
      </trkpt>
      <trkpt lat="29.26690000" lon="82.90330000">
        <ele>3726.0000</ele>
        <time>2010-01-01T01:20:53Z</time>
      </trkpt>
      <trkpt lat="29.26705000" lon="82.90323000">
        <ele>3726.0000</ele>
        <time>2010-01-01T01:21:06Z</time>
      </trkpt>
      <trkpt lat="29.26724000" lon="82.90323000">
        <ele>3728.0000</ele>
        <time>2010-01-01T01:21:21Z</time>
      </trkpt>
      <trkpt lat="29.26741000" lon="82.90315000">
        <ele>3732.0000</ele>
        <time>2010-01-01T01:21:36Z</time>
      </trkpt>
      <trkpt lat="29.26754000" lon="82.90304000">
        <ele>3731.0000</ele>
        <time>2010-01-01T01:21:49Z</time>
      </trkpt>
      <trkpt lat="29.26772000" lon="82.90292000">
        <ele>3734.0000</ele>
        <time>2010-01-01T01:22:05Z</time>
      </trkpt>
      <trkpt lat="29.26826000" lon="82.90287000">
        <ele>3748.0000</ele>
        <time>2010-01-01T01:22:49Z</time>
      </trkpt>
      <trkpt lat="29.26853000" lon="82.90289000">
        <ele>3759.0000</ele>
        <time>2010-01-01T01:23:10Z</time>
      </trkpt>
      <trkpt lat="29.26883000" lon="82.90288000">
        <ele>3766.0000</ele>
        <time>2010-01-01T01:23:34Z</time>
      </trkpt>
      <trkpt lat="29.26938000" lon="82.90281000">
        <ele>3755.0000</ele>
        <time>2010-01-01T01:24:19Z</time>
      </trkpt>
      <trkpt lat="29.26957000" lon="82.90282000">
        <ele>3752.0000</ele>
        <time>2010-01-01T01:24:34Z</time>
      </trkpt>
      <trkpt lat="29.26980000" lon="82.90279000">
        <ele>3744.0000</ele>
        <time>2010-01-01T01:24:53Z</time>
      </trkpt>
      <trkpt lat="29.27066000" lon="82.90245000">
        <ele>3756.0000</ele>
        <time>2010-01-01T01:26:05Z</time>
      </trkpt>
      <trkpt lat="29.27074000" lon="82.90246000">
        <ele>3758.0000</ele>
        <time>2010-01-01T01:26:12Z</time>
      </trkpt>
      <trkpt lat="29.27080000" lon="82.90250000">
        <ele>3760.0000</ele>
        <time>2010-01-01T01:26:17Z</time>
      </trkpt>
      <trkpt lat="29.27095000" lon="82.90247000">
        <ele>3761.0000</ele>
        <time>2010-01-01T01:26:30Z</time>
      </trkpt>
      <trkpt lat="29.27108000" lon="82.90240000">
        <ele>3761.0000</ele>
        <time>2010-01-01T01:26:41Z</time>
      </trkpt>
      <trkpt lat="29.27147000" lon="82.90231000">
        <ele>3758.0000</ele>
        <time>2010-01-01T01:27:13Z</time>
      </trkpt>
      <trkpt lat="29.27165000" lon="82.90224000">
        <ele>3756.0000</ele>
        <time>2010-01-01T01:27:28Z</time>
      </trkpt>
      <trkpt lat="29.27246000" lon="82.90167000">
        <ele>3738.0000</ele>
        <time>2010-01-01T01:28:44Z</time>
      </trkpt>
      <trkpt lat="29.27291000" lon="82.90132000">
        <ele>3730.0000</ele>
        <time>2010-01-01T01:29:28Z</time>
      </trkpt>
      <trkpt lat="29.27313000" lon="82.90127000">
        <ele>3736.0000</ele>
        <time>2010-01-01T01:29:46Z</time>
      </trkpt>
      <trkpt lat="29.27326000" lon="82.90118000">
        <ele>3740.0000</ele>
        <time>2010-01-01T01:29:58Z</time>
      </trkpt>
      <trkpt lat="29.27369000" lon="82.90114000">
        <ele>3745.0000</ele>
        <time>2010-01-01T01:30:32Z</time>
      </trkpt>
      <trkpt lat="29.27386000" lon="82.90131000">
        <ele>3768.0000</ele>
        <time>2010-01-01T01:30:50Z</time>
      </trkpt>
      <trkpt lat="29.27406000" lon="82.90164000">
        <ele>3812.0000</ele>
        <time>2010-01-01T01:31:19Z</time>
      </trkpt>
      <trkpt lat="29.27426000" lon="82.90189000">
        <ele>3829.0000</ele>
        <time>2010-01-01T01:31:42Z</time>
      </trkpt>
      <trkpt lat="29.27429000" lon="82.90199000">
        <ele>3836.0000</ele>
        <time>2010-01-01T01:31:50Z</time>
      </trkpt>
      <trkpt lat="29.27452000" lon="82.90227000">
        <ele>3852.0000</ele>
        <time>2010-01-01T01:32:16Z</time>
      </trkpt>
      <trkpt lat="29.27477000" lon="82.90253000">
        <ele>3857.0000</ele>
        <time>2010-01-01T01:32:44Z</time>
      </trkpt>
      <trkpt lat="29.27479000" lon="82.90264000">
        <ele>3861.0000</ele>
        <time>2010-01-01T01:32:51Z</time>
      </trkpt>
      <trkpt lat="29.27491000" lon="82.90282000">
        <ele>3865.0000</ele>
        <time>2010-01-01T01:33:07Z</time>
      </trkpt>
      <trkpt lat="29.27516000" lon="82.90313000">
        <ele>3866.0000</ele>
        <time>2010-01-01T01:33:37Z</time>
      </trkpt>
      <trkpt lat="29.27529000" lon="82.90335000">
        <ele>3871.0000</ele>
        <time>2010-01-01T01:33:55Z</time>
      </trkpt>
      <trkpt lat="29.27552000" lon="82.90364000">
        <ele>3880.0000</ele>
        <time>2010-01-01T01:34:23Z</time>
      </trkpt>
      <trkpt lat="29.27552000" lon="82.90370000">
        <ele>3885.0000</ele>
        <time>2010-01-01T01:34:27Z</time>
      </trkpt>
      <trkpt lat="29.27563000" lon="82.90390000">
        <ele>3895.0000</ele>
        <time>2010-01-01T01:34:43Z</time>
      </trkpt>
      <trkpt lat="29.27575000" lon="82.90404000">
        <ele>3906.0000</ele>
        <time>2010-01-01T01:34:57Z</time>
      </trkpt>
      <trkpt lat="29.27599000" lon="82.90416000">
        <ele>3894.0000</ele>
        <time>2010-01-01T01:35:18Z</time>
      </trkpt>
      <trkpt lat="29.27626000" lon="82.90435000">
        <ele>3892.0000</ele>
        <time>2010-01-01T01:35:43Z</time>
      </trkpt>
      <trkpt lat="29.27628000" lon="82.90443000">
        <ele>3895.0000</ele>
        <time>2010-01-01T01:35:49Z</time>
      </trkpt>
      <trkpt lat="29.27636000" lon="82.90452000">
        <ele>3895.0000</ele>
        <time>2010-01-01T01:35:58Z</time>
      </trkpt>
      <trkpt lat="29.27650000" lon="82.90461000">
        <ele>3904.0000</ele>
        <time>2010-01-01T01:36:11Z</time>
      </trkpt>
      <trkpt lat="29.27667000" lon="82.90477000">
        <ele>3919.0000</ele>
        <time>2010-01-01T01:36:29Z</time>
      </trkpt>
      <trkpt lat="29.27682000" lon="82.90495000">
        <ele>3932.0000</ele>
        <time>2010-01-01T01:36:46Z</time>
      </trkpt>
      <trkpt lat="29.27685000" lon="82.90507000">
        <ele>3936.0000</ele>
        <time>2010-01-01T01:36:55Z</time>
      </trkpt>
      <trkpt lat="29.27689000" lon="82.90508000">
        <ele>3935.0000</ele>
        <time>2010-01-01T01:36:58Z</time>
      </trkpt>
      <trkpt lat="29.27700000" lon="82.90500000">
        <ele>3932.0000</ele>
        <time>2010-01-01T01:37:08Z</time>
      </trkpt>
      <trkpt lat="29.27702000" lon="82.90500000">
        <ele>3932.0000</ele>
        <time>2010-01-01T01:37:10Z</time>
      </trkpt>
      <trkpt lat="29.27712000" lon="82.90521000">
        <ele>3936.0000</ele>
        <time>2010-01-01T01:37:27Z</time>
      </trkpt>
      <trkpt lat="29.27726000" lon="82.90541000">
        <ele>3940.0000</ele>
        <time>2010-01-01T01:37:45Z</time>
      </trkpt>
      <trkpt lat="29.27732000" lon="82.90546000">
        <ele>3942.0000</ele>
        <time>2010-01-01T01:37:51Z</time>
      </trkpt>
      <trkpt lat="29.27742000" lon="82.90549000">
        <ele>3942.0000</ele>
        <time>2010-01-01T01:37:59Z</time>
      </trkpt>
      <trkpt lat="29.27750000" lon="82.90562000">
        <ele>3942.0000</ele>
        <time>2010-01-01T01:38:10Z</time>
      </trkpt>
      <trkpt lat="29.27754000" lon="82.90577000">
        <ele>3947.0000</ele>
        <time>2010-01-01T01:38:21Z</time>
      </trkpt>
      <trkpt lat="29.27752000" lon="82.90623000">
        <ele>3956.0000</ele>
        <time>2010-01-01T01:38:53Z</time>
      </trkpt>
      <trkpt lat="29.27756000" lon="82.90630000">
        <ele>3957.0000</ele>
        <time>2010-01-01T01:38:59Z</time>
      </trkpt>
      <trkpt lat="29.27759000" lon="82.90623000">
        <ele>3956.0000</ele>
        <time>2010-01-01T01:39:04Z</time>
      </trkpt>
      <trkpt lat="29.27771000" lon="82.90650000">
        <ele>3960.0000</ele>
        <time>2010-01-01T01:39:25Z</time>
      </trkpt>
      <trkpt lat="29.27773000" lon="82.90680000">
        <ele>3960.0000</ele>
        <time>2010-01-01T01:39:46Z</time>
      </trkpt>
      <trkpt lat="29.27772000" lon="82.90708000">
        <ele>3961.0000</ele>
        <time>2010-01-01T01:40:06Z</time>
      </trkpt>
      <trkpt lat="29.27782000" lon="82.90754000">
        <ele>3973.0000</ele>
        <time>2010-01-01T01:40:39Z</time>
      </trkpt>
      <trkpt lat="29.27795000" lon="82.90782000">
        <ele>3988.0000</ele>
        <time>2010-01-01T01:41:01Z</time>
      </trkpt>
      <trkpt lat="29.27812000" lon="82.90785000">
        <ele>3990.0000</ele>
        <time>2010-01-01T01:41:15Z</time>
      </trkpt>
      <trkpt lat="29.27817000" lon="82.90789000">
        <ele>3992.0000</ele>
        <time>2010-01-01T01:41:20Z</time>
      </trkpt>
      <trkpt lat="29.27819000" lon="82.90819000">
        <ele>4001.0000</ele>
        <time>2010-01-01T01:41:41Z</time>
      </trkpt>
      <trkpt lat="29.27828000" lon="82.90847000">
        <ele>4006.0000</ele>
        <time>2010-01-01T01:42:02Z</time>
      </trkpt>
      <trkpt lat="29.27849000" lon="82.90873000">
        <ele>4014.0000</ele>
        <time>2010-01-01T01:42:27Z</time>
      </trkpt>
      <trkpt lat="29.27868000" lon="82.90915000">
        <ele>4023.0000</ele>
        <time>2010-01-01T01:43:00Z</time>
      </trkpt>
      <trkpt lat="29.27868000" lon="82.90914000">
        <ele>4022.0000</ele>
        <time>2010-01-01T01:43:00Z</time>
      </trkpt>
      <trkpt lat="29.27876000" lon="82.90932000">
        <ele>4029.0000</ele>
        <time>2010-01-01T01:43:14Z</time>
      </trkpt>
      <trkpt lat="29.27881000" lon="82.90963000">
        <ele>4038.0000</ele>
        <time>2010-01-01T01:43:36Z</time>
      </trkpt>
      <trkpt lat="29.27874000" lon="82.90974000">
        <ele>4040.0000</ele>
        <time>2010-01-01T01:43:46Z</time>
      </trkpt>
      <trkpt lat="29.27884000" lon="82.91002000">
        <ele>4051.0000</ele>
        <time>2010-01-01T01:44:07Z</time>
      </trkpt>
      <trkpt lat="29.27884000" lon="82.91019000">
        <ele>4060.0000</ele>
        <time>2010-01-01T01:44:19Z</time>
      </trkpt>
      <trkpt lat="29.27889000" lon="82.91037000">
        <ele>4070.0000</ele>
        <time>2010-01-01T01:44:32Z</time>
      </trkpt>
      <trkpt lat="29.27894000" lon="82.91040000">
        <ele>4072.0000</ele>
        <time>2010-01-01T01:44:37Z</time>
      </trkpt>
      <trkpt lat="29.27894000" lon="82.91047000">
        <ele>4075.0000</ele>
        <time>2010-01-01T01:44:42Z</time>
      </trkpt>
      <trkpt lat="29.27898000" lon="82.91049000">
        <ele>4077.0000</ele>
        <time>2010-01-01T01:44:45Z</time>
      </trkpt>
      <trkpt lat="29.27898000" lon="82.91054000">
        <ele>4079.0000</ele>
        <time>2010-01-01T01:44:49Z</time>
      </trkpt>
      <trkpt lat="29.27904000" lon="82.91055000">
        <ele>4080.0000</ele>
        <time>2010-01-01T01:44:53Z</time>
      </trkpt>
      <trkpt lat="29.27906000" lon="82.91059000">
        <ele>4083.0000</ele>
        <time>2010-01-01T01:44:57Z</time>
      </trkpt>
      <trkpt lat="29.27910000" lon="82.91059000">
        <ele>4083.0000</ele>
        <time>2010-01-01T01:45:00Z</time>
      </trkpt>
      <trkpt lat="29.27912000" lon="82.91068000">
        <ele>4087.0000</ele>
        <time>2010-01-01T01:45:06Z</time>
      </trkpt>
      <trkpt lat="29.27926000" lon="82.91071000">
        <ele>4090.0000</ele>
        <time>2010-01-01T01:45:18Z</time>
      </trkpt>
      <trkpt lat="29.27937000" lon="82.91076000">
        <ele>4093.0000</ele>
        <time>2010-01-01T01:45:27Z</time>
      </trkpt>
      <trkpt lat="29.27970000" lon="82.91130000">
        <ele>4106.0000</ele>
        <time>2010-01-01T01:46:13Z</time>
      </trkpt>
      <trkpt lat="29.27974000" lon="82.91138000">
        <ele>4107.0000</ele>
        <time>2010-01-01T01:46:20Z</time>
      </trkpt>
      <trkpt lat="29.27963000" lon="82.91138000">
        <ele>4106.0000</ele>
        <time>2010-01-01T01:46:28Z</time>
      </trkpt>
      <trkpt lat="29.27973000" lon="82.91161000">
        <ele>4116.0000</ele>
        <time>2010-01-01T01:46:46Z</time>
      </trkpt>
      <trkpt lat="29.27979000" lon="82.91165000">
        <ele>4120.0000</ele>
        <time>2010-01-01T01:46:52Z</time>
      </trkpt>
      <trkpt lat="29.27987000" lon="82.91163000">
        <ele>4124.0000</ele>
        <time>2010-01-01T01:46:59Z</time>
      </trkpt>
      <trkpt lat="29.27988000" lon="82.91171000">
        <ele>4126.0000</ele>
        <time>2010-01-01T01:47:04Z</time>
      </trkpt>
      <trkpt lat="29.27993000" lon="82.91187000">
        <ele>4130.0000</ele>
        <time>2010-01-01T01:47:16Z</time>
      </trkpt>
      <trkpt lat="29.27994000" lon="82.91202000">
        <ele>4134.0000</ele>
        <time>2010-01-01T01:47:27Z</time>
      </trkpt>
      <trkpt lat="29.28002000" lon="82.91203000">
        <ele>4135.0000</ele>
        <time>2010-01-01T01:47:33Z</time>
      </trkpt>
      <trkpt lat="29.27999000" lon="82.91208000">
        <ele>4137.0000</ele>
        <time>2010-01-01T01:47:37Z</time>
      </trkpt>
      <trkpt lat="29.28000000" lon="82.91215000">
        <ele>4139.0000</ele>
        <time>2010-01-01T01:47:42Z</time>
      </trkpt>
      <trkpt lat="29.28006000" lon="82.91213000">
        <ele>4140.0000</ele>
        <time>2010-01-01T01:47:47Z</time>
      </trkpt>
      <trkpt lat="29.28008000" lon="82.91230000">
        <ele>4144.0000</ele>
        <time>2010-01-01T01:47:59Z</time>
      </trkpt>
      <trkpt lat="29.28023000" lon="82.91262000">
        <ele>4140.0000</ele>
        <time>2010-01-01T01:48:25Z</time>
      </trkpt>
      <trkpt lat="29.28027000" lon="82.91276000">
        <ele>4137.0000</ele>
        <time>2010-01-01T01:48:35Z</time>
      </trkpt>
      <trkpt lat="29.28024000" lon="82.91301000">
        <ele>4141.0000</ele>
        <time>2010-01-01T01:48:52Z</time>
      </trkpt>
      <trkpt lat="29.28017000" lon="82.91329000">
        <ele>4145.0000</ele>
        <time>2010-01-01T01:49:13Z</time>
      </trkpt>
      <trkpt lat="29.28006000" lon="82.91358000">
        <ele>4155.0000</ele>
        <time>2010-01-01T01:49:35Z</time>
      </trkpt>
      <trkpt lat="29.27996000" lon="82.91363000">
        <ele>4161.0000</ele>
        <time>2010-01-01T01:49:44Z</time>
      </trkpt>
      <trkpt lat="29.27993000" lon="82.91371000">
        <ele>4163.0000</ele>
        <time>2010-01-01T01:49:50Z</time>
      </trkpt>
      <trkpt lat="29.27992000" lon="82.91389000">
        <ele>4167.0000</ele>
        <time>2010-01-01T01:50:02Z</time>
      </trkpt>
      <trkpt lat="29.27994000" lon="82.91416000">
        <ele>4175.0000</ele>
        <time>2010-01-01T01:50:21Z</time>
      </trkpt>
      <trkpt lat="29.27990000" lon="82.91424000">
        <ele>4175.0000</ele>
        <time>2010-01-01T01:50:28Z</time>
      </trkpt>
      <trkpt lat="29.27989000" lon="82.91442000">
        <ele>4172.0000</ele>
        <time>2010-01-01T01:50:40Z</time>
      </trkpt>
      <trkpt lat="29.27994000" lon="82.91473000">
        <ele>4159.0000</ele>
        <time>2010-01-01T01:51:02Z</time>
      </trkpt>
      <trkpt lat="29.27992000" lon="82.91515000">
        <ele>4166.0000</ele>
        <time>2010-01-01T01:51:32Z</time>
      </trkpt>
      <trkpt lat="29.27986000" lon="82.91528000">
        <ele>4171.0000</ele>
        <time>2010-01-01T01:51:42Z</time>
      </trkpt>
      <trkpt lat="29.27993000" lon="82.91544000">
        <ele>4175.0000</ele>
        <time>2010-01-01T01:51:54Z</time>
      </trkpt>
      <trkpt lat="29.27977000" lon="82.91595000">
        <ele>4196.0000</ele>
        <time>2010-01-01T01:52:32Z</time>
      </trkpt>
      <trkpt lat="29.27960000" lon="82.91620000">
        <ele>4203.0000</ele>
        <time>2010-01-01T01:52:54Z</time>
      </trkpt>
      <trkpt lat="29.27947000" lon="82.91648000">
        <ele>4207.0000</ele>
        <time>2010-01-01T01:53:17Z</time>
      </trkpt>
      <trkpt lat="29.27941000" lon="82.91687000">
        <ele>4213.0000</ele>
        <time>2010-01-01T01:53:44Z</time>
      </trkpt>
      <trkpt lat="29.27921000" lon="82.91718000">
        <ele>4213.0000</ele>
        <time>2010-01-01T01:54:11Z</time>
      </trkpt>
      <trkpt lat="29.27911000" lon="82.91738000">
        <ele>4219.0000</ele>
        <time>2010-01-01T01:54:27Z</time>
      </trkpt>
      <trkpt lat="29.27898000" lon="82.91760000">
        <ele>4228.0000</ele>
        <time>2010-01-01T01:54:46Z</time>
      </trkpt>
      <trkpt lat="29.27900000" lon="82.91770000">
        <ele>4234.0000</ele>
        <time>2010-01-01T01:54:53Z</time>
      </trkpt>
      <trkpt lat="29.27873000" lon="82.91798000">
        <ele>4240.0000</ele>
        <time>2010-01-01T01:55:22Z</time>
      </trkpt>
      <trkpt lat="29.27863000" lon="82.91804000">
        <ele>4241.0000</ele>
        <time>2010-01-01T01:55:31Z</time>
      </trkpt>
      <trkpt lat="29.27863000" lon="82.91818000">
        <ele>4244.0000</ele>
        <time>2010-01-01T01:55:41Z</time>
      </trkpt>
      <trkpt lat="29.27854000" lon="82.91829000">
        <ele>4245.0000</ele>
        <time>2010-01-01T01:55:51Z</time>
      </trkpt>
      <trkpt lat="29.27847000" lon="82.91842000">
        <ele>4247.0000</ele>
        <time>2010-01-01T01:56:02Z</time>
      </trkpt>
      <trkpt lat="29.27852000" lon="82.91856000">
        <ele>4250.0000</ele>
        <time>2010-01-01T01:56:13Z</time>
      </trkpt>
      <trkpt lat="29.27846000" lon="82.91865000">
        <ele>4252.0000</ele>
        <time>2010-01-01T01:56:21Z</time>
      </trkpt>
      <trkpt lat="29.27840000" lon="82.91898000">
        <ele>4263.0000</ele>
        <time>2010-01-01T01:56:44Z</time>
      </trkpt>
      <trkpt lat="29.27843000" lon="82.91915000">
        <ele>4268.0000</ele>
        <time>2010-01-01T01:56:56Z</time>
      </trkpt>
      <trkpt lat="29.27840000" lon="82.91927000">
        <ele>4269.0000</ele>
        <time>2010-01-01T01:57:05Z</time>
      </trkpt>
      <trkpt lat="29.27844000" lon="82.91944000">
        <ele>4271.0000</ele>
        <time>2010-01-01T01:57:17Z</time>
      </trkpt>
      <trkpt lat="29.27835000" lon="82.91962000">
        <ele>4272.0000</ele>
        <time>2010-01-01T01:57:32Z</time>
      </trkpt>
      <trkpt lat="29.27840000" lon="82.91970000">
        <ele>4274.0000</ele>
        <time>2010-01-01T01:57:39Z</time>
      </trkpt>
      <trkpt lat="29.27839000" lon="82.91983000">
        <ele>4276.0000</ele>
        <time>2010-01-01T01:57:48Z</time>
      </trkpt>
      <trkpt lat="29.27835000" lon="82.91994000">
        <ele>4277.0000</ele>
        <time>2010-01-01T01:57:56Z</time>
      </trkpt>
      <trkpt lat="29.27838000" lon="82.92032000">
        <ele>4285.0000</ele>
        <time>2010-01-01T01:58:23Z</time>
      </trkpt>
      <trkpt lat="29.27836000" lon="82.92078000">
        <ele>4294.0000</ele>
        <time>2010-01-01T01:58:55Z</time>
      </trkpt>
      <trkpt lat="29.27841000" lon="82.92112000">
        <ele>4303.0000</ele>
        <time>2010-01-01T01:59:19Z</time>
      </trkpt>
      <trkpt lat="29.27841000" lon="82.92157000">
        <ele>4314.0000</ele>
        <time>2010-01-01T01:59:50Z</time>
      </trkpt>
      <trkpt lat="29.27853000" lon="82.92195000">
        <ele>4332.0000</ele>
        <time>2010-01-01T02:00:19Z</time>
      </trkpt>
      <trkpt lat="29.27842000" lon="82.92204000">
        <ele>4329.0000</ele>
        <time>2010-01-01T02:00:29Z</time>
      </trkpt>
      <trkpt lat="29.27859000" lon="82.92225000">
        <ele>4338.0000</ele>
        <time>2010-01-01T02:00:49Z</time>
      </trkpt>
      <trkpt lat="29.27871000" lon="82.92258000">
        <ele>4343.0000</ele>
        <time>2010-01-01T02:01:14Z</time>
      </trkpt>
      <trkpt lat="29.27865000" lon="82.92290000">
        <ele>4343.0000</ele>
        <time>2010-01-01T02:01:37Z</time>
      </trkpt>
      <trkpt lat="29.27929000" lon="82.92382000">
        <ele>4377.0000</ele>
        <time>2010-01-01T02:02:59Z</time>
      </trkpt>
      <trkpt lat="29.27954000" lon="82.92416000">
        <ele>4388.0000</ele>
        <time>2010-01-01T02:03:30Z</time>
      </trkpt>
      <trkpt lat="29.27966000" lon="82.92451000">
        <ele>4396.0000</ele>
        <time>2010-01-01T02:03:57Z</time>
      </trkpt>
      <trkpt lat="29.27970000" lon="82.92488000">
        <ele>4404.0000</ele>
        <time>2010-01-01T02:04:23Z</time>
      </trkpt>
      <trkpt lat="29.27968000" lon="82.92527000">
        <ele>4409.0000</ele>
        <time>2010-01-01T02:04:50Z</time>
      </trkpt>
      <trkpt lat="29.27963000" lon="82.92553000">
        <ele>4409.0000</ele>
        <time>2010-01-01T02:05:09Z</time>
      </trkpt>
      <trkpt lat="29.27967000" lon="82.92595000">
        <ele>4405.0000</ele>
        <time>2010-01-01T02:05:38Z</time>
      </trkpt>
      <trkpt lat="29.27972000" lon="82.92629000">
        <ele>4410.0000</ele>
        <time>2010-01-01T02:06:02Z</time>
      </trkpt>
      <trkpt lat="29.27988000" lon="82.92657000">
        <ele>4416.0000</ele>
        <time>2010-01-01T02:06:26Z</time>
      </trkpt>
      <trkpt lat="29.28005000" lon="82.92710000">
        <ele>4425.0000</ele>
        <time>2010-01-01T02:07:05Z</time>
      </trkpt>
      <trkpt lat="29.28016000" lon="82.92729000">
        <ele>4431.0000</ele>
        <time>2010-01-01T02:07:21Z</time>
      </trkpt>
      <trkpt lat="29.28027000" lon="82.92738000">
        <ele>4434.0000</ele>
        <time>2010-01-01T02:07:32Z</time>
      </trkpt>
      <trkpt lat="29.28036000" lon="82.92749000">
        <ele>4434.0000</ele>
        <time>2010-01-01T02:07:42Z</time>
      </trkpt>
      <trkpt lat="29.28039000" lon="82.92759000">
        <ele>4436.0000</ele>
        <time>2010-01-01T02:07:50Z</time>
      </trkpt>
      <trkpt lat="29.28046000" lon="82.92777000">
        <ele>4438.0000</ele>
        <time>2010-01-01T02:08:03Z</time>
      </trkpt>
      <trkpt lat="29.28063000" lon="82.92817000">
        <ele>4455.0000</ele>
        <time>2010-01-01T02:08:34Z</time>
      </trkpt>
      <trkpt lat="29.28074000" lon="82.92835000">
        <ele>4461.0000</ele>
        <time>2010-01-01T02:08:50Z</time>
      </trkpt>
      <trkpt lat="29.28074000" lon="82.92842000">
        <ele>4460.0000</ele>
        <time>2010-01-01T02:08:55Z</time>
      </trkpt>
      <trkpt lat="29.28078000" lon="82.92844000">
        <ele>4462.0000</ele>
        <time>2010-01-01T02:08:58Z</time>
      </trkpt>
      <trkpt lat="29.28079000" lon="82.92850000">
        <ele>4461.0000</ele>
        <time>2010-01-01T02:09:02Z</time>
      </trkpt>
      <trkpt lat="29.28091000" lon="82.92867000">
        <ele>4463.0000</ele>
        <time>2010-01-01T02:09:18Z</time>
      </trkpt>
      <trkpt lat="29.28109000" lon="82.92887000">
        <ele>4465.0000</ele>
        <time>2010-01-01T02:09:38Z</time>
      </trkpt>
      <trkpt lat="29.28111000" lon="82.92894000">
        <ele>4466.0000</ele>
        <time>2010-01-01T02:09:43Z</time>
      </trkpt>
      <trkpt lat="29.28118000" lon="82.92899000">
        <ele>4469.0000</ele>
        <time>2010-01-01T02:09:50Z</time>
      </trkpt>
      <trkpt lat="29.28137000" lon="82.92924000">
        <ele>4474.0000</ele>
        <time>2010-01-01T02:10:13Z</time>
      </trkpt>
      <trkpt lat="29.28158000" lon="82.92936000">
        <ele>4482.0000</ele>
        <time>2010-01-01T02:10:31Z</time>
      </trkpt>
      <trkpt lat="29.28168000" lon="82.92937000">
        <ele>4485.0000</ele>
        <time>2010-01-01T02:10:40Z</time>
      </trkpt>
      <trkpt lat="29.28181000" lon="82.92950000">
        <ele>4490.0000</ele>
        <time>2010-01-01T02:10:53Z</time>
      </trkpt>
      <trkpt lat="29.28189000" lon="82.92947000">
        <ele>4492.0000</ele>
        <time>2010-01-01T02:11:00Z</time>
      </trkpt>
      <trkpt lat="29.28193000" lon="82.92951000">
        <ele>4494.0000</ele>
        <time>2010-01-01T02:11:04Z</time>
      </trkpt>
      <trkpt lat="29.28201000" lon="82.92954000">
        <ele>4498.0000</ele>
        <time>2010-01-01T02:11:11Z</time>
      </trkpt>
      <trkpt lat="29.28202000" lon="82.92960000">
        <ele>4499.0000</ele>
        <time>2010-01-01T02:11:15Z</time>
      </trkpt>
      <trkpt lat="29.28215000" lon="82.92965000">
        <ele>4505.0000</ele>
        <time>2010-01-01T02:11:26Z</time>
      </trkpt>
      <trkpt lat="29.28218000" lon="82.92976000">
        <ele>4505.0000</ele>
        <time>2010-01-01T02:11:34Z</time>
      </trkpt>
      <trkpt lat="29.28225000" lon="82.92986000">
        <ele>4509.0000</ele>
        <time>2010-01-01T02:11:43Z</time>
      </trkpt>
      <trkpt lat="29.28244000" lon="82.93001000">
        <ele>4513.0000</ele>
        <time>2010-01-01T02:12:02Z</time>
      </trkpt>
      <trkpt lat="29.28257000" lon="82.93014000">
        <ele>4517.0000</ele>
        <time>2010-01-01T02:12:16Z</time>
      </trkpt>
      <trkpt lat="29.28260000" lon="82.93022000">
        <ele>4518.0000</ele>
        <time>2010-01-01T02:12:22Z</time>
      </trkpt>
      <trkpt lat="29.28270000" lon="82.93034000">
        <ele>4521.0000</ele>
        <time>2010-01-01T02:12:33Z</time>
      </trkpt>
      <trkpt lat="29.28277000" lon="82.93035000">
        <ele>4522.0000</ele>
        <time>2010-01-01T02:12:39Z</time>
      </trkpt>
      <trkpt lat="29.28291000" lon="82.93059000">
        <ele>4531.0000</ele>
        <time>2010-01-01T02:12:59Z</time>
      </trkpt>
      <trkpt lat="29.28298000" lon="82.93065000">
        <ele>4533.0000</ele>
        <time>2010-01-01T02:13:06Z</time>
      </trkpt>
      <trkpt lat="29.28298000" lon="82.93073000">
        <ele>4532.0000</ele>
        <time>2010-01-01T02:13:12Z</time>
      </trkpt>
      <trkpt lat="29.28304000" lon="82.93080000">
        <ele>4533.0000</ele>
        <time>2010-01-01T02:13:19Z</time>
      </trkpt>
      <trkpt lat="29.28304000" lon="82.93084000">
        <ele>4533.0000</ele>
        <time>2010-01-01T02:13:21Z</time>
      </trkpt>
      <trkpt lat="29.28310000" lon="82.93085000">
        <ele>4535.0000</ele>
        <time>2010-01-01T02:13:26Z</time>
      </trkpt>
      <trkpt lat="29.28316000" lon="82.93092000">
        <ele>4538.0000</ele>
        <time>2010-01-01T02:13:33Z</time>
      </trkpt>
      <trkpt lat="29.28323000" lon="82.93104000">
        <ele>4540.0000</ele>
        <time>2010-01-01T02:13:43Z</time>
      </trkpt>
      <trkpt lat="29.28325000" lon="82.93112000">
        <ele>4541.0000</ele>
        <time>2010-01-01T02:13:49Z</time>
      </trkpt>
      <trkpt lat="29.28336000" lon="82.93121000">
        <ele>4545.0000</ele>
        <time>2010-01-01T02:14:00Z</time>
      </trkpt>
      <trkpt lat="29.28341000" lon="82.93131000">
        <ele>4548.0000</ele>
        <time>2010-01-01T02:14:08Z</time>
      </trkpt>
      <trkpt lat="29.28344000" lon="82.93135000">
        <ele>4549.0000</ele>
        <time>2010-01-01T02:14:11Z</time>
      </trkpt>
      <trkpt lat="29.28352000" lon="82.93138000">
        <ele>4550.0000</ele>
        <time>2010-01-01T02:14:18Z</time>
      </trkpt>
      <trkpt lat="29.28364000" lon="82.93141000">
        <ele>4553.0000</ele>
        <time>2010-01-01T02:14:28Z</time>
      </trkpt>
      <trkpt lat="29.28367000" lon="82.93147000">
        <ele>4554.0000</ele>
        <time>2010-01-01T02:14:33Z</time>
      </trkpt>
      <trkpt lat="29.28342432" lon="82.93064117">
        <ele>4555.0000</ele>
        <time>2010-01-01T00:00:00Z</time>
      </trkpt>
      <trkpt lat="29.28316000" lon="82.93092000">
        <ele>4538.0000</ele>
        <time>2010-01-01T00:00:14Z</time>
      </trkpt>
      <trkpt lat="29.28323000" lon="82.93104000">
        <ele>4540.0000</ele>
        <time>2010-01-01T00:00:19Z</time>
      </trkpt>
      <trkpt lat="29.28325000" lon="82.93112000">
        <ele>4541.0000</ele>
        <time>2010-01-01T00:00:22Z</time>
      </trkpt>
      <trkpt lat="29.28336000" lon="82.93121000">
        <ele>4545.0000</ele>
        <time>2010-01-01T00:00:27Z</time>
      </trkpt>
      <trkpt lat="29.28341000" lon="82.93131000">
        <ele>4548.0000</ele>
        <time>2010-01-01T00:00:31Z</time>
      </trkpt>
      <trkpt lat="29.28344000" lon="82.93135000">
        <ele>4549.0000</ele>
        <time>2010-01-01T00:00:33Z</time>
      </trkpt>
      <trkpt lat="29.28352000" lon="82.93138000">
        <ele>4550.0000</ele>
        <time>2010-01-01T00:00:36Z</time>
      </trkpt>
      <trkpt lat="29.28364000" lon="82.93141000">
        <ele>4553.0000</ele>
        <time>2010-01-01T00:00:41Z</time>
      </trkpt>
      <trkpt lat="29.28378000" lon="82.93167000">
        <ele>4557.0000</ele>
        <time>2010-01-01T00:00:52Z</time>
      </trkpt>
      <trkpt lat="29.28391000" lon="82.93177000">
        <ele>4561.0000</ele>
        <time>2010-01-01T00:00:58Z</time>
      </trkpt>
      <trkpt lat="29.28390000" lon="82.93188000">
        <ele>4562.0000</ele>
        <time>2010-01-01T00:01:02Z</time>
      </trkpt>
      <trkpt lat="29.28404000" lon="82.93200000">
        <ele>4567.0000</ele>
        <time>2010-01-01T00:01:09Z</time>
      </trkpt>
      <trkpt lat="29.28415000" lon="82.93220000">
        <ele>4569.0000</ele>
        <time>2010-01-01T00:01:17Z</time>
      </trkpt>
      <trkpt lat="29.28432000" lon="82.93258000">
        <ele>4583.0000</ele>
        <time>2010-01-01T00:01:32Z</time>
      </trkpt>
      <trkpt lat="29.28441000" lon="82.93272000">
        <ele>4586.0000</ele>
        <time>2010-01-01T00:01:38Z</time>
      </trkpt>
      <trkpt lat="29.28450000" lon="82.93279000">
        <ele>4591.0000</ele>
        <time>2010-01-01T00:01:43Z</time>
      </trkpt>
      <trkpt lat="29.28453000" lon="82.93286000">
        <ele>4595.0000</ele>
        <time>2010-01-01T00:01:45Z</time>
      </trkpt>
      <trkpt lat="29.28465000" lon="82.93296000">
        <ele>4604.0000</ele>
        <time>2010-01-01T00:01:51Z</time>
      </trkpt>
      <trkpt lat="29.28474000" lon="82.93308000">
        <ele>4611.0000</ele>
        <time>2010-01-01T00:01:57Z</time>
      </trkpt>
      <trkpt lat="29.28479000" lon="82.93321000">
        <ele>4613.0000</ele>
        <time>2010-01-01T00:02:02Z</time>
      </trkpt>
      <trkpt lat="29.28500000" lon="82.93341000">
        <ele>4613.0000</ele>
        <time>2010-01-01T00:02:13Z</time>
      </trkpt>
      <trkpt lat="29.28509000" lon="82.93358000">
        <ele>4615.0000</ele>
        <time>2010-01-01T00:02:20Z</time>
      </trkpt>
      <trkpt lat="29.28508000" lon="82.93359000">
        <ele>4614.0000</ele>
        <time>2010-01-01T00:02:20Z</time>
      </trkpt>
      <trkpt lat="29.28533000" lon="82.93398000">
        <ele>4622.0000</ele>
        <time>2010-01-01T00:02:37Z</time>
      </trkpt>
      <trkpt lat="29.28538000" lon="82.93410000">
        <ele>4623.0000</ele>
        <time>2010-01-01T00:02:42Z</time>
      </trkpt>
      <trkpt lat="29.28549000" lon="82.93421000">
        <ele>4624.0000</ele>
        <time>2010-01-01T00:02:48Z</time>
      </trkpt>
      <trkpt lat="29.28554000" lon="82.93433000">
        <ele>4622.0000</ele>
        <time>2010-01-01T00:02:52Z</time>
      </trkpt>
      <trkpt lat="29.28552000" lon="82.93441000">
        <ele>4620.0000</ele>
        <time>2010-01-01T00:02:55Z</time>
      </trkpt>
      <trkpt lat="29.28566000" lon="82.93456000">
        <ele>4622.0000</ele>
        <time>2010-01-01T00:03:03Z</time>
      </trkpt>
      <trkpt lat="29.28571000" lon="82.93480000">
        <ele>4623.0000</ele>
        <time>2010-01-01T00:03:12Z</time>
      </trkpt>
      <trkpt lat="29.28573000" lon="82.93508000">
        <ele>4629.0000</ele>
        <time>2010-01-01T00:03:21Z</time>
      </trkpt>
      <trkpt lat="29.28572000" lon="82.93536000">
        <ele>4636.0000</ele>
        <time>2010-01-01T00:03:31Z</time>
      </trkpt>
      <trkpt lat="29.28570000" lon="82.93539000">
        <ele>4636.0000</ele>
        <time>2010-01-01T00:03:32Z</time>
      </trkpt>
      <trkpt lat="29.28568000" lon="82.93549000">
        <ele>4638.0000</ele>
        <time>2010-01-01T00:03:36Z</time>
      </trkpt>
      <trkpt lat="29.28570000" lon="82.93556000">
        <ele>4638.0000</ele>
        <time>2010-01-01T00:03:39Z</time>
      </trkpt>
      <trkpt lat="29.28576000" lon="82.93564000">
        <ele>4638.0000</ele>
        <time>2010-01-01T00:03:42Z</time>
      </trkpt>
      <trkpt lat="29.28580000" lon="82.93574000">
        <ele>4639.0000</ele>
        <time>2010-01-01T00:03:46Z</time>
      </trkpt>
      <trkpt lat="29.28581000" lon="82.93582000">
        <ele>4640.0000</ele>
        <time>2010-01-01T00:03:49Z</time>
      </trkpt>
      <trkpt lat="29.28572000" lon="82.93627000">
        <ele>4651.0000</ele>
        <time>2010-01-01T00:04:05Z</time>
      </trkpt>
      <trkpt lat="29.28572000" lon="82.93640000">
        <ele>4653.0000</ele>
        <time>2010-01-01T00:04:10Z</time>
      </trkpt>
      <trkpt lat="29.28569000" lon="82.93654000">
        <ele>4656.0000</ele>
        <time>2010-01-01T00:04:15Z</time>
      </trkpt>
      <trkpt lat="29.28570000" lon="82.93685000">
        <ele>4659.0000</ele>
        <time>2010-01-01T00:04:25Z</time>
      </trkpt>
      <trkpt lat="29.28574000" lon="82.93693000">
        <ele>4660.0000</ele>
        <time>2010-01-01T00:04:29Z</time>
      </trkpt>
      <trkpt lat="29.28577000" lon="82.93711000">
        <ele>4661.0000</ele>
        <time>2010-01-01T00:04:35Z</time>
      </trkpt>
      <trkpt lat="29.28571000" lon="82.93722000">
        <ele>4662.0000</ele>
        <time>2010-01-01T00:04:40Z</time>
      </trkpt>
      <trkpt lat="29.28596000" lon="82.93759000">
        <ele>4668.0000</ele>
        <time>2010-01-01T00:04:56Z</time>
      </trkpt>
      <trkpt lat="29.28646000" lon="82.93860000">
        <ele>4680.0000</ele>
        <time>2010-01-01T00:05:37Z</time>
      </trkpt>
      <trkpt lat="29.28714000" lon="82.93972000">
        <ele>4711.0000</ele>
        <time>2010-01-01T00:06:24Z</time>
      </trkpt>
      <trkpt lat="29.28721000" lon="82.93984000">
        <ele>4715.0000</ele>
        <time>2010-01-01T00:06:29Z</time>
      </trkpt>
      <trkpt lat="29.28714000" lon="82.94001000">
        <ele>4716.0000</ele>
        <time>2010-01-01T00:06:36Z</time>
      </trkpt>
      <trkpt lat="29.28720000" lon="82.94003000">
        <ele>4718.0000</ele>
        <time>2010-01-01T00:06:38Z</time>
      </trkpt>
      <trkpt lat="29.28714000" lon="82.94032000">
        <ele>4723.0000</ele>
        <time>2010-01-01T00:06:49Z</time>
      </trkpt>
      <trkpt lat="29.28719000" lon="82.94035000">
        <ele>4725.0000</ele>
        <time>2010-01-01T00:06:51Z</time>
      </trkpt>
      <trkpt lat="29.28729000" lon="82.94031000">
        <ele>4730.0000</ele>
        <time>2010-01-01T00:06:55Z</time>
      </trkpt>
      <trkpt lat="29.28730000" lon="82.94056000">
        <ele>4735.0000</ele>
        <time>2010-01-01T00:07:04Z</time>
      </trkpt>
      <trkpt lat="29.28759000" lon="82.94054000">
        <ele>4750.0000</ele>
        <time>2010-01-01T00:07:16Z</time>
      </trkpt>
      <trkpt lat="29.28772000" lon="82.94041000">
        <ele>4756.0000</ele>
        <time>2010-01-01T00:07:22Z</time>
      </trkpt>
      <trkpt lat="29.28779000" lon="82.94064000">
        <ele>4764.0000</ele>
        <time>2010-01-01T00:07:31Z</time>
      </trkpt>
      <trkpt lat="29.28790000" lon="82.94052000">
        <ele>4769.0000</ele>
        <time>2010-01-01T00:07:37Z</time>
      </trkpt>
      <trkpt lat="29.28796000" lon="82.94071000">
        <ele>4777.0000</ele>
        <time>2010-01-01T00:07:44Z</time>
      </trkpt>
      <trkpt lat="29.28811000" lon="82.94056000">
        <ele>4783.0000</ele>
        <time>2010-01-01T00:07:52Z</time>
      </trkpt>
      <trkpt lat="29.28816000" lon="82.94073000">
        <ele>4789.0000</ele>
        <time>2010-01-01T00:07:58Z</time>
      </trkpt>
      <trkpt lat="29.28821000" lon="82.94108000">
        <ele>4801.0000</ele>
        <time>2010-01-01T00:08:11Z</time>
      </trkpt>
      <trkpt lat="29.28827000" lon="82.94113000">
        <ele>4803.0000</ele>
        <time>2010-01-01T00:08:14Z</time>
      </trkpt>
      <trkpt lat="29.28824000" lon="82.94129000">
        <ele>4814.0000</ele>
        <time>2010-01-01T00:08:19Z</time>
      </trkpt>
      <trkpt lat="29.28839000" lon="82.94130000">
        <ele>4814.0000</ele>
        <time>2010-01-01T00:08:25Z</time>
      </trkpt>
      <trkpt lat="29.28838000" lon="82.94135000">
        <ele>4817.0000</ele>
        <time>2010-01-01T00:08:27Z</time>
      </trkpt>
      <trkpt lat="29.28856000" lon="82.94158000">
        <ele>4834.0000</ele>
        <time>2010-01-01T00:08:38Z</time>
      </trkpt>
      <trkpt lat="29.28870000" lon="82.94180000">
        <ele>4851.0000</ele>
        <time>2010-01-01T00:08:47Z</time>
      </trkpt>
      <trkpt lat="29.28908000" lon="82.94232000">
        <ele>4874.0000</ele>
        <time>2010-01-01T00:09:11Z</time>
      </trkpt>
      <trkpt lat="29.28916000" lon="82.94248000">
        <ele>4874.0000</ele>
        <time>2010-01-01T00:09:18Z</time>
      </trkpt>
      <trkpt lat="29.28922000" lon="82.94253000">
        <ele>4875.0000</ele>
        <time>2010-01-01T00:09:21Z</time>
      </trkpt>
      <trkpt lat="29.28933000" lon="82.94268000">
        <ele>4881.0000</ele>
        <time>2010-01-01T00:09:27Z</time>
      </trkpt>
      <trkpt lat="29.28984000" lon="82.94330000">
        <ele>4906.0000</ele>
        <time>2010-01-01T00:09:57Z</time>
      </trkpt>
      <trkpt lat="29.28993000" lon="82.94337000">
        <ele>4907.0000</ele>
        <time>2010-01-01T00:10:02Z</time>
      </trkpt>
      <trkpt lat="29.29002000" lon="82.94353000">
        <ele>4920.0000</ele>
        <time>2010-01-01T00:10:08Z</time>
      </trkpt>
      <trkpt lat="29.29017000" lon="82.94367000">
        <ele>4924.0000</ele>
        <time>2010-01-01T00:10:16Z</time>
      </trkpt>
      <trkpt lat="29.29031000" lon="82.94375000">
        <ele>4921.0000</ele>
        <time>2010-01-01T00:10:22Z</time>
      </trkpt>
      <trkpt lat="29.29048000" lon="82.94400000">
        <ele>4929.0000</ele>
        <time>2010-01-01T00:10:33Z</time>
      </trkpt>
      <trkpt lat="29.29062000" lon="82.94408000">
        <ele>4934.0000</ele>
        <time>2010-01-01T00:10:39Z</time>
      </trkpt>
      <trkpt lat="29.29071000" lon="82.94421000">
        <ele>4938.0000</ele>
        <time>2010-01-01T00:10:45Z</time>
      </trkpt>
      <trkpt lat="29.29101000" lon="82.94445000">
        <ele>4949.0000</ele>
        <time>2010-01-01T00:11:00Z</time>
      </trkpt>
      <trkpt lat="29.29108000" lon="82.94457000">
        <ele>4951.0000</ele>
        <time>2010-01-01T00:11:05Z</time>
      </trkpt>
      <trkpt lat="29.29127000" lon="82.94476000">
        <ele>4957.0000</ele>
        <time>2010-01-01T00:11:15Z</time>
      </trkpt>
      <trkpt lat="29.29134000" lon="82.94479000">
        <ele>4959.0000</ele>
        <time>2010-01-01T00:11:18Z</time>
      </trkpt>
      <trkpt lat="29.29138000" lon="82.94477000">
        <ele>4960.0000</ele>
        <time>2010-01-01T00:11:20Z</time>
      </trkpt>
      <trkpt lat="29.29144000" lon="82.94492000">
        <ele>4963.0000</ele>
        <time>2010-01-01T00:11:26Z</time>
      </trkpt>
      <trkpt lat="29.29152000" lon="82.94499000">
        <ele>4966.0000</ele>
        <time>2010-01-01T00:11:30Z</time>
      </trkpt>
      <trkpt lat="29.29162000" lon="82.94514000">
        <ele>4968.0000</ele>
        <time>2010-01-01T00:11:36Z</time>
      </trkpt>
      <trkpt lat="29.29184000" lon="82.94569000">
        <ele>4973.0000</ele>
        <time>2010-01-01T00:11:57Z</time>
      </trkpt>
      <trkpt lat="29.29204000" lon="82.94617000">
        <ele>4976.0000</ele>
        <time>2010-01-01T00:12:16Z</time>
      </trkpt>
      <trkpt lat="29.29218000" lon="82.94656000">
        <ele>4977.0000</ele>
        <time>2010-01-01T00:12:31Z</time>
      </trkpt>
      <trkpt lat="29.29244000" lon="82.94664000">
        <ele>4984.0000</ele>
        <time>2010-01-01T00:12:41Z</time>
      </trkpt>
      <trkpt lat="29.29259000" lon="82.94656000">
        <ele>4989.0000</ele>
        <time>2010-01-01T00:12:48Z</time>
      </trkpt>
      <trkpt lat="29.29265000" lon="82.94673000">
        <ele>4992.0000</ele>
        <time>2010-01-01T00:12:54Z</time>
      </trkpt>
      <trkpt lat="29.29292000" lon="82.94691000">
        <ele>5004.0000</ele>
        <time>2010-01-01T00:13:07Z</time>
      </trkpt>
      <trkpt lat="29.29309000" lon="82.94683000">
        <ele>5011.0000</ele>
        <time>2010-01-01T00:13:14Z</time>
      </trkpt>
      <trkpt lat="29.29336000" lon="82.94696000">
        <ele>5023.0000</ele>
        <time>2010-01-01T00:13:26Z</time>
      </trkpt>
      <trkpt lat="29.29353000" lon="82.94693000">
        <ele>5031.0000</ele>
        <time>2010-01-01T00:13:33Z</time>
      </trkpt>
      <trkpt lat="29.29368000" lon="82.94695000">
        <ele>5037.0000</ele>
        <time>2010-01-01T00:13:39Z</time>
      </trkpt>
      <trkpt lat="29.29378000" lon="82.94702000">
        <ele>5040.0000</ele>
        <time>2010-01-01T00:13:44Z</time>
      </trkpt>
      <trkpt lat="29.29389000" lon="82.94704000">
        <ele>5044.0000</ele>
        <time>2010-01-01T00:13:48Z</time>
      </trkpt>
      <trkpt lat="29.29394000" lon="82.94715000">
        <ele>5044.0000</ele>
        <time>2010-01-01T00:13:52Z</time>
      </trkpt>
      <trkpt lat="29.29426000" lon="82.94705000">
        <ele>5055.0000</ele>
        <time>2010-01-01T00:14:06Z</time>
      </trkpt>
      <trkpt lat="29.29451000" lon="82.94711000">
        <ele>5064.0000</ele>
        <time>2010-01-01T00:14:16Z</time>
      </trkpt>
      <trkpt lat="29.29480000" lon="82.94705000">
        <ele>5081.0000</ele>
        <time>2010-01-01T00:14:28Z</time>
      </trkpt>
      <trkpt lat="29.29536000" lon="82.94686000">
        <ele>5120.0000</ele>
        <time>2010-01-01T00:14:51Z</time>
      </trkpt>
      <trkpt lat="29.29609000" lon="82.94670000">
        <ele>5173.0000</ele>
        <time>2010-01-01T00:15:21Z</time>
      </trkpt>
      <trkpt lat="29.29645000" lon="82.94701000">
        <ele>5192.0000</ele>
        <time>2010-01-01T00:15:39Z</time>
      </trkpt>
      <trkpt lat="29.29667000" lon="82.94709000">
        <ele>5203.0000</ele>
        <time>2010-01-01T00:15:48Z</time>
      </trkpt>
      <trkpt lat="29.29681000" lon="82.94701000">
        <ele>5212.0000</ele>
        <time>2010-01-01T00:15:54Z</time>
      </trkpt>
      <trkpt lat="29.29696000" lon="82.94703000">
        <ele>5220.0000</ele>
        <time>2010-01-01T00:16:00Z</time>
      </trkpt>
      <trkpt lat="29.29695000" lon="82.94703000">
        <ele>5219.0000</ele>
        <time>2010-01-01T00:16:01Z</time>
      </trkpt>
      <trkpt lat="29.29701000" lon="82.94703000">
        <ele>5223.0000</ele>
        <time>2010-01-01T00:16:03Z</time>
      </trkpt>
      <trkpt lat="29.29737000" lon="82.94691000">
        <ele>5249.0000</ele>
        <time>2010-01-01T00:16:18Z</time>
      </trkpt>
      <trkpt lat="29.29772000" lon="82.94690000">
        <ele>5268.0000</ele>
        <time>2010-01-01T00:16:32Z</time>
      </trkpt>
      <trkpt lat="29.29822000" lon="82.94677000">
        <ele>5288.0000</ele>
        <time>2010-01-01T00:16:53Z</time>
      </trkpt>
      <trkpt lat="29.29832000" lon="82.94671000">
        <ele>5295.0000</ele>
        <time>2010-01-01T00:16:57Z</time>
      </trkpt>
      <trkpt lat="29.29838000" lon="82.94674000">
        <ele>5297.0000</ele>
        <time>2010-01-01T00:17:00Z</time>
      </trkpt>
      <trkpt lat="29.29860000" lon="82.94666000">
        <ele>5317.0000</ele>
        <time>2010-01-01T00:17:09Z</time>
      </trkpt>
      <trkpt lat="29.29901000" lon="82.94662000">
        <ele>5340.0000</ele>
        <time>2010-01-01T00:17:26Z</time>
      </trkpt>
      <trkpt lat="29.29936000" lon="82.94642000">
        <ele>5345.0000</ele>
        <time>2010-01-01T00:17:41Z</time>
      </trkpt>
      <trkpt lat="29.29952000" lon="82.94635000">
        <ele>5338.0000</ele>
        <time>2010-01-01T00:17:48Z</time>
      </trkpt>
      <trkpt lat="29.29944000" lon="82.94606000">
        <ele>5341.0000</ele>
        <time>2010-01-01T00:17:59Z</time>
      </trkpt>
      <trkpt lat="29.29934000" lon="82.94586000">
        <ele>5342.0000</ele>
        <time>2010-01-01T00:18:07Z</time>
      </trkpt>
      <trkpt lat="29.29939000" lon="82.94578000">
        <ele>5341.0000</ele>
        <time>2010-01-01T00:18:10Z</time>
      </trkpt>
      <trkpt lat="29.29937000" lon="82.94566000">
        <ele>5345.0000</ele>
        <time>2010-01-01T00:18:14Z</time>
      </trkpt>
      <trkpt lat="29.29943000" lon="82.94554000">
        <ele>5345.0000</ele>
        <time>2010-01-01T00:18:19Z</time>
      </trkpt>
      <trkpt lat="29.29948000" lon="82.94548000">
        <ele>5342.0000</ele>
        <time>2010-01-01T00:18:22Z</time>
      </trkpt>
      <trkpt lat="29.29980000" lon="82.94532000">
        <ele>5316.0000</ele>
        <time>2010-01-01T00:18:36Z</time>
      </trkpt>
      <trkpt lat="29.30039000" lon="82.94518000">
        <ele>5277.0000</ele>
        <time>2010-01-01T00:19:00Z</time>
      </trkpt>
      <trkpt lat="29.30074000" lon="82.94512000">
        <ele>5252.0000</ele>
        <time>2010-01-01T00:19:14Z</time>
      </trkpt>
      <trkpt lat="29.30107000" lon="82.94516000">
        <ele>5230.0000</ele>
        <time>2010-01-01T00:19:28Z</time>
      </trkpt>
      <trkpt lat="29.30171000" lon="82.94492000">
        <ele>5210.0000</ele>
        <time>2010-01-01T00:19:55Z</time>
      </trkpt>
      <trkpt lat="29.30214000" lon="82.94484000">
        <ele>5197.0000</ele>
        <time>2010-01-01T00:20:12Z</time>
      </trkpt>
      <trkpt lat="29.30253000" lon="82.94462000">
        <ele>5191.0000</ele>
        <time>2010-01-01T00:20:30Z</time>
      </trkpt>
      <trkpt lat="29.30294000" lon="82.94410000">
        <ele>5180.0000</ele>
        <time>2010-01-01T00:20:54Z</time>
      </trkpt>
      <trkpt lat="29.30323000" lon="82.94376000">
        <ele>5173.0000</ele>
        <time>2010-01-01T00:21:11Z</time>
      </trkpt>
      <trkpt lat="29.30358000" lon="82.94385000">
        <ele>5177.0000</ele>
        <time>2010-01-01T00:21:25Z</time>
      </trkpt>
      <trkpt lat="29.30357000" lon="82.94370000">
        <ele>5172.0000</ele>
        <time>2010-01-01T00:21:30Z</time>
      </trkpt>
      <trkpt lat="29.30375000" lon="82.94363000">
        <ele>5166.0000</ele>
        <time>2010-01-01T00:21:38Z</time>
      </trkpt>
      <trkpt lat="29.30411000" lon="82.94366000">
        <ele>5162.0000</ele>
        <time>2010-01-01T00:21:52Z</time>
      </trkpt>
      <trkpt lat="29.30471000" lon="82.94321000">
        <ele>5147.0000</ele>
        <time>2010-01-01T00:22:21Z</time>
      </trkpt>
      <trkpt lat="29.30513000" lon="82.94300000">
        <ele>5147.0000</ele>
        <time>2010-01-01T00:22:39Z</time>
      </trkpt>
      <trkpt lat="29.30530000" lon="82.94291000">
        <ele>5148.0000</ele>
        <time>2010-01-01T00:22:47Z</time>
      </trkpt>
      <trkpt lat="29.30532000" lon="82.94278000">
        <ele>5146.0000</ele>
        <time>2010-01-01T00:22:51Z</time>
      </trkpt>
      <trkpt lat="29.30540000" lon="82.94256000">
        <ele>5145.0000</ele>
        <time>2010-01-01T00:23:00Z</time>
      </trkpt>
      <trkpt lat="29.30530000" lon="82.94205000">
        <ele>5139.0000</ele>
        <time>2010-01-01T00:23:18Z</time>
      </trkpt>
      <trkpt lat="29.30557000" lon="82.94170000">
        <ele>5141.0000</ele>
        <time>2010-01-01T00:23:34Z</time>
      </trkpt>
      <trkpt lat="29.30578000" lon="82.94113000">
        <ele>5137.0000</ele>
        <time>2010-01-01T00:23:56Z</time>
      </trkpt>
      <trkpt lat="29.30629000" lon="82.94085000">
        <ele>5133.0000</ele>
        <time>2010-01-01T00:24:19Z</time>
      </trkpt>
      <trkpt lat="29.30657000" lon="82.94094000">
        <ele>5135.0000</ele>
        <time>2010-01-01T00:24:30Z</time>
      </trkpt>
      <trkpt lat="29.30766000" lon="82.94022000">
        <ele>5120.0000</ele>
        <time>2010-01-01T00:25:21Z</time>
      </trkpt>
      <trkpt lat="29.30854000" lon="82.93897000">
        <ele>5089.0000</ele>
        <time>2010-01-01T00:26:17Z</time>
      </trkpt>
      <trkpt lat="29.30916000" lon="82.93842000">
        <ele>5076.0000</ele>
        <time>2010-01-01T00:26:48Z</time>
      </trkpt>
      <trkpt lat="29.30968000" lon="82.93812000">
        <ele>5063.0000</ele>
        <time>2010-01-01T00:27:11Z</time>
      </trkpt>
      <trkpt lat="29.31032000" lon="82.93782000">
        <ele>5051.0000</ele>
        <time>2010-01-01T00:27:39Z</time>
      </trkpt>
      <trkpt lat="29.31128000" lon="82.93767000">
        <ele>5016.0000</ele>
        <time>2010-01-01T00:28:18Z</time>
      </trkpt>
      <trkpt lat="29.31246000" lon="82.93783000">
        <ele>4986.0000</ele>
        <time>2010-01-01T00:29:05Z</time>
      </trkpt>
      <trkpt lat="29.31298000" lon="82.93726000">
        <ele>4968.0000</ele>
        <time>2010-01-01T00:29:34Z</time>
      </trkpt>
      <trkpt lat="29.31378000" lon="82.93689000">
        <ele>4929.0000</ele>
        <time>2010-01-01T00:30:09Z</time>
      </trkpt>
      <trkpt lat="29.31430000" lon="82.93690000">
        <ele>4913.0000</ele>
        <time>2010-01-01T00:30:29Z</time>
      </trkpt>
      <trkpt lat="29.31469000" lon="82.93676000">
        <ele>4921.0000</ele>
        <time>2010-01-01T00:30:46Z</time>
      </trkpt>
      <trkpt lat="29.31518000" lon="82.93720000">
        <ele>4904.0000</ele>
        <time>2010-01-01T00:31:11Z</time>
      </trkpt>
      <trkpt lat="29.31544000" lon="82.93748000">
        <ele>4901.0000</ele>
        <time>2010-01-01T00:31:25Z</time>
      </trkpt>
      <trkpt lat="29.31551000" lon="82.93770000">
        <ele>4895.0000</ele>
        <time>2010-01-01T00:31:33Z</time>
      </trkpt>
      <trkpt lat="29.31560000" lon="82.93787000">
        <ele>4891.0000</ele>
        <time>2010-01-01T00:31:40Z</time>
      </trkpt>
      <trkpt lat="29.31575000" lon="82.93792000">
        <ele>4889.0000</ele>
        <time>2010-01-01T00:31:46Z</time>
      </trkpt>
      <trkpt lat="29.31585000" lon="82.93790000">
        <ele>4889.0000</ele>
        <time>2010-01-01T00:31:50Z</time>
      </trkpt>
      <trkpt lat="29.31650000" lon="82.93827000">
        <ele>4872.0000</ele>
        <time>2010-01-01T00:32:19Z</time>
      </trkpt>
      <trkpt lat="29.31698000" lon="82.93875000">
        <ele>4853.0000</ele>
        <time>2010-01-01T00:32:45Z</time>
      </trkpt>
      <trkpt lat="29.31705000" lon="82.93903000">
        <ele>4851.0000</ele>
        <time>2010-01-01T00:32:55Z</time>
      </trkpt>
      <trkpt lat="29.31711000" lon="82.93921000">
        <ele>4852.0000</ele>
        <time>2010-01-01T00:33:02Z</time>
      </trkpt>
      <trkpt lat="29.31727000" lon="82.93949000">
        <ele>4849.0000</ele>
        <time>2010-01-01T00:33:14Z</time>
      </trkpt>
      <trkpt lat="29.31765000" lon="82.93993000">
        <ele>4845.0000</ele>
        <time>2010-01-01T00:33:35Z</time>
      </trkpt>
      <trkpt lat="29.31804000" lon="82.94055000">
        <ele>4839.0000</ele>
        <time>2010-01-01T00:34:02Z</time>
      </trkpt>
      <trkpt lat="29.31818000" lon="82.94082000">
        <ele>4838.0000</ele>
        <time>2010-01-01T00:34:13Z</time>
      </trkpt>
      <trkpt lat="29.31828000" lon="82.94090000">
        <ele>4839.0000</ele>
        <time>2010-01-01T00:34:18Z</time>
      </trkpt>
      <trkpt lat="29.31836000" lon="82.94116000">
        <ele>4836.0000</ele>
        <time>2010-01-01T00:34:27Z</time>
      </trkpt>
      <trkpt lat="29.31843000" lon="82.94133000">
        <ele>4835.0000</ele>
        <time>2010-01-01T00:34:34Z</time>
      </trkpt>
      <trkpt lat="29.31843000" lon="82.94132000">
        <ele>4835.0000</ele>
        <time>2010-01-01T00:34:34Z</time>
      </trkpt>
      <trkpt lat="29.31848000" lon="82.94144000">
        <ele>4834.0000</ele>
        <time>2010-01-01T00:34:39Z</time>
      </trkpt>
      <trkpt lat="29.31862000" lon="82.94161000">
        <ele>4835.0000</ele>
        <time>2010-01-01T00:34:47Z</time>
      </trkpt>
      <trkpt lat="29.31912000" lon="82.94201000">
        <ele>4835.0000</ele>
        <time>2010-01-01T00:35:11Z</time>
      </trkpt>
      <trkpt lat="29.31951000" lon="82.94228000">
        <ele>4828.0000</ele>
        <time>2010-01-01T00:35:30Z</time>
      </trkpt>
      <trkpt lat="29.32004000" lon="82.94252000">
        <ele>4828.0000</ele>
        <time>2010-01-01T00:35:52Z</time>
      </trkpt>
      <trkpt lat="29.32023000" lon="82.94257000">
        <ele>4827.0000</ele>
        <time>2010-01-01T00:36:00Z</time>
      </trkpt>
      <trkpt lat="29.32066000" lon="82.94283000">
        <ele>4822.0000</ele>
        <time>2010-01-01T00:36:20Z</time>
      </trkpt>
      <trkpt lat="29.32071000" lon="82.94291000">
        <ele>4820.0000</ele>
        <time>2010-01-01T00:36:23Z</time>
      </trkpt>
      <trkpt lat="29.32083000" lon="82.94296000">
        <ele>4818.0000</ele>
        <time>2010-01-01T00:36:28Z</time>
      </trkpt>
      <trkpt lat="29.32098000" lon="82.94324000">
        <ele>4817.0000</ele>
        <time>2010-01-01T00:36:40Z</time>
      </trkpt>
      <trkpt lat="29.32138000" lon="82.94351000">
        <ele>4810.0000</ele>
        <time>2010-01-01T00:36:58Z</time>
      </trkpt>
      <trkpt lat="29.32160000" lon="82.94369000">
        <ele>4805.0000</ele>
        <time>2010-01-01T00:37:09Z</time>
      </trkpt>
      <trkpt lat="29.32236000" lon="82.94423000">
        <ele>4793.0000</ele>
        <time>2010-01-01T00:37:45Z</time>
      </trkpt>
      <trkpt lat="29.32371000" lon="82.94470000">
        <ele>4761.0000</ele>
        <time>2010-01-01T00:38:41Z</time>
      </trkpt>
      <trkpt lat="29.32389000" lon="82.94481000">
        <ele>4757.0000</ele>
        <time>2010-01-01T00:38:50Z</time>
      </trkpt>
      <trkpt lat="29.32405000" lon="82.94482000">
        <ele>4756.0000</ele>
        <time>2010-01-01T00:38:56Z</time>
      </trkpt>
      <trkpt lat="29.32419000" lon="82.94501000">
        <ele>4748.0000</ele>
        <time>2010-01-01T00:39:05Z</time>
      </trkpt>
      <trkpt lat="29.32434000" lon="82.94513000">
        <ele>4753.0000</ele>
        <time>2010-01-01T00:39:12Z</time>
      </trkpt>
      <trkpt lat="29.32442000" lon="82.94525000">
        <ele>4754.0000</ele>
        <time>2010-01-01T00:39:17Z</time>
      </trkpt>
      <trkpt lat="29.32474000" lon="82.94539000">
        <ele>4753.0000</ele>
        <time>2010-01-01T00:39:31Z</time>
      </trkpt>
      <trkpt lat="29.32487000" lon="82.94573000">
        <ele>4742.0000</ele>
        <time>2010-01-01T00:39:44Z</time>
      </trkpt>
      <trkpt lat="29.32504000" lon="82.94599000">
        <ele>4734.0000</ele>
        <time>2010-01-01T00:39:55Z</time>
      </trkpt>
      <trkpt lat="29.32520000" lon="82.94612000">
        <ele>4731.0000</ele>
        <time>2010-01-01T00:40:03Z</time>
      </trkpt>
      <trkpt lat="29.32539000" lon="82.94640000">
        <ele>4727.0000</ele>
        <time>2010-01-01T00:40:15Z</time>
      </trkpt>
      <trkpt lat="29.32554000" lon="82.94654000">
        <ele>4722.0000</ele>
        <time>2010-01-01T00:40:23Z</time>
      </trkpt>
      <trkpt lat="29.32562000" lon="82.94674000">
        <ele>4715.0000</ele>
        <time>2010-01-01T00:40:31Z</time>
      </trkpt>
      <trkpt lat="29.32590000" lon="82.94716000">
        <ele>4702.0000</ele>
        <time>2010-01-01T00:40:49Z</time>
      </trkpt>
      <trkpt lat="29.32603000" lon="82.94728000">
        <ele>4702.0000</ele>
        <time>2010-01-01T00:40:56Z</time>
      </trkpt>
      <trkpt lat="29.32654000" lon="82.94794000">
        <ele>4701.0000</ele>
        <time>2010-01-01T00:41:27Z</time>
      </trkpt>
      <trkpt lat="29.32709000" lon="82.94860000">
        <ele>4693.0000</ele>
        <time>2010-01-01T00:41:59Z</time>
      </trkpt>
      <trkpt lat="29.32718000" lon="82.94875000">
        <ele>4692.0000</ele>
        <time>2010-01-01T00:42:05Z</time>
      </trkpt>
      <trkpt lat="29.32774000" lon="82.94989000">
        <ele>4672.0000</ele>
        <time>2010-01-01T00:42:51Z</time>
      </trkpt>
      <trkpt lat="29.32789000" lon="82.95013000">
        <ele>4673.0000</ele>
        <time>2010-01-01T00:43:01Z</time>
      </trkpt>
      <trkpt lat="29.32792000" lon="82.95024000">
        <ele>4672.0000</ele>
        <time>2010-01-01T00:43:05Z</time>
      </trkpt>
      <trkpt lat="29.32796000" lon="82.95028000">
        <ele>4672.0000</ele>
        <time>2010-01-01T00:43:07Z</time>
      </trkpt>
      <trkpt lat="29.32802000" lon="82.95043000">
        <ele>4667.0000</ele>
        <time>2010-01-01T00:43:13Z</time>
      </trkpt>
      <trkpt lat="29.32824000" lon="82.95066000">
        <ele>4662.0000</ele>
        <time>2010-01-01T00:43:25Z</time>
      </trkpt>
      <trkpt lat="29.32835000" lon="82.95107000">
        <ele>4649.0000</ele>
        <time>2010-01-01T00:43:40Z</time>
      </trkpt>
      <trkpt lat="29.32841000" lon="82.95120000">
        <ele>4647.0000</ele>
        <time>2010-01-01T00:43:45Z</time>
      </trkpt>
      <trkpt lat="29.32856000" lon="82.95130000">
        <ele>4644.0000</ele>
        <time>2010-01-01T00:43:52Z</time>
      </trkpt>
      <trkpt lat="29.32875000" lon="82.95148000">
        <ele>4639.0000</ele>
        <time>2010-01-01T00:44:02Z</time>
      </trkpt>
      <trkpt lat="29.32901000" lon="82.95183000">
        <ele>4635.0000</ele>
        <time>2010-01-01T00:44:18Z</time>
      </trkpt>
      <trkpt lat="29.32906000" lon="82.95194000">
        <ele>4633.0000</ele>
        <time>2010-01-01T00:44:22Z</time>
      </trkpt>
      <trkpt lat="29.32910000" lon="82.95194000">
        <ele>4633.0000</ele>
        <time>2010-01-01T00:44:24Z</time>
      </trkpt>
      <trkpt lat="29.32913000" lon="82.95193000">
        <ele>4634.0000</ele>
        <time>2010-01-01T00:44:25Z</time>
      </trkpt>
      <trkpt lat="29.32917000" lon="82.95197000">
        <ele>4632.0000</ele>
        <time>2010-01-01T00:44:27Z</time>
      </trkpt>
      <trkpt lat="29.32923000" lon="82.95205000">
        <ele>4629.0000</ele>
        <time>2010-01-01T00:44:31Z</time>
      </trkpt>
      <trkpt lat="29.32923000" lon="82.95218000">
        <ele>4623.0000</ele>
        <time>2010-01-01T00:44:35Z</time>
      </trkpt>
      <trkpt lat="29.32930000" lon="82.95237000">
        <ele>4615.0000</ele>
        <time>2010-01-01T00:44:43Z</time>
      </trkpt>
      <trkpt lat="29.32954000" lon="82.95254000">
        <ele>4607.0000</ele>
        <time>2010-01-01T00:44:54Z</time>
      </trkpt>
      <trkpt lat="29.32974000" lon="82.95263000">
        <ele>4605.0000</ele>
        <time>2010-01-01T00:45:02Z</time>
      </trkpt>
      <trkpt lat="29.32985000" lon="82.95274000">
        <ele>4602.0000</ele>
        <time>2010-01-01T00:45:08Z</time>
      </trkpt>
      <trkpt lat="29.33021000" lon="82.95285000">
        <ele>4598.0000</ele>
        <time>2010-01-01T00:45:23Z</time>
      </trkpt>
      <trkpt lat="29.33068000" lon="82.95295000">
        <ele>4595.0000</ele>
        <time>2010-01-01T00:45:42Z</time>
      </trkpt>
      <trkpt lat="29.33101000" lon="82.95317000">
        <ele>4589.0000</ele>
        <time>2010-01-01T00:45:58Z</time>
      </trkpt>
      <trkpt lat="29.33116000" lon="82.95341000">
        <ele>4580.0000</ele>
        <time>2010-01-01T00:46:08Z</time>
      </trkpt>
      <trkpt lat="29.33147000" lon="82.95363000">
        <ele>4571.0000</ele>
        <time>2010-01-01T00:46:22Z</time>
      </trkpt>
      <trkpt lat="29.33164000" lon="82.95371000">
        <ele>4568.0000</ele>
        <time>2010-01-01T00:46:30Z</time>
      </trkpt>
      <trkpt lat="29.33178000" lon="82.95372000">
        <ele>4567.0000</ele>
        <time>2010-01-01T00:46:35Z</time>
      </trkpt>
      <trkpt lat="29.33210000" lon="82.95389000">
        <ele>4563.0000</ele>
        <time>2010-01-01T00:46:50Z</time>
      </trkpt>
      <trkpt lat="29.33222000" lon="82.95390000">
        <ele>4563.0000</ele>
        <time>2010-01-01T00:46:54Z</time>
      </trkpt>
      <trkpt lat="29.33239000" lon="82.95389000">
        <ele>4561.0000</ele>
        <time>2010-01-01T00:47:01Z</time>
      </trkpt>
      <trkpt lat="29.33263000" lon="82.95393000">
        <ele>4560.0000</ele>
        <time>2010-01-01T00:47:11Z</time>
      </trkpt>
      <trkpt lat="29.33332000" lon="82.95399000">
        <ele>4556.0000</ele>
        <time>2010-01-01T00:47:39Z</time>
      </trkpt>
      <trkpt lat="29.33364000" lon="82.95408000">
        <ele>4548.0000</ele>
        <time>2010-01-01T00:47:52Z</time>
      </trkpt>
      <trkpt lat="29.33372000" lon="82.95417000">
        <ele>4542.0000</ele>
        <time>2010-01-01T00:47:56Z</time>
      </trkpt>
      <trkpt lat="29.33391000" lon="82.95416000">
        <ele>4542.0000</ele>
        <time>2010-01-01T00:48:04Z</time>
      </trkpt>
      <trkpt lat="29.33421000" lon="82.95424000">
        <ele>4538.0000</ele>
        <time>2010-01-01T00:48:16Z</time>
      </trkpt>
      <trkpt lat="29.33477000" lon="82.95464000">
        <ele>4524.0000</ele>
        <time>2010-01-01T00:48:43Z</time>
      </trkpt>
      <trkpt lat="29.33528000" lon="82.95479000">
        <ele>4520.0000</ele>
        <time>2010-01-01T00:49:04Z</time>
      </trkpt>
      <trkpt lat="29.33617000" lon="82.95521000">
        <ele>4511.0000</ele>
        <time>2010-01-01T00:49:42Z</time>
      </trkpt>
      <trkpt lat="29.33669000" lon="82.95552000">
        <ele>4506.0000</ele>
        <time>2010-01-01T00:50:06Z</time>
      </trkpt>
      <trkpt lat="29.33693000" lon="82.95570000">
        <ele>4501.0000</ele>
        <time>2010-01-01T00:50:17Z</time>
      </trkpt>
      <trkpt lat="29.33711000" lon="82.95575000">
        <ele>4501.0000</ele>
        <time>2010-01-01T00:50:25Z</time>
      </trkpt>
      <trkpt lat="29.33727000" lon="82.95588000">
        <ele>4497.0000</ele>
        <time>2010-01-01T00:50:32Z</time>
      </trkpt>
      <trkpt lat="29.33779000" lon="82.95634000">
        <ele>4491.0000</ele>
        <time>2010-01-01T00:50:59Z</time>
      </trkpt>
      <trkpt lat="29.33806000" lon="82.95670000">
        <ele>4485.0000</ele>
        <time>2010-01-01T00:51:15Z</time>
      </trkpt>
      <trkpt lat="29.33824000" lon="82.95708000">
        <ele>4479.0000</ele>
        <time>2010-01-01T00:51:30Z</time>
      </trkpt>
      <trkpt lat="29.33824000" lon="82.95715000">
        <ele>4477.0000</ele>
        <time>2010-01-01T00:51:33Z</time>
      </trkpt>
      <trkpt lat="29.33829000" lon="82.95720000">
        <ele>4476.0000</ele>
        <time>2010-01-01T00:51:35Z</time>
      </trkpt>
      <trkpt lat="29.33882000" lon="82.95750000">
        <ele>4468.0000</ele>
        <time>2010-01-01T00:51:59Z</time>
      </trkpt>
      <trkpt lat="29.33902000" lon="82.95752000">
        <ele>4466.0000</ele>
        <time>2010-01-01T00:52:07Z</time>
      </trkpt>
      <trkpt lat="29.33937000" lon="82.95768000">
        <ele>4458.0000</ele>
        <time>2010-01-01T00:52:22Z</time>
      </trkpt>
      <trkpt lat="29.33941000" lon="82.95775000">
        <ele>4456.0000</ele>
        <time>2010-01-01T00:52:25Z</time>
      </trkpt>
      <trkpt lat="29.34008000" lon="82.95798000">
        <ele>4451.0000</ele>
        <time>2010-01-01T00:52:53Z</time>
      </trkpt>
      <trkpt lat="29.34087000" lon="82.95857000">
        <ele>4443.0000</ele>
        <time>2010-01-01T00:53:31Z</time>
      </trkpt>
      <trkpt lat="29.34141000" lon="82.95923000">
        <ele>4439.0000</ele>
        <time>2010-01-01T00:54:02Z</time>
      </trkpt>
      <trkpt lat="29.34149000" lon="82.95943000">
        <ele>4436.0000</ele>
        <time>2010-01-01T00:54:10Z</time>
      </trkpt>
      <trkpt lat="29.34179000" lon="82.95986000">
        <ele>4435.0000</ele>
        <time>2010-01-01T00:54:29Z</time>
      </trkpt>
      <trkpt lat="29.34191000" lon="82.95988000">
        <ele>4436.0000</ele>
        <time>2010-01-01T00:54:34Z</time>
      </trkpt>
      <trkpt lat="29.34198000" lon="82.96010000">
        <ele>4435.0000</ele>
        <time>2010-01-01T00:54:42Z</time>
      </trkpt>
      <trkpt lat="29.34241000" lon="82.96047000">
        <ele>4433.0000</ele>
        <time>2010-01-01T00:55:04Z</time>
      </trkpt>
      <trkpt lat="29.34250000" lon="82.96058000">
        <ele>4431.0000</ele>
        <time>2010-01-01T00:55:09Z</time>
      </trkpt>
      <trkpt lat="29.34284000" lon="82.96069000">
        <ele>4431.0000</ele>
        <time>2010-01-01T00:55:23Z</time>
      </trkpt>
      <trkpt lat="29.34303000" lon="82.96085000">
        <ele>4430.0000</ele>
        <time>2010-01-01T00:55:33Z</time>
      </trkpt>
      <trkpt lat="29.34367000" lon="82.96177000">
        <ele>4407.0000</ele>
        <time>2010-01-01T00:56:14Z</time>
      </trkpt>
      <trkpt lat="29.34373000" lon="82.96178000">
        <ele>4407.0000</ele>
        <time>2010-01-01T00:56:16Z</time>
      </trkpt>
      <trkpt lat="29.34388000" lon="82.96172000">
        <ele>4407.0000</ele>
        <time>2010-01-01T00:56:23Z</time>
      </trkpt>
      <trkpt lat="29.34393000" lon="82.96175000">
        <ele>4407.0000</ele>
        <time>2010-01-01T00:56:25Z</time>
      </trkpt>
      <trkpt lat="29.34391000" lon="82.96187000">
        <ele>4404.0000</ele>
        <time>2010-01-01T00:56:29Z</time>
      </trkpt>
      <trkpt lat="29.34391000" lon="82.96200000">
        <ele>4401.0000</ele>
        <time>2010-01-01T00:56:34Z</time>
      </trkpt>
      <trkpt lat="29.34400000" lon="82.96220000">
        <ele>4398.0000</ele>
        <time>2010-01-01T00:56:42Z</time>
      </trkpt>
      <trkpt lat="29.34412000" lon="82.96237000">
        <ele>4394.0000</ele>
        <time>2010-01-01T00:56:49Z</time>
      </trkpt>
      <trkpt lat="29.34456000" lon="82.96261000">
        <ele>4386.0000</ele>
        <time>2010-01-01T00:57:09Z</time>
      </trkpt>
      <trkpt lat="29.34559000" lon="82.96288000">
        <ele>4373.0000</ele>
        <time>2010-01-01T00:57:51Z</time>
      </trkpt>
      <trkpt lat="29.34664000" lon="82.96266000">
        <ele>4363.0000</ele>
        <time>2010-01-01T00:58:34Z</time>
      </trkpt>
      <trkpt lat="29.34693000" lon="82.96252000">
        <ele>4359.0000</ele>
        <time>2010-01-01T00:58:46Z</time>
      </trkpt>
      <trkpt lat="29.34719000" lon="82.96247000">
        <ele>4354.0000</ele>
        <time>2010-01-01T00:58:57Z</time>
      </trkpt>
      <trkpt lat="29.34763000" lon="82.96244000">
        <ele>4351.0000</ele>
        <time>2010-01-01T00:59:14Z</time>
      </trkpt>
      <trkpt lat="29.34773000" lon="82.96251000">
        <ele>4349.0000</ele>
        <time>2010-01-01T00:59:19Z</time>
      </trkpt>
      <trkpt lat="29.34806000" lon="82.96260000">
        <ele>4350.0000</ele>
        <time>2010-01-01T00:59:33Z</time>
      </trkpt>
      <trkpt lat="29.34828000" lon="82.96275000">
        <ele>4348.0000</ele>
        <time>2010-01-01T00:59:43Z</time>
      </trkpt>
      <trkpt lat="29.34845000" lon="82.96302000">
        <ele>4344.0000</ele>
        <time>2010-01-01T00:59:55Z</time>
      </trkpt>
      <trkpt lat="29.34878000" lon="82.96321000">
        <ele>4345.0000</ele>
        <time>2010-01-01T01:00:09Z</time>
      </trkpt>
      <trkpt lat="29.34896000" lon="82.96329000">
        <ele>4345.0000</ele>
        <time>2010-01-01T01:00:17Z</time>
      </trkpt>
      <trkpt lat="29.34950000" lon="82.96340000">
        <ele>4341.0000</ele>
        <time>2010-01-01T01:00:39Z</time>
      </trkpt>
      <trkpt lat="29.34991000" lon="82.96343000">
        <ele>4338.0000</ele>
        <time>2010-01-01T01:00:56Z</time>
      </trkpt>
      <trkpt lat="29.35046000" lon="82.96343000">
        <ele>4335.0000</ele>
        <time>2010-01-01T01:01:18Z</time>
      </trkpt>
      <trkpt lat="29.35105000" lon="82.96354000">
        <ele>4328.0000</ele>
        <time>2010-01-01T01:01:41Z</time>
      </trkpt>
      <trkpt lat="29.35155000" lon="82.96377000">
        <ele>4324.0000</ele>
        <time>2010-01-01T01:02:03Z</time>
      </trkpt>
      <trkpt lat="29.35188000" lon="82.96386000">
        <ele>4323.0000</ele>
        <time>2010-01-01T01:02:17Z</time>
      </trkpt>
      <trkpt lat="29.35206000" lon="82.96387000">
        <ele>4323.0000</ele>
        <time>2010-01-01T01:02:24Z</time>
      </trkpt>
      <trkpt lat="29.35216000" lon="82.96385000">
        <ele>4323.0000</ele>
        <time>2010-01-01T01:02:28Z</time>
      </trkpt>
      <trkpt lat="29.35250000" lon="82.96420000">
        <ele>4322.0000</ele>
        <time>2010-01-01T01:02:46Z</time>
      </trkpt>
      <trkpt lat="29.35282000" lon="82.96435000">
        <ele>4319.0000</ele>
        <time>2010-01-01T01:03:00Z</time>
      </trkpt>
      <trkpt lat="29.35294000" lon="82.96437000">
        <ele>4319.0000</ele>
        <time>2010-01-01T01:03:05Z</time>
      </trkpt>
      <trkpt lat="29.35307000" lon="82.96456000">
        <ele>4320.0000</ele>
        <time>2010-01-01T01:03:13Z</time>
      </trkpt>
      <trkpt lat="29.35317000" lon="82.96459000">
        <ele>4321.0000</ele>
        <time>2010-01-01T01:03:17Z</time>
      </trkpt>
      <trkpt lat="29.35325000" lon="82.96464000">
        <ele>4322.0000</ele>
        <time>2010-01-01T01:03:21Z</time>
      </trkpt>
      <trkpt lat="29.35333000" lon="82.96489000">
        <ele>4330.0000</ele>
        <time>2010-01-01T01:03:30Z</time>
      </trkpt>
      <trkpt lat="29.35334000" lon="82.96498000">
        <ele>4334.0000</ele>
        <time>2010-01-01T01:03:34Z</time>
      </trkpt>
      <trkpt lat="29.35332000" lon="82.96512000">
        <ele>4336.0000</ele>
        <time>2010-01-01T01:03:39Z</time>
      </trkpt>
      <trkpt lat="29.35325000" lon="82.96516000">
        <ele>4337.0000</ele>
        <time>2010-01-01T01:03:42Z</time>
      </trkpt>
      <trkpt lat="29.35315000" lon="82.96518000">
        <ele>4337.0000</ele>
        <time>2010-01-01T01:03:46Z</time>
      </trkpt>
      <trkpt lat="29.35311000" lon="82.96538000">
        <ele>4342.0000</ele>
        <time>2010-01-01T01:03:53Z</time>
      </trkpt>
      <trkpt lat="29.35300000" lon="82.96553000">
        <ele>4345.0000</ele>
        <time>2010-01-01T01:04:00Z</time>
      </trkpt>
      <trkpt lat="29.35286000" lon="82.96562000">
        <ele>4347.0000</ele>
        <time>2010-01-01T01:04:06Z</time>
      </trkpt>
      <trkpt lat="29.35271000" lon="82.96569000">
        <ele>4347.0000</ele>
        <time>2010-01-01T01:04:13Z</time>
      </trkpt>
      <trkpt lat="29.35267000" lon="82.96600000">
        <ele>4356.0000</ele>
        <time>2010-01-01T01:04:24Z</time>
      </trkpt>
      <trkpt lat="29.35257380" lon="82.96591758">
        <ele>4352.0000</ele>
        <time>2010-01-01T00:00:00Z</time>
      </trkpt>
      <trkpt lat="29.35268000" lon="82.96594000">
        <ele>4354.0000</ele>
        <time>2010-01-01T00:00:04Z</time>
      </trkpt>
      <trkpt lat="29.35267000" lon="82.96601000">
        <ele>4356.0000</ele>
        <time>2010-01-01T00:00:06Z</time>
      </trkpt>
      <trkpt lat="29.35273000" lon="82.96611000">
        <ele>4361.0000</ele>
        <time>2010-01-01T00:00:11Z</time>
      </trkpt>
      <trkpt lat="29.35268000" lon="82.96621000">
        <ele>4362.0000</ele>
        <time>2010-01-01T00:00:15Z</time>
      </trkpt>
      <trkpt lat="29.35267000" lon="82.96628000">
        <ele>4363.0000</ele>
        <time>2010-01-01T00:00:17Z</time>
      </trkpt>
      <trkpt lat="29.35269000" lon="82.96657000">
        <ele>4370.0000</ele>
        <time>2010-01-01T00:00:27Z</time>
      </trkpt>
      <trkpt lat="29.35271000" lon="82.96661000">
        <ele>4372.0000</ele>
        <time>2010-01-01T00:00:29Z</time>
      </trkpt>
      <trkpt lat="29.35282000" lon="82.96655000">
        <ele>4374.0000</ele>
        <time>2010-01-01T00:00:34Z</time>
      </trkpt>
      <trkpt lat="29.35292000" lon="82.96663000">
        <ele>4379.0000</ele>
        <time>2010-01-01T00:00:39Z</time>
      </trkpt>
      <trkpt lat="29.35290000" lon="82.96670000">
        <ele>4380.0000</ele>
        <time>2010-01-01T00:00:41Z</time>
      </trkpt>
      <trkpt lat="29.35301000" lon="82.96672000">
        <ele>4384.0000</ele>
        <time>2010-01-01T00:00:46Z</time>
      </trkpt>
      <trkpt lat="29.35299000" lon="82.96680000">
        <ele>4385.0000</ele>
        <time>2010-01-01T00:00:48Z</time>
      </trkpt>
      <trkpt lat="29.35310000" lon="82.96683000">
        <ele>4389.0000</ele>
        <time>2010-01-01T00:00:53Z</time>
      </trkpt>
      <trkpt lat="29.35304000" lon="82.96697000">
        <ele>4391.0000</ele>
        <time>2010-01-01T00:00:58Z</time>
      </trkpt>
      <trkpt lat="29.35306000" lon="82.96709000">
        <ele>4394.0000</ele>
        <time>2010-01-01T00:01:03Z</time>
      </trkpt>
      <trkpt lat="29.35316000" lon="82.96712000">
        <ele>4398.0000</ele>
        <time>2010-01-01T00:01:07Z</time>
      </trkpt>
      <trkpt lat="29.35310000" lon="82.96730000">
        <ele>4401.0000</ele>
        <time>2010-01-01T00:01:14Z</time>
      </trkpt>
      <trkpt lat="29.35313000" lon="82.96736000">
        <ele>4403.0000</ele>
        <time>2010-01-01T00:01:16Z</time>
      </trkpt>
      <trkpt lat="29.35306000" lon="82.96746000">
        <ele>4405.0000</ele>
        <time>2010-01-01T00:01:20Z</time>
      </trkpt>
      <trkpt lat="29.35309000" lon="82.96752000">
        <ele>4408.0000</ele>
        <time>2010-01-01T00:01:23Z</time>
      </trkpt>
      <trkpt lat="29.35306000" lon="82.96759000">
        <ele>4409.0000</ele>
        <time>2010-01-01T00:01:26Z</time>
      </trkpt>
      <trkpt lat="29.35310000" lon="82.96772000">
        <ele>4413.0000</ele>
        <time>2010-01-01T00:01:30Z</time>
      </trkpt>
      <trkpt lat="29.35315000" lon="82.96778000">
        <ele>4415.0000</ele>
        <time>2010-01-01T00:01:33Z</time>
      </trkpt>
      <trkpt lat="29.35320000" lon="82.96791000">
        <ele>4419.0000</ele>
        <time>2010-01-01T00:01:38Z</time>
      </trkpt>
      <trkpt lat="29.35317000" lon="82.96802000">
        <ele>4421.0000</ele>
        <time>2010-01-01T00:01:42Z</time>
      </trkpt>
      <trkpt lat="29.35320000" lon="82.96814000">
        <ele>4424.0000</ele>
        <time>2010-01-01T00:01:47Z</time>
      </trkpt>
      <trkpt lat="29.35325000" lon="82.96823000">
        <ele>4428.0000</ele>
        <time>2010-01-01T00:01:50Z</time>
      </trkpt>
      <trkpt lat="29.35320000" lon="82.96826000">
        <ele>4428.0000</ele>
        <time>2010-01-01T00:01:53Z</time>
      </trkpt>
      <trkpt lat="29.35323000" lon="82.96831000">
        <ele>4429.0000</ele>
        <time>2010-01-01T00:01:55Z</time>
      </trkpt>
      <trkpt lat="29.35319000" lon="82.96838000">
        <ele>4432.0000</ele>
        <time>2010-01-01T00:01:58Z</time>
      </trkpt>
      <trkpt lat="29.35355000" lon="82.96862000">
        <ele>4447.0000</ele>
        <time>2010-01-01T00:02:14Z</time>
      </trkpt>
      <trkpt lat="29.35377000" lon="82.96881000">
        <ele>4455.0000</ele>
        <time>2010-01-01T00:02:25Z</time>
      </trkpt>
      <trkpt lat="29.35389000" lon="82.96894000">
        <ele>4460.0000</ele>
        <time>2010-01-01T00:02:32Z</time>
      </trkpt>
      <trkpt lat="29.35395000" lon="82.96903000">
        <ele>4464.0000</ele>
        <time>2010-01-01T00:02:36Z</time>
      </trkpt>
      <trkpt lat="29.35400000" lon="82.96906000">
        <ele>4466.0000</ele>
        <time>2010-01-01T00:02:38Z</time>
      </trkpt>
      <trkpt lat="29.35398000" lon="82.96921000">
        <ele>4470.0000</ele>
        <time>2010-01-01T00:02:43Z</time>
      </trkpt>
      <trkpt lat="29.35402000" lon="82.96928000">
        <ele>4473.0000</ele>
        <time>2010-01-01T00:02:46Z</time>
      </trkpt>
      <trkpt lat="29.35409000" lon="82.96930000">
        <ele>4476.0000</ele>
        <time>2010-01-01T00:02:49Z</time>
      </trkpt>
      <trkpt lat="29.35415000" lon="82.96934000">
        <ele>4480.0000</ele>
        <time>2010-01-01T00:02:52Z</time>
      </trkpt>
      <trkpt lat="29.35415000" lon="82.96941000">
        <ele>4482.0000</ele>
        <time>2010-01-01T00:02:54Z</time>
      </trkpt>
      <trkpt lat="29.35421000" lon="82.96948000">
        <ele>4486.0000</ele>
        <time>2010-01-01T00:02:58Z</time>
      </trkpt>
      <trkpt lat="29.35428000" lon="82.96950000">
        <ele>4490.0000</ele>
        <time>2010-01-01T00:03:01Z</time>
      </trkpt>
      <trkpt lat="29.35430000" lon="82.96956000">
        <ele>4492.0000</ele>
        <time>2010-01-01T00:03:03Z</time>
      </trkpt>
      <trkpt lat="29.35438000" lon="82.96957000">
        <ele>4495.0000</ele>
        <time>2010-01-01T00:03:06Z</time>
      </trkpt>
      <trkpt lat="29.35447000" lon="82.96954000">
        <ele>4498.0000</ele>
        <time>2010-01-01T00:03:10Z</time>
      </trkpt>
      <trkpt lat="29.35452000" lon="82.96949000">
        <ele>4498.0000</ele>
        <time>2010-01-01T00:03:13Z</time>
      </trkpt>
      <trkpt lat="29.35457000" lon="82.96951000">
        <ele>4500.0000</ele>
        <time>2010-01-01T00:03:15Z</time>
      </trkpt>
      <trkpt lat="29.35471000" lon="82.96936000">
        <ele>4501.0000</ele>
        <time>2010-01-01T00:03:22Z</time>
      </trkpt>
      <trkpt lat="29.35494000" lon="82.96922000">
        <ele>4507.0000</ele>
        <time>2010-01-01T00:03:33Z</time>
      </trkpt>
      <trkpt lat="29.35507000" lon="82.96907000">
        <ele>4508.0000</ele>
        <time>2010-01-01T00:03:40Z</time>
      </trkpt>
      <trkpt lat="29.35531000" lon="82.96891000">
        <ele>4513.0000</ele>
        <time>2010-01-01T00:03:51Z</time>
      </trkpt>
      <trkpt lat="29.35534000" lon="82.96894000">
        <ele>4515.0000</ele>
        <time>2010-01-01T00:03:53Z</time>
      </trkpt>
      <trkpt lat="29.35548000" lon="82.96884000">
        <ele>4518.0000</ele>
        <time>2010-01-01T00:04:00Z</time>
      </trkpt>
      <trkpt lat="29.35563000" lon="82.96880000">
        <ele>4523.0000</ele>
        <time>2010-01-01T00:04:06Z</time>
      </trkpt>
      <trkpt lat="29.35587000" lon="82.96864000">
        <ele>4530.0000</ele>
        <time>2010-01-01T00:04:17Z</time>
      </trkpt>
      <trkpt lat="29.35600000" lon="82.96859000">
        <ele>4534.0000</ele>
        <time>2010-01-01T00:04:22Z</time>
      </trkpt>
      <trkpt lat="29.35613000" lon="82.96846000">
        <ele>4535.0000</ele>
        <time>2010-01-01T00:04:29Z</time>
      </trkpt>
      <trkpt lat="29.35642000" lon="82.96831000">
        <ele>4538.0000</ele>
        <time>2010-01-01T00:04:42Z</time>
      </trkpt>
      <trkpt lat="29.35671000" lon="82.96828000">
        <ele>4545.0000</ele>
        <time>2010-01-01T00:04:54Z</time>
      </trkpt>
      <trkpt lat="29.35733000" lon="82.96812000">
        <ele>4557.0000</ele>
        <time>2010-01-01T00:05:19Z</time>
      </trkpt>
      <trkpt lat="29.35764000" lon="82.96803000">
        <ele>4563.0000</ele>
        <time>2010-01-01T00:05:32Z</time>
      </trkpt>
      <trkpt lat="29.35776000" lon="82.96795000">
        <ele>4564.0000</ele>
        <time>2010-01-01T00:05:37Z</time>
      </trkpt>
      <trkpt lat="29.35799000" lon="82.96793000">
        <ele>4570.0000</ele>
        <time>2010-01-01T00:05:47Z</time>
      </trkpt>
      <trkpt lat="29.35834000" lon="82.96786000">
        <ele>4577.0000</ele>
        <time>2010-01-01T00:06:01Z</time>
      </trkpt>
      <trkpt lat="29.35859000" lon="82.96775000">
        <ele>4580.0000</ele>
        <time>2010-01-01T00:06:12Z</time>
      </trkpt>
      <trkpt lat="29.35891000" lon="82.96768000">
        <ele>4591.0000</ele>
        <time>2010-01-01T00:06:25Z</time>
      </trkpt>
      <trkpt lat="29.35921000" lon="82.96752000">
        <ele>4597.0000</ele>
        <time>2010-01-01T00:06:38Z</time>
      </trkpt>
      <trkpt lat="29.35944000" lon="82.96745000">
        <ele>4598.0000</ele>
        <time>2010-01-01T00:06:47Z</time>
      </trkpt>
      <trkpt lat="29.35967000" lon="82.96741000">
        <ele>4603.0000</ele>
        <time>2010-01-01T00:06:57Z</time>
      </trkpt>
      <trkpt lat="29.35981000" lon="82.96729000">
        <ele>4604.0000</ele>
        <time>2010-01-01T00:07:04Z</time>
      </trkpt>
      <trkpt lat="29.35988000" lon="82.96740000">
        <ele>4609.0000</ele>
        <time>2010-01-01T00:07:08Z</time>
      </trkpt>
      <trkpt lat="29.35993000" lon="82.96739000">
        <ele>4610.0000</ele>
        <time>2010-01-01T00:07:10Z</time>
      </trkpt>
      <trkpt lat="29.36002000" lon="82.96734000">
        <ele>4611.0000</ele>
        <time>2010-01-01T00:07:14Z</time>
      </trkpt>
      <trkpt lat="29.36019000" lon="82.96740000">
        <ele>4615.0000</ele>
        <time>2010-01-01T00:07:22Z</time>
      </trkpt>
      <trkpt lat="29.36027000" lon="82.96766000">
        <ele>4618.0000</ele>
        <time>2010-01-01T00:07:31Z</time>
      </trkpt>
      <trkpt lat="29.36035000" lon="82.96803000">
        <ele>4622.0000</ele>
        <time>2010-01-01T00:07:45Z</time>
      </trkpt>
      <trkpt lat="29.36045000" lon="82.96824000">
        <ele>4624.0000</ele>
        <time>2010-01-01T00:07:53Z</time>
      </trkpt>
      <trkpt lat="29.36057000" lon="82.96849000">
        <ele>4628.0000</ele>
        <time>2010-01-01T00:08:03Z</time>
      </trkpt>
      <trkpt lat="29.36073000" lon="82.96866000">
        <ele>4628.0000</ele>
        <time>2010-01-01T00:08:12Z</time>
      </trkpt>
      <trkpt lat="29.36087000" lon="82.96877000">
        <ele>4626.0000</ele>
        <time>2010-01-01T00:08:18Z</time>
      </trkpt>
      <trkpt lat="29.36092000" lon="82.96892000">
        <ele>4631.0000</ele>
        <time>2010-01-01T00:08:24Z</time>
      </trkpt>
      <trkpt lat="29.36092000" lon="82.96910000">
        <ele>4638.0000</ele>
        <time>2010-01-01T00:08:30Z</time>
      </trkpt>
      <trkpt lat="29.36094000" lon="82.96928000">
        <ele>4644.0000</ele>
        <time>2010-01-01T00:08:37Z</time>
      </trkpt>
      <trkpt lat="29.36103000" lon="82.96940000">
        <ele>4644.0000</ele>
        <time>2010-01-01T00:08:42Z</time>
      </trkpt>
      <trkpt lat="29.36123000" lon="82.96960000">
        <ele>4642.0000</ele>
        <time>2010-01-01T00:08:53Z</time>
      </trkpt>
      <trkpt lat="29.36140000" lon="82.96984000">
        <ele>4647.0000</ele>
        <time>2010-01-01T00:09:04Z</time>
      </trkpt>
      <trkpt lat="29.36158000" lon="82.96991000">
        <ele>4644.0000</ele>
        <time>2010-01-01T00:09:11Z</time>
      </trkpt>
      <trkpt lat="29.36166000" lon="82.96992000">
        <ele>4642.0000</ele>
        <time>2010-01-01T00:09:14Z</time>
      </trkpt>
      <trkpt lat="29.36176000" lon="82.97000000">
        <ele>4642.0000</ele>
        <time>2010-01-01T00:09:19Z</time>
      </trkpt>
      <trkpt lat="29.36181000" lon="82.97008000">
        <ele>4644.0000</ele>
        <time>2010-01-01T00:09:23Z</time>
      </trkpt>
      <trkpt lat="29.36188000" lon="82.97016000">
        <ele>4644.0000</ele>
        <time>2010-01-01T00:09:27Z</time>
      </trkpt>
      <trkpt lat="29.36213000" lon="82.97051000">
        <ele>4644.0000</ele>
        <time>2010-01-01T00:09:42Z</time>
      </trkpt>
      <trkpt lat="29.36226000" lon="82.97073000">
        <ele>4645.0000</ele>
        <time>2010-01-01T00:09:52Z</time>
      </trkpt>
      <trkpt lat="29.36242000" lon="82.97094000">
        <ele>4645.0000</ele>
        <time>2010-01-01T00:10:01Z</time>
      </trkpt>
      <trkpt lat="29.36253000" lon="82.97121000">
        <ele>4656.0000</ele>
        <time>2010-01-01T00:10:12Z</time>
      </trkpt>
      <trkpt lat="29.36262000" lon="82.97132000">
        <ele>4654.0000</ele>
        <time>2010-01-01T00:10:17Z</time>
      </trkpt>
      <trkpt lat="29.36270000" lon="82.97175000">
        <ele>4668.0000</ele>
        <time>2010-01-01T00:10:32Z</time>
      </trkpt>
      <trkpt lat="29.36286000" lon="82.97193000">
        <ele>4671.0000</ele>
        <time>2010-01-01T00:10:41Z</time>
      </trkpt>
      <trkpt lat="29.36302000" lon="82.97216000">
        <ele>4682.0000</ele>
        <time>2010-01-01T00:10:52Z</time>
      </trkpt>
      <trkpt lat="29.36341000" lon="82.97250000">
        <ele>4685.0000</ele>
        <time>2010-01-01T00:11:11Z</time>
      </trkpt>
      <trkpt lat="29.36354000" lon="82.97263000">
        <ele>4683.0000</ele>
        <time>2010-01-01T00:11:18Z</time>
      </trkpt>
      <trkpt lat="29.36362000" lon="82.97278000">
        <ele>4684.0000</ele>
        <time>2010-01-01T00:11:24Z</time>
      </trkpt>
      <trkpt lat="29.36375000" lon="82.97302000">
        <ele>4681.0000</ele>
        <time>2010-01-01T00:11:34Z</time>
      </trkpt>
      <trkpt lat="29.36401000" lon="82.97362000">
        <ele>4688.0000</ele>
        <time>2010-01-01T00:11:58Z</time>
      </trkpt>
      <trkpt lat="29.36414000" lon="82.97414000">
        <ele>4695.0000</ele>
        <time>2010-01-01T00:12:16Z</time>
      </trkpt>
      <trkpt lat="29.36423000" lon="82.97457000">
        <ele>4708.0000</ele>
        <time>2010-01-01T00:12:32Z</time>
      </trkpt>
      <trkpt lat="29.36428000" lon="82.97495000">
        <ele>4713.0000</ele>
        <time>2010-01-01T00:12:45Z</time>
      </trkpt>
      <trkpt lat="29.36437000" lon="82.97525000">
        <ele>4716.0000</ele>
        <time>2010-01-01T00:12:56Z</time>
      </trkpt>
      <trkpt lat="29.36456000" lon="82.97546000">
        <ele>4720.0000</ele>
        <time>2010-01-01T00:13:07Z</time>
      </trkpt>
      <trkpt lat="29.36469000" lon="82.97564000">
        <ele>4725.0000</ele>
        <time>2010-01-01T00:13:15Z</time>
      </trkpt>
      <trkpt lat="29.36479000" lon="82.97570000">
        <ele>4728.0000</ele>
        <time>2010-01-01T00:13:20Z</time>
      </trkpt>
      <trkpt lat="29.36487000" lon="82.97567000">
        <ele>4729.0000</ele>
        <time>2010-01-01T00:13:23Z</time>
      </trkpt>
      <trkpt lat="29.36497000" lon="82.97545000">
        <ele>4727.0000</ele>
        <time>2010-01-01T00:13:32Z</time>
      </trkpt>
      <trkpt lat="29.36525000" lon="82.97494000">
        <ele>4737.0000</ele>
        <time>2010-01-01T00:13:53Z</time>
      </trkpt>
      <trkpt lat="29.36525000" lon="82.97475000">
        <ele>4736.0000</ele>
        <time>2010-01-01T00:13:59Z</time>
      </trkpt>
      <trkpt lat="29.36533000" lon="82.97463000">
        <ele>4740.0000</ele>
        <time>2010-01-01T00:14:04Z</time>
      </trkpt>
      <trkpt lat="29.36552000" lon="82.97442000">
        <ele>4750.0000</ele>
        <time>2010-01-01T00:14:15Z</time>
      </trkpt>
      <trkpt lat="29.36569000" lon="82.97414000">
        <ele>4757.0000</ele>
        <time>2010-01-01T00:14:27Z</time>
      </trkpt>
      <trkpt lat="29.36617000" lon="82.97292000">
        <ele>4782.0000</ele>
        <time>2010-01-01T00:15:14Z</time>
      </trkpt>
      <trkpt lat="29.36674000" lon="82.97208000">
        <ele>4794.0000</ele>
        <time>2010-01-01T00:15:51Z</time>
      </trkpt>
      <trkpt lat="29.36679000" lon="82.97178000">
        <ele>4793.0000</ele>
        <time>2010-01-01T00:16:01Z</time>
      </trkpt>
      <trkpt lat="29.36687000" lon="82.97163000">
        <ele>4795.0000</ele>
        <time>2010-01-01T00:16:08Z</time>
      </trkpt>
      <trkpt lat="29.36700000" lon="82.97151000">
        <ele>4800.0000</ele>
        <time>2010-01-01T00:16:14Z</time>
      </trkpt>
      <trkpt lat="29.36726000" lon="82.97133000">
        <ele>4809.0000</ele>
        <time>2010-01-01T00:16:26Z</time>
      </trkpt>
      <trkpt lat="29.36757000" lon="82.97121000">
        <ele>4820.0000</ele>
        <time>2010-01-01T00:16:40Z</time>
      </trkpt>
      <trkpt lat="29.36782000" lon="82.97106000">
        <ele>4828.0000</ele>
        <time>2010-01-01T00:16:51Z</time>
      </trkpt>
      <trkpt lat="29.36806000" lon="82.97093000">
        <ele>4837.0000</ele>
        <time>2010-01-01T00:17:01Z</time>
      </trkpt>
      <trkpt lat="29.36846000" lon="82.97075000">
        <ele>4847.0000</ele>
        <time>2010-01-01T00:17:19Z</time>
      </trkpt>
      <trkpt lat="29.36857000" lon="82.97078000">
        <ele>4851.0000</ele>
        <time>2010-01-01T00:17:23Z</time>
      </trkpt>
      <trkpt lat="29.36869000" lon="82.97075000">
        <ele>4852.0000</ele>
        <time>2010-01-01T00:17:28Z</time>
      </trkpt>
      <trkpt lat="29.36875000" lon="82.97075000">
        <ele>4854.0000</ele>
        <time>2010-01-01T00:17:30Z</time>
      </trkpt>
      <trkpt lat="29.36881000" lon="82.97086000">
        <ele>4856.0000</ele>
        <time>2010-01-01T00:17:35Z</time>
      </trkpt>
      <trkpt lat="29.36902000" lon="82.97113000">
        <ele>4859.0000</ele>
        <time>2010-01-01T00:17:48Z</time>
      </trkpt>
      <trkpt lat="29.36917000" lon="82.97128000">
        <ele>4862.0000</ele>
        <time>2010-01-01T00:17:56Z</time>
      </trkpt>
      <trkpt lat="29.36965000" lon="82.97146000">
        <ele>4861.0000</ele>
        <time>2010-01-01T00:18:16Z</time>
      </trkpt>
      <trkpt lat="29.36982000" lon="82.97159000">
        <ele>4862.0000</ele>
        <time>2010-01-01T00:18:24Z</time>
      </trkpt>
      <trkpt lat="29.36985000" lon="82.97166000">
        <ele>4864.0000</ele>
        <time>2010-01-01T00:18:27Z</time>
      </trkpt>
      <trkpt lat="29.37000000" lon="82.97177000">
        <ele>4859.0000</ele>
        <time>2010-01-01T00:18:34Z</time>
      </trkpt>
      <trkpt lat="29.37033000" lon="82.97182000">
        <ele>4847.0000</ele>
        <time>2010-01-01T00:18:47Z</time>
      </trkpt>
      <trkpt lat="29.37046000" lon="82.97185000">
        <ele>4845.0000</ele>
        <time>2010-01-01T00:18:52Z</time>
      </trkpt>
      <trkpt lat="29.37063000" lon="82.97200000">
        <ele>4845.0000</ele>
        <time>2010-01-01T00:19:01Z</time>
      </trkpt>
      <trkpt lat="29.37081000" lon="82.97212000">
        <ele>4844.0000</ele>
        <time>2010-01-01T00:19:09Z</time>
      </trkpt>
      <trkpt lat="29.37110000" lon="82.97208000">
        <ele>4829.0000</ele>
        <time>2010-01-01T00:19:21Z</time>
      </trkpt>
      <trkpt lat="29.37125000" lon="82.97214000">
        <ele>4834.0000</ele>
        <time>2010-01-01T00:19:27Z</time>
      </trkpt>
      <trkpt lat="29.37144000" lon="82.97237000">
        <ele>4849.0000</ele>
        <time>2010-01-01T00:19:38Z</time>
      </trkpt>
      <trkpt lat="29.37172000" lon="82.97214000">
        <ele>4832.0000</ele>
        <time>2010-01-01T00:19:52Z</time>
      </trkpt>
      <trkpt lat="29.37200000" lon="82.97204000">
        <ele>4829.0000</ele>
        <time>2010-01-01T00:20:04Z</time>
      </trkpt>
      <trkpt lat="29.37210000" lon="82.97204000">
        <ele>4831.0000</ele>
        <time>2010-01-01T00:20:08Z</time>
      </trkpt>
      <trkpt lat="29.37236000" lon="82.97208000">
        <ele>4836.0000</ele>
        <time>2010-01-01T00:20:19Z</time>
      </trkpt>
      <trkpt lat="29.37265000" lon="82.97212000">
        <ele>4839.0000</ele>
        <time>2010-01-01T00:20:30Z</time>
      </trkpt>
      <trkpt lat="29.37285000" lon="82.97208000">
        <ele>4840.0000</ele>
        <time>2010-01-01T00:20:38Z</time>
      </trkpt>
      <trkpt lat="29.37300000" lon="82.97203000">
        <ele>4840.0000</ele>
        <time>2010-01-01T00:20:45Z</time>
      </trkpt>
      <trkpt lat="29.37335000" lon="82.97208000">
        <ele>4846.0000</ele>
        <time>2010-01-01T00:20:59Z</time>
      </trkpt>
      <trkpt lat="29.37347000" lon="82.97204000">
        <ele>4846.0000</ele>
        <time>2010-01-01T00:21:04Z</time>
      </trkpt>
      <trkpt lat="29.37375000" lon="82.97183000">
        <ele>4841.0000</ele>
        <time>2010-01-01T00:21:17Z</time>
      </trkpt>
      <trkpt lat="29.37432000" lon="82.97149000">
        <ele>4841.0000</ele>
        <time>2010-01-01T00:21:43Z</time>
      </trkpt>
      <trkpt lat="29.37459000" lon="82.97136000">
        <ele>4844.0000</ele>
        <time>2010-01-01T00:21:55Z</time>
      </trkpt>
      <trkpt lat="29.37475000" lon="82.97123000">
        <ele>4846.0000</ele>
        <time>2010-01-01T00:22:02Z</time>
      </trkpt>
      <trkpt lat="29.37490000" lon="82.97111000">
        <ele>4846.0000</ele>
        <time>2010-01-01T00:22:10Z</time>
      </trkpt>
      <trkpt lat="29.37569000" lon="82.97060000">
        <ele>4849.0000</ele>
        <time>2010-01-01T00:22:46Z</time>
      </trkpt>
      <trkpt lat="29.37621000" lon="82.97054000">
        <ele>4842.0000</ele>
        <time>2010-01-01T00:23:07Z</time>
      </trkpt>
      <trkpt lat="29.37671000" lon="82.97079000">
        <ele>4841.0000</ele>
        <time>2010-01-01T00:23:29Z</time>
      </trkpt>
      <trkpt lat="29.37690000" lon="82.97091000">
        <ele>4842.0000</ele>
        <time>2010-01-01T00:23:37Z</time>
      </trkpt>
      <trkpt lat="29.37697000" lon="82.97099000">
        <ele>4843.0000</ele>
        <time>2010-01-01T00:23:41Z</time>
      </trkpt>
      <trkpt lat="29.37711000" lon="82.97098000">
        <ele>4843.0000</ele>
        <time>2010-01-01T00:23:47Z</time>
      </trkpt>
      <trkpt lat="29.37823000" lon="82.97151000">
        <ele>4827.0000</ele>
        <time>2010-01-01T00:24:35Z</time>
      </trkpt>
      <trkpt lat="29.37883000" lon="82.97182000">
        <ele>4819.0000</ele>
        <time>2010-01-01T00:25:02Z</time>
      </trkpt>
      <trkpt lat="29.37906000" lon="82.97192000">
        <ele>4820.0000</ele>
        <time>2010-01-01T00:25:12Z</time>
      </trkpt>
      <trkpt lat="29.37923000" lon="82.97195000">
        <ele>4820.0000</ele>
        <time>2010-01-01T00:25:19Z</time>
      </trkpt>
      <trkpt lat="29.37951000" lon="82.97205000">
        <ele>4819.0000</ele>
        <time>2010-01-01T00:25:30Z</time>
      </trkpt>
      <trkpt lat="29.37962000" lon="82.97212000">
        <ele>4817.0000</ele>
        <time>2010-01-01T00:25:35Z</time>
      </trkpt>
      <trkpt lat="29.37968000" lon="82.97252000">
        <ele>4813.0000</ele>
        <time>2010-01-01T00:25:49Z</time>
      </trkpt>
      <trkpt lat="29.37968000" lon="82.97285000">
        <ele>4804.0000</ele>
        <time>2010-01-01T00:26:01Z</time>
      </trkpt>
      <trkpt lat="29.37972000" lon="82.97345000">
        <ele>4795.0000</ele>
        <time>2010-01-01T00:26:22Z</time>
      </trkpt>
      <trkpt lat="29.37978000" lon="82.97371000">
        <ele>4791.0000</ele>
        <time>2010-01-01T00:26:31Z</time>
      </trkpt>
      <trkpt lat="29.37980000" lon="82.97404000">
        <ele>4784.0000</ele>
        <time>2010-01-01T00:26:43Z</time>
      </trkpt>
      <trkpt lat="29.37975000" lon="82.97474000">
        <ele>4768.0000</ele>
        <time>2010-01-01T00:27:07Z</time>
      </trkpt>
      <trkpt lat="29.37978000" lon="82.97501000">
        <ele>4757.0000</ele>
        <time>2010-01-01T00:27:17Z</time>
      </trkpt>
      <trkpt lat="29.37983000" lon="82.97525000">
        <ele>4747.0000</ele>
        <time>2010-01-01T00:27:26Z</time>
      </trkpt>
      <trkpt lat="29.38002000" lon="82.97556000">
        <ele>4731.0000</ele>
        <time>2010-01-01T00:27:39Z</time>
      </trkpt>
      <trkpt lat="29.38014000" lon="82.97580000">
        <ele>4724.0000</ele>
        <time>2010-01-01T00:27:48Z</time>
      </trkpt>
      <trkpt lat="29.38028000" lon="82.97586000">
        <ele>4720.0000</ele>
        <time>2010-01-01T00:27:54Z</time>
      </trkpt>
      <trkpt lat="29.38027000" lon="82.97615000">
        <ele>4713.0000</ele>
        <time>2010-01-01T00:28:04Z</time>
      </trkpt>
      <trkpt lat="29.38035000" lon="82.97623000">
        <ele>4710.0000</ele>
        <time>2010-01-01T00:28:09Z</time>
      </trkpt>
      <trkpt lat="29.38048000" lon="82.97645000">
        <ele>4704.0000</ele>
        <time>2010-01-01T00:28:18Z</time>
      </trkpt>
      <trkpt lat="29.38051000" lon="82.97666000">
        <ele>4701.0000</ele>
        <time>2010-01-01T00:28:25Z</time>
      </trkpt>
      <trkpt lat="29.38067000" lon="82.97690000">
        <ele>4693.0000</ele>
        <time>2010-01-01T00:28:36Z</time>
      </trkpt>
      <trkpt lat="29.38077000" lon="82.97712000">
        <ele>4688.0000</ele>
        <time>2010-01-01T00:28:45Z</time>
      </trkpt>
      <trkpt lat="29.38100000" lon="82.97733000">
        <ele>4677.0000</ele>
        <time>2010-01-01T00:28:56Z</time>
      </trkpt>
      <trkpt lat="29.38108000" lon="82.97759000">
        <ele>4672.0000</ele>
        <time>2010-01-01T00:29:06Z</time>
      </trkpt>
      <trkpt lat="29.38103000" lon="82.97764000">
        <ele>4674.0000</ele>
        <time>2010-01-01T00:29:09Z</time>
      </trkpt>
      <trkpt lat="29.38107000" lon="82.97766000">
        <ele>4672.0000</ele>
        <time>2010-01-01T00:29:10Z</time>
      </trkpt>
      <trkpt lat="29.38110000" lon="82.97772000">
        <ele>4670.0000</ele>
        <time>2010-01-01T00:29:13Z</time>
      </trkpt>
      <trkpt lat="29.38113000" lon="82.97774000">
        <ele>4669.0000</ele>
        <time>2010-01-01T00:29:14Z</time>
      </trkpt>
      <trkpt lat="29.38120000" lon="82.97792000">
        <ele>4665.0000</ele>
        <time>2010-01-01T00:29:21Z</time>
      </trkpt>
      <trkpt lat="29.38121000" lon="82.97800000">
        <ele>4664.0000</ele>
        <time>2010-01-01T00:29:24Z</time>
      </trkpt>
      <trkpt lat="29.38132000" lon="82.97831000">
        <ele>4660.0000</ele>
        <time>2010-01-01T00:29:36Z</time>
      </trkpt>
      <trkpt lat="29.38140000" lon="82.97848000">
        <ele>4658.0000</ele>
        <time>2010-01-01T00:29:42Z</time>
      </trkpt>
      <trkpt lat="29.38158000" lon="82.97859000">
        <ele>4651.0000</ele>
        <time>2010-01-01T00:29:50Z</time>
      </trkpt>
      <trkpt lat="29.38178000" lon="82.97882000">
        <ele>4642.0000</ele>
        <time>2010-01-01T00:30:02Z</time>
      </trkpt>
      <trkpt lat="29.38181000" lon="82.97894000">
        <ele>4640.0000</ele>
        <time>2010-01-01T00:30:06Z</time>
      </trkpt>
      <trkpt lat="29.38196000" lon="82.97913000">
        <ele>4635.0000</ele>
        <time>2010-01-01T00:30:15Z</time>
      </trkpt>
      <trkpt lat="29.38211000" lon="82.97924000">
        <ele>4630.0000</ele>
        <time>2010-01-01T00:30:22Z</time>
      </trkpt>
      <trkpt lat="29.38222000" lon="82.97928000">
        <ele>4627.0000</ele>
        <time>2010-01-01T00:30:27Z</time>
      </trkpt>
      <trkpt lat="29.38230000" lon="82.97934000">
        <ele>4624.0000</ele>
        <time>2010-01-01T00:30:31Z</time>
      </trkpt>
      <trkpt lat="29.38239000" lon="82.97938000">
        <ele>4620.0000</ele>
        <time>2010-01-01T00:30:35Z</time>
      </trkpt>
      <trkpt lat="29.38247000" lon="82.97935000">
        <ele>4618.0000</ele>
        <time>2010-01-01T00:30:38Z</time>
      </trkpt>
      <trkpt lat="29.38257000" lon="82.97939000">
        <ele>4614.0000</ele>
        <time>2010-01-01T00:30:42Z</time>
      </trkpt>
      <trkpt lat="29.38262000" lon="82.97947000">
        <ele>4612.0000</ele>
        <time>2010-01-01T00:30:46Z</time>
      </trkpt>
      <trkpt lat="29.38300000" lon="82.97961000">
        <ele>4600.0000</ele>
        <time>2010-01-01T00:31:02Z</time>
      </trkpt>
      <trkpt lat="29.38313000" lon="82.97973000">
        <ele>4596.0000</ele>
        <time>2010-01-01T00:31:08Z</time>
      </trkpt>
      <trkpt lat="29.38327000" lon="82.97976000">
        <ele>4590.0000</ele>
        <time>2010-01-01T00:31:14Z</time>
      </trkpt>
      <trkpt lat="29.38362000" lon="82.97990000">
        <ele>4574.0000</ele>
        <time>2010-01-01T00:31:29Z</time>
      </trkpt>
      <trkpt lat="29.38381000" lon="82.97986000">
        <ele>4569.0000</ele>
        <time>2010-01-01T00:31:37Z</time>
      </trkpt>
      <trkpt lat="29.38394000" lon="82.97989000">
        <ele>4565.0000</ele>
        <time>2010-01-01T00:31:42Z</time>
      </trkpt>
      <trkpt lat="29.38432000" lon="82.97986000">
        <ele>4557.0000</ele>
        <time>2010-01-01T00:31:57Z</time>
      </trkpt>
      <trkpt lat="29.38433000" lon="82.97994000">
        <ele>4555.0000</ele>
        <time>2010-01-01T00:32:00Z</time>
      </trkpt>
      <trkpt lat="29.38460000" lon="82.98009000">
        <ele>4545.0000</ele>
        <time>2010-01-01T00:32:12Z</time>
      </trkpt>
      <trkpt lat="29.38513000" lon="82.98018000">
        <ele>4528.0000</ele>
        <time>2010-01-01T00:32:33Z</time>
      </trkpt>
      <trkpt lat="29.38535000" lon="82.98041000">
        <ele>4519.0000</ele>
        <time>2010-01-01T00:32:45Z</time>
      </trkpt>
      <trkpt lat="29.38539000" lon="82.98050000">
        <ele>4517.0000</ele>
        <time>2010-01-01T00:32:49Z</time>
      </trkpt>
      <trkpt lat="29.38539000" lon="82.98072000">
        <ele>4515.0000</ele>
        <time>2010-01-01T00:32:56Z</time>
      </trkpt>
      <trkpt lat="29.38536000" lon="82.98080000">
        <ele>4515.0000</ele>
        <time>2010-01-01T00:32:59Z</time>
      </trkpt>
      <trkpt lat="29.38583000" lon="82.98090000">
        <ele>4505.0000</ele>
        <time>2010-01-01T00:33:19Z</time>
      </trkpt>
      <trkpt lat="29.38616000" lon="82.98083000">
        <ele>4508.0000</ele>
        <time>2010-01-01T00:33:32Z</time>
      </trkpt>
      <trkpt lat="29.38626000" lon="82.98074000">
        <ele>4510.0000</ele>
        <time>2010-01-01T00:33:37Z</time>
      </trkpt>
      <trkpt lat="29.38632000" lon="82.98062000">
        <ele>4510.0000</ele>
        <time>2010-01-01T00:33:42Z</time>
      </trkpt>
      <trkpt lat="29.38638000" lon="82.98061000">
        <ele>4511.0000</ele>
        <time>2010-01-01T00:33:44Z</time>
      </trkpt>
      <trkpt lat="29.38649000" lon="82.98052000">
        <ele>4512.0000</ele>
        <time>2010-01-01T00:33:50Z</time>
      </trkpt>
      <trkpt lat="29.38663000" lon="82.98047000">
        <ele>4514.0000</ele>
        <time>2010-01-01T00:33:56Z</time>
      </trkpt>
      <trkpt lat="29.38692000" lon="82.98046000">
        <ele>4518.0000</ele>
        <time>2010-01-01T00:34:07Z</time>
      </trkpt>
      <trkpt lat="29.38713000" lon="82.98019000">
        <ele>4519.0000</ele>
        <time>2010-01-01T00:34:20Z</time>
      </trkpt>
      <trkpt lat="29.38810000" lon="82.97946000">
        <ele>4528.0000</ele>
        <time>2010-01-01T00:35:06Z</time>
      </trkpt>
      <trkpt lat="29.38834000" lon="82.97909000">
        <ele>4519.0000</ele>
        <time>2010-01-01T00:35:22Z</time>
      </trkpt>
      <trkpt lat="29.38851000" lon="82.97891000">
        <ele>4518.0000</ele>
        <time>2010-01-01T00:35:32Z</time>
      </trkpt>
      <trkpt lat="29.38891000" lon="82.97866000">
        <ele>4515.0000</ele>
        <time>2010-01-01T00:35:50Z</time>
      </trkpt>
      <trkpt lat="29.38901000" lon="82.97841000">
        <ele>4513.0000</ele>
        <time>2010-01-01T00:36:00Z</time>
      </trkpt>
      <trkpt lat="29.38916000" lon="82.97817000">
        <ele>4509.0000</ele>
        <time>2010-01-01T00:36:10Z</time>
      </trkpt>
      <trkpt lat="29.38951000" lon="82.97778000">
        <ele>4500.0000</ele>
        <time>2010-01-01T00:36:29Z</time>
      </trkpt>
      <trkpt lat="29.38976000" lon="82.97755000">
        <ele>4495.0000</ele>
        <time>2010-01-01T00:36:42Z</time>
      </trkpt>
      <trkpt lat="29.38989000" lon="82.97746000">
        <ele>4495.0000</ele>
        <time>2010-01-01T00:36:48Z</time>
      </trkpt>
      <trkpt lat="29.39019000" lon="82.97723000">
        <ele>4495.0000</ele>
        <time>2010-01-01T00:37:03Z</time>
      </trkpt>
      <trkpt lat="29.39044000" lon="82.97675000">
        <ele>4488.0000</ele>
        <time>2010-01-01T00:37:22Z</time>
      </trkpt>
      <trkpt lat="29.39050000" lon="82.97655000">
        <ele>4486.0000</ele>
        <time>2010-01-01T00:37:30Z</time>
      </trkpt>
      <trkpt lat="29.39058000" lon="82.97602000">
        <ele>4479.0000</ele>
        <time>2010-01-01T00:37:48Z</time>
      </trkpt>
      <trkpt lat="29.39060000" lon="82.97575000">
        <ele>4474.0000</ele>
        <time>2010-01-01T00:37:58Z</time>
      </trkpt>
      <trkpt lat="29.39064000" lon="82.97568000">
        <ele>4474.0000</ele>
        <time>2010-01-01T00:38:01Z</time>
      </trkpt>
      <trkpt lat="29.39075000" lon="82.97552000">
        <ele>4474.0000</ele>
        <time>2010-01-01T00:38:08Z</time>
      </trkpt>
      <trkpt lat="29.39082000" lon="82.97549000">
        <ele>4476.0000</ele>
        <time>2010-01-01T00:38:11Z</time>
      </trkpt>
      <trkpt lat="29.39087000" lon="82.97542000">
        <ele>4475.0000</ele>
        <time>2010-01-01T00:38:14Z</time>
      </trkpt>
      <trkpt lat="29.39095000" lon="82.97538000">
        <ele>4476.0000</ele>
        <time>2010-01-01T00:38:17Z</time>
      </trkpt>
      <trkpt lat="29.39102000" lon="82.97526000">
        <ele>4474.0000</ele>
        <time>2010-01-01T00:38:23Z</time>
      </trkpt>
      <trkpt lat="29.39131000" lon="82.97491000">
        <ele>4470.0000</ele>
        <time>2010-01-01T00:38:39Z</time>
      </trkpt>
      <trkpt lat="29.39145000" lon="82.97480000">
        <ele>4471.0000</ele>
        <time>2010-01-01T00:38:46Z</time>
      </trkpt>
      <trkpt lat="29.39164000" lon="82.97471000">
        <ele>4473.0000</ele>
        <time>2010-01-01T00:38:54Z</time>
      </trkpt>
      <trkpt lat="29.39179000" lon="82.97475000">
        <ele>4474.0000</ele>
        <time>2010-01-01T00:39:01Z</time>
      </trkpt>
      <trkpt lat="29.39185000" lon="82.97473000">
        <ele>4473.0000</ele>
        <time>2010-01-01T00:39:03Z</time>
      </trkpt>
      <trkpt lat="29.39188000" lon="82.97469000">
        <ele>4472.0000</ele>
        <time>2010-01-01T00:39:05Z</time>
      </trkpt>
      <trkpt lat="29.39187000" lon="82.97452000">
        <ele>4471.0000</ele>
        <time>2010-01-01T00:39:11Z</time>
      </trkpt>
      <trkpt lat="29.39193000" lon="82.97437000">
        <ele>4471.0000</ele>
        <time>2010-01-01T00:39:17Z</time>
      </trkpt>
      <trkpt lat="29.39200000" lon="82.97410000">
        <ele>4475.0000</ele>
        <time>2010-01-01T00:39:26Z</time>
      </trkpt>
      <trkpt lat="29.39209000" lon="82.97397000">
        <ele>4479.0000</ele>
        <time>2010-01-01T00:39:32Z</time>
      </trkpt>
      <trkpt lat="29.39204000" lon="82.97385000">
        <ele>4480.0000</ele>
        <time>2010-01-01T00:39:37Z</time>
      </trkpt>
      <trkpt lat="29.39218000" lon="82.97359000">
        <ele>4486.0000</ele>
        <time>2010-01-01T00:39:47Z</time>
      </trkpt>
      <trkpt lat="29.39220000" lon="82.97349000">
        <ele>4488.0000</ele>
        <time>2010-01-01T00:39:51Z</time>
      </trkpt>
      <trkpt lat="29.39231000" lon="82.97326000">
        <ele>4492.0000</ele>
        <time>2010-01-01T00:40:00Z</time>
      </trkpt>
      <trkpt lat="29.39243000" lon="82.97314000">
        <ele>4495.0000</ele>
        <time>2010-01-01T00:40:07Z</time>
      </trkpt>
      <trkpt lat="29.39246000" lon="82.97302000">
        <ele>4497.0000</ele>
        <time>2010-01-01T00:40:11Z</time>
      </trkpt>
      <trkpt lat="29.39259000" lon="82.97289000">
        <ele>4502.0000</ele>
        <time>2010-01-01T00:40:18Z</time>
      </trkpt>
      <trkpt lat="29.39260000" lon="82.97283000">
        <ele>4504.0000</ele>
        <time>2010-01-01T00:40:20Z</time>
      </trkpt>
      <trkpt lat="29.39265000" lon="82.97272000">
        <ele>4508.0000</ele>
        <time>2010-01-01T00:40:24Z</time>
      </trkpt>
      <trkpt lat="29.39261000" lon="82.97251000">
        <ele>4516.0000</ele>
        <time>2010-01-01T00:40:32Z</time>
      </trkpt>
      <trkpt lat="29.39271000" lon="82.97234000">
        <ele>4520.0000</ele>
        <time>2010-01-01T00:40:39Z</time>
      </trkpt>
      <trkpt lat="29.39272000" lon="82.97207000">
        <ele>4527.0000</ele>
        <time>2010-01-01T00:40:48Z</time>
      </trkpt>
      <trkpt lat="29.39270000" lon="82.97199000">
        <ele>4529.0000</ele>
        <time>2010-01-01T00:40:51Z</time>
      </trkpt>
      <trkpt lat="29.39272000" lon="82.97189000">
        <ele>4531.0000</ele>
        <time>2010-01-01T00:40:55Z</time>
      </trkpt>
      <trkpt lat="29.39267000" lon="82.97171000">
        <ele>4534.0000</ele>
        <time>2010-01-01T00:41:01Z</time>
      </trkpt>
      <trkpt lat="29.39274000" lon="82.97157000">
        <ele>4537.0000</ele>
        <time>2010-01-01T00:41:07Z</time>
      </trkpt>
      <trkpt lat="29.39274000" lon="82.97138000">
        <ele>4542.0000</ele>
        <time>2010-01-01T00:41:14Z</time>
      </trkpt>
      <trkpt lat="29.39272000" lon="82.97125000">
        <ele>4547.0000</ele>
        <time>2010-01-01T00:41:18Z</time>
      </trkpt>
      <trkpt lat="29.39279000" lon="82.97112000">
        <ele>4553.0000</ele>
        <time>2010-01-01T00:41:24Z</time>
      </trkpt>
      <trkpt lat="29.39272000" lon="82.97096000">
        <ele>4558.0000</ele>
        <time>2010-01-01T00:41:30Z</time>
      </trkpt>
      <trkpt lat="29.39286000" lon="82.97045000">
        <ele>4574.0000</ele>
        <time>2010-01-01T00:41:49Z</time>
      </trkpt>
      <trkpt lat="29.39288000" lon="82.97029000">
        <ele>4578.0000</ele>
        <time>2010-01-01T00:41:54Z</time>
      </trkpt>
      <trkpt lat="29.39292000" lon="82.97024000">
        <ele>4579.0000</ele>
        <time>2010-01-01T00:41:57Z</time>
      </trkpt>
      <trkpt lat="29.39293000" lon="82.97020000">
        <ele>4580.0000</ele>
        <time>2010-01-01T00:41:58Z</time>
      </trkpt>
      <trkpt lat="29.39286000" lon="82.97012000">
        <ele>4582.0000</ele>
        <time>2010-01-01T00:42:02Z</time>
      </trkpt>
      <trkpt lat="29.39297000" lon="82.96998000">
        <ele>4586.0000</ele>
        <time>2010-01-01T00:42:09Z</time>
      </trkpt>
      <trkpt lat="29.39292000" lon="82.96992000">
        <ele>4588.0000</ele>
        <time>2010-01-01T00:42:11Z</time>
      </trkpt>
      <trkpt lat="29.39295000" lon="82.96942000">
        <ele>4605.0000</ele>
        <time>2010-01-01T00:42:29Z</time>
      </trkpt>
      <trkpt lat="29.39318000" lon="82.96924000">
        <ele>4606.0000</ele>
        <time>2010-01-01T00:42:40Z</time>
      </trkpt>
      <trkpt lat="29.39325000" lon="82.96912000">
        <ele>4610.0000</ele>
        <time>2010-01-01T00:42:45Z</time>
      </trkpt>
      <trkpt lat="29.39337000" lon="82.96904000">
        <ele>4612.0000</ele>
        <time>2010-01-01T00:42:51Z</time>
      </trkpt>
      <trkpt lat="29.39339000" lon="82.96895000">
        <ele>4615.0000</ele>
        <time>2010-01-01T00:42:54Z</time>
      </trkpt>
      <trkpt lat="29.39346000" lon="82.96892000">
        <ele>4615.0000</ele>
        <time>2010-01-01T00:42:57Z</time>
      </trkpt>
      <trkpt lat="29.39346000" lon="82.96887000">
        <ele>4617.0000</ele>
        <time>2010-01-01T00:42:59Z</time>
      </trkpt>
      <trkpt lat="29.39359000" lon="82.96870000">
        <ele>4620.0000</ele>
        <time>2010-01-01T00:43:06Z</time>
      </trkpt>
      <trkpt lat="29.39361000" lon="82.96864000">
        <ele>4622.0000</ele>
        <time>2010-01-01T00:43:09Z</time>
      </trkpt>
      <trkpt lat="29.39350000" lon="82.96848000">
        <ele>4627.0000</ele>
        <time>2010-01-01T00:43:16Z</time>
      </trkpt>
      <trkpt lat="29.39362000" lon="82.96836000">
        <ele>4630.0000</ele>
        <time>2010-01-01T00:43:22Z</time>
      </trkpt>
      <trkpt lat="29.39363000" lon="82.96829000">
        <ele>4632.0000</ele>
        <time>2010-01-01T00:43:25Z</time>
      </trkpt>
      <trkpt lat="29.39356000" lon="82.96821000">
        <ele>4634.0000</ele>
        <time>2010-01-01T00:43:29Z</time>
      </trkpt>
      <trkpt lat="29.39375000" lon="82.96794000">
        <ele>4647.0000</ele>
        <time>2010-01-01T00:43:41Z</time>
      </trkpt>
      <trkpt lat="29.39379000" lon="82.96771000">
        <ele>4657.0000</ele>
        <time>2010-01-01T00:43:49Z</time>
      </trkpt>
      <trkpt lat="29.39374000" lon="82.96755000">
        <ele>4663.0000</ele>
        <time>2010-01-01T00:43:55Z</time>
      </trkpt>
      <trkpt lat="29.39384000" lon="82.96747000">
        <ele>4664.0000</ele>
        <time>2010-01-01T00:44:00Z</time>
      </trkpt>
      <trkpt lat="29.39392000" lon="82.96729000">
        <ele>4670.0000</ele>
        <time>2010-01-01T00:44:07Z</time>
      </trkpt>
      <trkpt lat="29.39392000" lon="82.96717000">
        <ele>4673.0000</ele>
        <time>2010-01-01T00:44:11Z</time>
      </trkpt>
      <trkpt lat="29.39385000" lon="82.96701000">
        <ele>4675.0000</ele>
        <time>2010-01-01T00:44:17Z</time>
      </trkpt>
      <trkpt lat="29.39375000" lon="82.96684000">
        <ele>4679.0000</ele>
        <time>2010-01-01T00:44:24Z</time>
      </trkpt>
      <trkpt lat="29.39370000" lon="82.96667000">
        <ele>4682.0000</ele>
        <time>2010-01-01T00:44:31Z</time>
      </trkpt>
      <trkpt lat="29.39372000" lon="82.96650000">
        <ele>4687.0000</ele>
        <time>2010-01-01T00:44:37Z</time>
      </trkpt>
      <trkpt lat="29.39379000" lon="82.96638000">
        <ele>4692.0000</ele>
        <time>2010-01-01T00:44:42Z</time>
      </trkpt>
      <trkpt lat="29.39392000" lon="82.96626000">
        <ele>4699.0000</ele>
        <time>2010-01-01T00:44:48Z</time>
      </trkpt>
      <trkpt lat="29.39402000" lon="82.96633000">
        <ele>4699.0000</ele>
        <time>2010-01-01T00:44:53Z</time>
      </trkpt>
      <trkpt lat="29.39410000" lon="82.96635000">
        <ele>4701.0000</ele>
        <time>2010-01-01T00:44:56Z</time>
      </trkpt>
      <trkpt lat="29.39423000" lon="82.96634000">
        <ele>4705.0000</ele>
        <time>2010-01-01T00:45:02Z</time>
      </trkpt>
      <trkpt lat="29.39438000" lon="82.96629000">
        <ele>4711.0000</ele>
        <time>2010-01-01T00:45:08Z</time>
      </trkpt>
      <trkpt lat="29.39453000" lon="82.96615000">
        <ele>4720.0000</ele>
        <time>2010-01-01T00:45:15Z</time>
      </trkpt>
      <trkpt lat="29.39477000" lon="82.96576000">
        <ele>4735.0000</ele>
        <time>2010-01-01T00:45:32Z</time>
      </trkpt>
      <trkpt lat="29.39484000" lon="82.96550000">
        <ele>4740.0000</ele>
        <time>2010-01-01T00:45:42Z</time>
      </trkpt>
      <trkpt lat="29.39495000" lon="82.96530000">
        <ele>4744.0000</ele>
        <time>2010-01-01T00:45:50Z</time>
      </trkpt>
      <trkpt lat="29.39515000" lon="82.96507000">
        <ele>4747.0000</ele>
        <time>2010-01-01T00:46:01Z</time>
      </trkpt>
      <trkpt lat="29.39547000" lon="82.96477000">
        <ele>4739.0000</ele>
        <time>2010-01-01T00:46:18Z</time>
      </trkpt>
      <trkpt lat="29.39573000" lon="82.96465000">
        <ele>4733.0000</ele>
        <time>2010-01-01T00:46:29Z</time>
      </trkpt>
      <trkpt lat="29.39600000" lon="82.96455000">
        <ele>4725.0000</ele>
        <time>2010-01-01T00:46:40Z</time>
      </trkpt>
      <trkpt lat="29.39623000" lon="82.96451000">
        <ele>4721.0000</ele>
        <time>2010-01-01T00:46:50Z</time>
      </trkpt>
      <trkpt lat="29.39636000" lon="82.96458000">
        <ele>4723.0000</ele>
        <time>2010-01-01T00:46:55Z</time>
      </trkpt>
      <trkpt lat="29.39661000" lon="82.96453000">
        <ele>4719.0000</ele>
        <time>2010-01-01T00:47:06Z</time>
      </trkpt>
      <trkpt lat="29.39700000" lon="82.96449000">
        <ele>4719.0000</ele>
        <time>2010-01-01T00:47:21Z</time>
      </trkpt>
      <trkpt lat="29.39730000" lon="82.96450000">
        <ele>4716.0000</ele>
        <time>2010-01-01T00:47:33Z</time>
      </trkpt>
      <trkpt lat="29.39786000" lon="82.96440000">
        <ele>4707.0000</ele>
        <time>2010-01-01T00:47:56Z</time>
      </trkpt>
      <trkpt lat="29.39801000" lon="82.96430000">
        <ele>4702.0000</ele>
        <time>2010-01-01T00:48:03Z</time>
      </trkpt>
      <trkpt lat="29.39812000" lon="82.96429000">
        <ele>4702.0000</ele>
        <time>2010-01-01T00:48:07Z</time>
      </trkpt>
      <trkpt lat="29.39830000" lon="82.96411000">
        <ele>4697.0000</ele>
        <time>2010-01-01T00:48:17Z</time>
      </trkpt>
      <trkpt lat="29.39844000" lon="82.96408000">
        <ele>4700.0000</ele>
        <time>2010-01-01T00:48:23Z</time>
      </trkpt>
      <trkpt lat="29.39848000" lon="82.96402000">
        <ele>4700.0000</ele>
        <time>2010-01-01T00:48:25Z</time>
      </trkpt>
      <trkpt lat="29.39856000" lon="82.96399000">
        <ele>4702.0000</ele>
        <time>2010-01-01T00:48:29Z</time>
      </trkpt>
      <trkpt lat="29.39864000" lon="82.96387000">
        <ele>4703.0000</ele>
        <time>2010-01-01T00:48:34Z</time>
      </trkpt>
      <trkpt lat="29.39873000" lon="82.96384000">
        <ele>4705.0000</ele>
        <time>2010-01-01T00:48:38Z</time>
      </trkpt>
      <trkpt lat="29.39871000" lon="82.96375000">
        <ele>4704.0000</ele>
        <time>2010-01-01T00:48:41Z</time>
      </trkpt>
      <trkpt lat="29.39860000" lon="82.96358000">
        <ele>4700.0000</ele>
        <time>2010-01-01T00:48:48Z</time>
      </trkpt>
      <trkpt lat="29.39832000" lon="82.96328000">
        <ele>4690.0000</ele>
        <time>2010-01-01T00:49:04Z</time>
      </trkpt>
      <trkpt lat="29.39825000" lon="82.96311000">
        <ele>4692.0000</ele>
        <time>2010-01-01T00:49:10Z</time>
      </trkpt>
      <trkpt lat="29.39826000" lon="82.96304000">
        <ele>4693.0000</ele>
        <time>2010-01-01T00:49:13Z</time>
      </trkpt>
      <trkpt lat="29.39838000" lon="82.96299000">
        <ele>4700.0000</ele>
        <time>2010-01-01T00:49:18Z</time>
      </trkpt>
      <trkpt lat="29.39859000" lon="82.96281000">
        <ele>4708.0000</ele>
        <time>2010-01-01T00:49:28Z</time>
      </trkpt>
      <trkpt lat="29.39891000" lon="82.96268000">
        <ele>4720.0000</ele>
        <time>2010-01-01T00:49:42Z</time>
      </trkpt>
      <trkpt lat="29.39900000" lon="82.96259000">
        <ele>4722.0000</ele>
        <time>2010-01-01T00:49:47Z</time>
      </trkpt>
      <trkpt lat="29.39912000" lon="82.96228000">
        <ele>4722.0000</ele>
        <time>2010-01-01T00:49:58Z</time>
      </trkpt>
      <trkpt lat="29.39928000" lon="82.96206000">
        <ele>4724.0000</ele>
        <time>2010-01-01T00:50:08Z</time>
      </trkpt>
      <trkpt lat="29.39941000" lon="82.96176000">
        <ele>4724.0000</ele>
        <time>2010-01-01T00:50:20Z</time>
      </trkpt>
      <trkpt lat="29.39952000" lon="82.96168000">
        <ele>4727.0000</ele>
        <time>2010-01-01T00:50:25Z</time>
      </trkpt>
      <trkpt lat="29.39953000" lon="82.96161000">
        <ele>4727.0000</ele>
        <time>2010-01-01T00:50:28Z</time>
      </trkpt>
      <trkpt lat="29.39950000" lon="82.96153000">
        <ele>4726.0000</ele>
        <time>2010-01-01T00:50:31Z</time>
      </trkpt>
      <trkpt lat="29.39952000" lon="82.96139000">
        <ele>4727.0000</ele>
        <time>2010-01-01T00:50:36Z</time>
      </trkpt>
      <trkpt lat="29.39957000" lon="82.96127000">
        <ele>4730.0000</ele>
        <time>2010-01-01T00:50:40Z</time>
      </trkpt>
      <trkpt lat="29.39958000" lon="82.96114000">
        <ele>4733.0000</ele>
        <time>2010-01-01T00:50:45Z</time>
      </trkpt>
      <trkpt lat="29.39957000" lon="82.96110000">
        <ele>4734.0000</ele>
        <time>2010-01-01T00:50:46Z</time>
      </trkpt>
      <trkpt lat="29.39947000" lon="82.96102000">
        <ele>4733.0000</ele>
        <time>2010-01-01T00:50:51Z</time>
      </trkpt>
      <trkpt lat="29.39942000" lon="82.96083000">
        <ele>4736.0000</ele>
        <time>2010-01-01T00:50:58Z</time>
      </trkpt>
      <trkpt lat="29.39939000" lon="82.96052000">
        <ele>4740.0000</ele>
        <time>2010-01-01T00:51:09Z</time>
      </trkpt>
      <trkpt lat="29.39942000" lon="82.96031000">
        <ele>4745.0000</ele>
        <time>2010-01-01T00:51:16Z</time>
      </trkpt>
      <trkpt lat="29.39946000" lon="82.96020000">
        <ele>4748.0000</ele>
        <time>2010-01-01T00:51:21Z</time>
      </trkpt>
      <trkpt lat="29.39951000" lon="82.96013000">
        <ele>4751.0000</ele>
        <time>2010-01-01T00:51:24Z</time>
      </trkpt>
      <trkpt lat="29.39957000" lon="82.95989000">
        <ele>4754.0000</ele>
        <time>2010-01-01T00:51:32Z</time>
      </trkpt>
      <trkpt lat="29.39975000" lon="82.95941000">
        <ele>4760.0000</ele>
        <time>2010-01-01T00:51:51Z</time>
      </trkpt>
      <trkpt lat="29.39989000" lon="82.95924000">
        <ele>4768.0000</ele>
        <time>2010-01-01T00:51:59Z</time>
      </trkpt>
      <trkpt lat="29.39997000" lon="82.95914000">
        <ele>4772.0000</ele>
        <time>2010-01-01T00:52:04Z</time>
      </trkpt>
      <trkpt lat="29.40002000" lon="82.95912000">
        <ele>4773.0000</ele>
        <time>2010-01-01T00:52:06Z</time>
      </trkpt>
      <trkpt lat="29.40004000" lon="82.95907000">
        <ele>4773.0000</ele>
        <time>2010-01-01T00:52:08Z</time>
      </trkpt>
      <trkpt lat="29.40008000" lon="82.95907000">
        <ele>4775.0000</ele>
        <time>2010-01-01T00:52:09Z</time>
      </trkpt>
      <trkpt lat="29.40055000" lon="82.95860000">
        <ele>4776.0000</ele>
        <time>2010-01-01T00:52:34Z</time>
      </trkpt>
      <trkpt lat="29.40082000" lon="82.95851000">
        <ele>4776.0000</ele>
        <time>2010-01-01T00:52:45Z</time>
      </trkpt>
      <trkpt lat="29.40085000" lon="82.95847000">
        <ele>4776.0000</ele>
        <time>2010-01-01T00:52:47Z</time>
      </trkpt>
      <trkpt lat="29.40087000" lon="82.95839000">
        <ele>4775.0000</ele>
        <time>2010-01-01T00:52:50Z</time>
      </trkpt>
      <trkpt lat="29.40090000" lon="82.95836000">
        <ele>4776.0000</ele>
        <time>2010-01-01T00:52:52Z</time>
      </trkpt>
      <trkpt lat="29.40102000" lon="82.95832000">
        <ele>4778.0000</ele>
        <time>2010-01-01T00:52:57Z</time>
      </trkpt>
      <trkpt lat="29.40108000" lon="82.95825000">
        <ele>4779.0000</ele>
        <time>2010-01-01T00:53:00Z</time>
      </trkpt>
      <trkpt lat="29.40114000" lon="82.95823000">
        <ele>4780.0000</ele>
        <time>2010-01-01T00:53:03Z</time>
      </trkpt>
      <trkpt lat="29.40131000" lon="82.95812000">
        <ele>4785.0000</ele>
        <time>2010-01-01T00:53:11Z</time>
      </trkpt>
      <trkpt lat="29.40149000" lon="82.95782000">
        <ele>4784.0000</ele>
        <time>2010-01-01T00:53:23Z</time>
      </trkpt>
      <trkpt lat="29.40162000" lon="82.95777000">
        <ele>4783.0000</ele>
        <time>2010-01-01T00:53:29Z</time>
      </trkpt>
      <trkpt lat="29.40185000" lon="82.95791000">
        <ele>4791.0000</ele>
        <time>2010-01-01T00:53:39Z</time>
      </trkpt>
      <trkpt lat="29.40202000" lon="82.95791000">
        <ele>4793.0000</ele>
        <time>2010-01-01T00:53:46Z</time>
      </trkpt>
      <trkpt lat="29.40244000" lon="82.95800000">
        <ele>4788.0000</ele>
        <time>2010-01-01T00:54:03Z</time>
      </trkpt>
      <trkpt lat="29.40263000" lon="82.95806000">
        <ele>4779.0000</ele>
        <time>2010-01-01T00:54:11Z</time>
      </trkpt>
      <trkpt lat="29.40279000" lon="82.95813000">
        <ele>4778.0000</ele>
        <time>2010-01-01T00:54:18Z</time>
      </trkpt>
      <trkpt lat="29.40294000" lon="82.95813000">
        <ele>4786.0000</ele>
        <time>2010-01-01T00:54:24Z</time>
      </trkpt>
      <trkpt lat="29.40326000" lon="82.95810000">
        <ele>4787.0000</ele>
        <time>2010-01-01T00:54:37Z</time>
      </trkpt>
      <trkpt lat="29.40333000" lon="82.95802000">
        <ele>4781.0000</ele>
        <time>2010-01-01T00:54:41Z</time>
      </trkpt>
      <trkpt lat="29.40351000" lon="82.95808000">
        <ele>4790.0000</ele>
        <time>2010-01-01T00:54:48Z</time>
      </trkpt>
      <trkpt lat="29.40366000" lon="82.95811000">
        <ele>4797.0000</ele>
        <time>2010-01-01T00:54:54Z</time>
      </trkpt>
      <trkpt lat="29.40394000" lon="82.95803000">
        <ele>4805.0000</ele>
        <time>2010-01-01T00:55:06Z</time>
      </trkpt>
      <trkpt lat="29.40406000" lon="82.95798000">
        <ele>4802.0000</ele>
        <time>2010-01-01T00:55:11Z</time>
      </trkpt>
      <trkpt lat="29.40415000" lon="82.95789000">
        <ele>4798.0000</ele>
        <time>2010-01-01T00:55:16Z</time>
      </trkpt>
      <trkpt lat="29.40433000" lon="82.95780000">
        <ele>4790.0000</ele>
        <time>2010-01-01T00:55:23Z</time>
      </trkpt>
      <trkpt lat="29.40491000" lon="82.95763000">
        <ele>4793.0000</ele>
        <time>2010-01-01T00:55:47Z</time>
      </trkpt>
      <trkpt lat="29.40507000" lon="82.95754000">
        <ele>4790.0000</ele>
        <time>2010-01-01T00:55:55Z</time>
      </trkpt>
      <trkpt lat="29.40543000" lon="82.95756000">
        <ele>4796.0000</ele>
        <time>2010-01-01T00:56:09Z</time>
      </trkpt>
      <trkpt lat="29.40561000" lon="82.95754000">
        <ele>4802.0000</ele>
        <time>2010-01-01T00:56:16Z</time>
      </trkpt>
      <trkpt lat="29.40568000" lon="82.95752000">
        <ele>4802.0000</ele>
        <time>2010-01-01T00:56:19Z</time>
      </trkpt>
      <trkpt lat="29.40576000" lon="82.95746000">
        <ele>4800.0000</ele>
        <time>2010-01-01T00:56:23Z</time>
      </trkpt>
      <trkpt lat="29.40587000" lon="82.95750000">
        <ele>4807.0000</ele>
        <time>2010-01-01T00:56:28Z</time>
      </trkpt>
      <trkpt lat="29.40602000" lon="82.95739000">
        <ele>4801.0000</ele>
        <time>2010-01-01T00:56:35Z</time>
      </trkpt>
      <trkpt lat="29.40614000" lon="82.95741000">
        <ele>4806.0000</ele>
        <time>2010-01-01T00:56:40Z</time>
      </trkpt>
      <trkpt lat="29.40639000" lon="82.95735000">
        <ele>4809.0000</ele>
        <time>2010-01-01T00:56:50Z</time>
      </trkpt>
      <trkpt lat="29.40647000" lon="82.95729000">
        <ele>4809.0000</ele>
        <time>2010-01-01T00:56:54Z</time>
      </trkpt>
      <trkpt lat="29.40658000" lon="82.95726000">
        <ele>4812.0000</ele>
        <time>2010-01-01T00:56:58Z</time>
      </trkpt>
      <trkpt lat="29.40673000" lon="82.95727000">
        <ele>4820.0000</ele>
        <time>2010-01-01T00:57:04Z</time>
      </trkpt>
      <trkpt lat="29.40688000" lon="82.95725000">
        <ele>4827.0000</ele>
        <time>2010-01-01T00:57:10Z</time>
      </trkpt>
      <trkpt lat="29.40702000" lon="82.95722000">
        <ele>4832.0000</ele>
        <time>2010-01-01T00:57:16Z</time>
      </trkpt>
      <trkpt lat="29.40713000" lon="82.95709000">
        <ele>4828.0000</ele>
        <time>2010-01-01T00:57:22Z</time>
      </trkpt>
      <trkpt lat="29.40731000" lon="82.95708000">
        <ele>4837.0000</ele>
        <time>2010-01-01T00:57:29Z</time>
      </trkpt>
      <trkpt lat="29.40751000" lon="82.95688000">
        <ele>4838.0000</ele>
        <time>2010-01-01T00:57:40Z</time>
      </trkpt>
      <trkpt lat="29.40766000" lon="82.95663000">
        <ele>4835.0000</ele>
        <time>2010-01-01T00:57:51Z</time>
      </trkpt>
      <trkpt lat="29.40775000" lon="82.95634000">
        <ele>4825.0000</ele>
        <time>2010-01-01T00:58:01Z</time>
      </trkpt>
      <trkpt lat="29.40790000" lon="82.95595000">
        <ele>4819.0000</ele>
        <time>2010-01-01T00:58:16Z</time>
      </trkpt>
      <trkpt lat="29.40800000" lon="82.95585000">
        <ele>4818.0000</ele>
        <time>2010-01-01T00:58:22Z</time>
      </trkpt>
      <trkpt lat="29.40813000" lon="82.95578000">
        <ele>4820.0000</ele>
        <time>2010-01-01T00:58:27Z</time>
      </trkpt>
      <trkpt lat="29.40825000" lon="82.95564000">
        <ele>4819.0000</ele>
        <time>2010-01-01T00:58:34Z</time>
      </trkpt>
      <trkpt lat="29.40839000" lon="82.95560000">
        <ele>4821.0000</ele>
        <time>2010-01-01T00:58:40Z</time>
      </trkpt>
      <trkpt lat="29.40855000" lon="82.95562000">
        <ele>4824.0000</ele>
        <time>2010-01-01T00:58:46Z</time>
      </trkpt>
      <trkpt lat="29.40867000" lon="82.95560000">
        <ele>4824.0000</ele>
        <time>2010-01-01T00:58:51Z</time>
      </trkpt>
      <trkpt lat="29.40899000" lon="82.95553000">
        <ele>4821.0000</ele>
        <time>2010-01-01T00:59:04Z</time>
      </trkpt>
      <trkpt lat="29.40909000" lon="82.95548000">
        <ele>4818.0000</ele>
        <time>2010-01-01T00:59:09Z</time>
      </trkpt>
      <trkpt lat="29.40917000" lon="82.95538000">
        <ele>4811.0000</ele>
        <time>2010-01-01T00:59:13Z</time>
      </trkpt>
      <trkpt lat="29.40932000" lon="82.95541000">
        <ele>4810.0000</ele>
        <time>2010-01-01T00:59:19Z</time>
      </trkpt>
      <trkpt lat="29.40947000" lon="82.95542000">
        <ele>4808.0000</ele>
        <time>2010-01-01T00:59:25Z</time>
      </trkpt>
      <trkpt lat="29.40958000" lon="82.95545000">
        <ele>4806.0000</ele>
        <time>2010-01-01T00:59:30Z</time>
      </trkpt>
      <trkpt lat="29.40995000" lon="82.95536000">
        <ele>4795.0000</ele>
        <time>2010-01-01T00:59:45Z</time>
      </trkpt>
      <trkpt lat="29.41005000" lon="82.95539000">
        <ele>4796.0000</ele>
        <time>2010-01-01T00:59:49Z</time>
      </trkpt>
      <trkpt lat="29.41016000" lon="82.95547000">
        <ele>4801.0000</ele>
        <time>2010-01-01T00:59:54Z</time>
      </trkpt>
      <trkpt lat="29.41038000" lon="82.95536000">
        <ele>4804.0000</ele>
        <time>2010-01-01T01:00:04Z</time>
      </trkpt>
      <trkpt lat="29.41047000" lon="82.95527000">
        <ele>4804.0000</ele>
        <time>2010-01-01T01:00:09Z</time>
      </trkpt>
      <trkpt lat="29.41057000" lon="82.95520000">
        <ele>4804.0000</ele>
        <time>2010-01-01T01:00:14Z</time>
      </trkpt>
      <trkpt lat="29.41072000" lon="82.95500000">
        <ele>4800.0000</ele>
        <time>2010-01-01T01:00:23Z</time>
      </trkpt>
      <trkpt lat="29.41085000" lon="82.95493000">
        <ele>4801.0000</ele>
        <time>2010-01-01T01:00:29Z</time>
      </trkpt>
      <trkpt lat="29.41090000" lon="82.95449000">
        <ele>4786.0000</ele>
        <time>2010-01-01T01:00:44Z</time>
      </trkpt>
      <trkpt lat="29.41139000" lon="82.95448000">
        <ele>4808.0000</ele>
        <time>2010-01-01T01:01:04Z</time>
      </trkpt>
      <trkpt lat="29.41141000" lon="82.95411000">
        <ele>4795.0000</ele>
        <time>2010-01-01T01:01:17Z</time>
      </trkpt>
      <trkpt lat="29.41144000" lon="82.95397000">
        <ele>4792.0000</ele>
        <time>2010-01-01T01:01:22Z</time>
      </trkpt>
      <trkpt lat="29.41153000" lon="82.95383000">
        <ele>4790.0000</ele>
        <time>2010-01-01T01:01:28Z</time>
      </trkpt>
      <trkpt lat="29.41163000" lon="82.95375000">
        <ele>4792.0000</ele>
        <time>2010-01-01T01:01:32Z</time>
      </trkpt>
      <trkpt lat="29.41180000" lon="82.95366000">
        <ele>4798.0000</ele>
        <time>2010-01-01T01:01:40Z</time>
      </trkpt>
      <trkpt lat="29.41192000" lon="82.95358000">
        <ele>4803.0000</ele>
        <time>2010-01-01T01:01:46Z</time>
      </trkpt>
      <trkpt lat="29.41210000" lon="82.95341000">
        <ele>4809.0000</ele>
        <time>2010-01-01T01:01:55Z</time>
      </trkpt>
      <trkpt lat="29.41225000" lon="82.95320000">
        <ele>4812.0000</ele>
        <time>2010-01-01T01:02:04Z</time>
      </trkpt>
      <trkpt lat="29.41230000" lon="82.95311000">
        <ele>4813.0000</ele>
        <time>2010-01-01T01:02:08Z</time>
      </trkpt>
      <trkpt lat="29.41233000" lon="82.95297000">
        <ele>4811.0000</ele>
        <time>2010-01-01T01:02:13Z</time>
      </trkpt>
      <trkpt lat="29.41235000" lon="82.95284000">
        <ele>4807.0000</ele>
        <time>2010-01-01T01:02:18Z</time>
      </trkpt>
      <trkpt lat="29.41239000" lon="82.95271000">
        <ele>4805.0000</ele>
        <time>2010-01-01T01:02:23Z</time>
      </trkpt>
      <trkpt lat="29.41262000" lon="82.95224000">
        <ele>4803.0000</ele>
        <time>2010-01-01T01:02:41Z</time>
      </trkpt>
      <trkpt lat="29.41275000" lon="82.95207000">
        <ele>4807.0000</ele>
        <time>2010-01-01T01:02:49Z</time>
      </trkpt>
      <trkpt lat="29.41304000" lon="82.95243000">
        <ele>4808.0000</ele>
        <time>2010-01-01T01:03:06Z</time>
      </trkpt>
      <trkpt lat="29.41318000" lon="82.95256000">
        <ele>4807.0000</ele>
        <time>2010-01-01T01:03:13Z</time>
      </trkpt>
      <trkpt lat="29.41362000" lon="82.95280000">
        <ele>4802.0000</ele>
        <time>2010-01-01T01:03:33Z</time>
      </trkpt>
      <trkpt lat="29.41369000" lon="82.95288000">
        <ele>4804.0000</ele>
        <time>2010-01-01T01:03:37Z</time>
      </trkpt>
      <trkpt lat="29.41387000" lon="82.95298000">
        <ele>4803.0000</ele>
        <time>2010-01-01T01:03:45Z</time>
      </trkpt>
      <trkpt lat="29.41401000" lon="82.95309000">
        <ele>4801.0000</ele>
        <time>2010-01-01T01:03:52Z</time>
      </trkpt>
      <trkpt lat="29.41413000" lon="82.95326000">
        <ele>4802.0000</ele>
        <time>2010-01-01T01:03:59Z</time>
      </trkpt>
      <trkpt lat="29.41423000" lon="82.95330000">
        <ele>4798.0000</ele>
        <time>2010-01-01T01:04:04Z</time>
      </trkpt>
      <trkpt lat="29.41428000" lon="82.95344000">
        <ele>4801.0000</ele>
        <time>2010-01-01T01:04:09Z</time>
      </trkpt>
      <trkpt lat="29.41437000" lon="82.95352000">
        <ele>4797.0000</ele>
        <time>2010-01-01T01:04:13Z</time>
      </trkpt>
      <trkpt lat="29.41445000" lon="82.95363000">
        <ele>4792.0000</ele>
        <time>2010-01-01T01:04:18Z</time>
      </trkpt>
      <trkpt lat="29.41455000" lon="82.95369000">
        <ele>4791.0000</ele>
        <time>2010-01-01T01:04:23Z</time>
      </trkpt>
      <trkpt lat="29.41464000" lon="82.95383000">
        <ele>4793.0000</ele>
        <time>2010-01-01T01:04:29Z</time>
      </trkpt>
      <trkpt lat="29.41494000" lon="82.95404000">
        <ele>4791.0000</ele>
        <time>2010-01-01T01:04:43Z</time>
      </trkpt>
      <trkpt lat="29.41503000" lon="82.95405000">
        <ele>4788.0000</ele>
        <time>2010-01-01T01:04:47Z</time>
      </trkpt>
      <trkpt lat="29.41516000" lon="82.95424000">
        <ele>4788.0000</ele>
        <time>2010-01-01T01:04:55Z</time>
      </trkpt>
      <trkpt lat="29.41528000" lon="82.95424000">
        <ele>4783.0000</ele>
        <time>2010-01-01T01:05:00Z</time>
      </trkpt>
      <trkpt lat="29.41546000" lon="82.95431000">
        <ele>4777.0000</ele>
        <time>2010-01-01T01:05:08Z</time>
      </trkpt>
      <trkpt lat="29.41578000" lon="82.95453000">
        <ele>4775.0000</ele>
        <time>2010-01-01T01:05:22Z</time>
      </trkpt>
      <trkpt lat="29.41589000" lon="82.95466000">
        <ele>4775.0000</ele>
        <time>2010-01-01T01:05:29Z</time>
      </trkpt>
      <trkpt lat="29.41589000" lon="82.95481000">
        <ele>4778.0000</ele>
        <time>2010-01-01T01:05:34Z</time>
      </trkpt>
      <trkpt lat="29.41584000" lon="82.95497000">
        <ele>4784.0000</ele>
        <time>2010-01-01T01:05:40Z</time>
      </trkpt>
      <trkpt lat="29.41604000" lon="82.95517000">
        <ele>4778.0000</ele>
        <time>2010-01-01T01:05:51Z</time>
      </trkpt>
      <trkpt lat="29.41617000" lon="82.95537000">
        <ele>4776.0000</ele>
        <time>2010-01-01T01:05:59Z</time>
      </trkpt>
      <trkpt lat="29.41650000" lon="82.95570000">
        <ele>4775.0000</ele>
        <time>2010-01-01T01:06:17Z</time>
      </trkpt>
      <trkpt lat="29.41650000" lon="82.95569000">
        <ele>4774.0000</ele>
        <time>2010-01-01T01:06:17Z</time>
      </trkpt>
      <trkpt lat="29.41682000" lon="82.95590000">
        <ele>4766.0000</ele>
        <time>2010-01-01T01:06:32Z</time>
      </trkpt>
      <trkpt lat="29.41683000" lon="82.95607000">
        <ele>4770.0000</ele>
        <time>2010-01-01T01:06:38Z</time>
      </trkpt>
      <trkpt lat="29.41689000" lon="82.95620000">
        <ele>4769.0000</ele>
        <time>2010-01-01T01:06:43Z</time>
      </trkpt>
      <trkpt lat="29.41696000" lon="82.95648000">
        <ele>4765.0000</ele>
        <time>2010-01-01T01:06:53Z</time>
      </trkpt>
      <trkpt lat="29.41695000" lon="82.95667000">
        <ele>4760.0000</ele>
        <time>2010-01-01T01:07:00Z</time>
      </trkpt>
      <trkpt lat="29.41696000" lon="82.95680000">
        <ele>4757.0000</ele>
        <time>2010-01-01T01:07:04Z</time>
      </trkpt>
      <trkpt lat="29.41694000" lon="82.95701000">
        <ele>4753.0000</ele>
        <time>2010-01-01T01:07:12Z</time>
      </trkpt>
      <trkpt lat="29.41695000" lon="82.95708000">
        <ele>4752.0000</ele>
        <time>2010-01-01T01:07:14Z</time>
      </trkpt>
      <trkpt lat="29.41699000" lon="82.95719000">
        <ele>4751.0000</ele>
        <time>2010-01-01T01:07:18Z</time>
      </trkpt>
      <trkpt lat="29.41713000" lon="82.95736000">
        <ele>4749.0000</ele>
        <time>2010-01-01T01:07:26Z</time>
      </trkpt>
      <trkpt lat="29.41714000" lon="82.95743000">
        <ele>4749.0000</ele>
        <time>2010-01-01T01:07:29Z</time>
      </trkpt>
      <trkpt lat="29.41726000" lon="82.95754000">
        <ele>4747.0000</ele>
        <time>2010-01-01T01:07:35Z</time>
      </trkpt>
      <trkpt lat="29.41740000" lon="82.95763000">
        <ele>4743.0000</ele>
        <time>2010-01-01T01:07:42Z</time>
      </trkpt>
      <trkpt lat="29.41756000" lon="82.95766000">
        <ele>4738.0000</ele>
        <time>2010-01-01T01:07:48Z</time>
      </trkpt>
      <trkpt lat="29.41770000" lon="82.95772000">
        <ele>4735.0000</ele>
        <time>2010-01-01T01:07:54Z</time>
      </trkpt>
      <trkpt lat="29.41776000" lon="82.95769000">
        <ele>4733.0000</ele>
        <time>2010-01-01T01:07:57Z</time>
      </trkpt>
      <trkpt lat="29.41781000" lon="82.95769000">
        <ele>4732.0000</ele>
        <time>2010-01-01T01:07:59Z</time>
      </trkpt>
      <trkpt lat="29.41792000" lon="82.95774000">
        <ele>4729.0000</ele>
        <time>2010-01-01T01:08:03Z</time>
      </trkpt>
      <trkpt lat="29.41801000" lon="82.95776000">
        <ele>4727.0000</ele>
        <time>2010-01-01T01:08:07Z</time>
      </trkpt>
      <trkpt lat="29.41821000" lon="82.95787000">
        <ele>4723.0000</ele>
        <time>2010-01-01T01:08:16Z</time>
      </trkpt>
      <trkpt lat="29.41833000" lon="82.95782000">
        <ele>4721.0000</ele>
        <time>2010-01-01T01:08:21Z</time>
      </trkpt>
      <trkpt lat="29.41841000" lon="82.95785000">
        <ele>4717.0000</ele>
        <time>2010-01-01T01:08:24Z</time>
      </trkpt>
      <trkpt lat="29.41860000" lon="82.95772000">
        <ele>4708.0000</ele>
        <time>2010-01-01T01:08:33Z</time>
      </trkpt>
      <trkpt lat="29.41865000" lon="82.95776000">
        <ele>4706.0000</ele>
        <time>2010-01-01T01:08:36Z</time>
      </trkpt>
      <trkpt lat="29.41885000" lon="82.95768000">
        <ele>4698.0000</ele>
        <time>2010-01-01T01:08:44Z</time>
      </trkpt>
      <trkpt lat="29.41893000" lon="82.95774000">
        <ele>4695.0000</ele>
        <time>2010-01-01T01:08:48Z</time>
      </trkpt>
      <trkpt lat="29.41898000" lon="82.95774000">
        <ele>4694.0000</ele>
        <time>2010-01-01T01:08:50Z</time>
      </trkpt>
      <trkpt lat="29.41910000" lon="82.95766000">
        <ele>4691.0000</ele>
        <time>2010-01-01T01:08:56Z</time>
      </trkpt>
      <trkpt lat="29.41916000" lon="82.95767000">
        <ele>4690.0000</ele>
        <time>2010-01-01T01:08:58Z</time>
      </trkpt>
      <trkpt lat="29.41922000" lon="82.95778000">
        <ele>4688.0000</ele>
        <time>2010-01-01T01:09:02Z</time>
      </trkpt>
      <trkpt lat="29.41934000" lon="82.95784000">
        <ele>4685.0000</ele>
        <time>2010-01-01T01:09:08Z</time>
      </trkpt>
      <trkpt lat="29.41961000" lon="82.95776000">
        <ele>4675.0000</ele>
        <time>2010-01-01T01:09:19Z</time>
      </trkpt>
      <trkpt lat="29.41966000" lon="82.95774000">
        <ele>4673.0000</ele>
        <time>2010-01-01T01:09:21Z</time>
      </trkpt>
      <trkpt lat="29.41985000" lon="82.95773000">
        <ele>4667.0000</ele>
        <time>2010-01-01T01:09:29Z</time>
      </trkpt>
      <trkpt lat="29.41999000" lon="82.95770000">
        <ele>4662.0000</ele>
        <time>2010-01-01T01:09:34Z</time>
      </trkpt>
      <trkpt lat="29.42013000" lon="82.95761000">
        <ele>4658.0000</ele>
        <time>2010-01-01T01:09:41Z</time>
      </trkpt>
      <trkpt lat="29.42110000" lon="82.95722000">
        <ele>4629.0000</ele>
        <time>2010-01-01T01:10:22Z</time>
      </trkpt>
      <trkpt lat="29.42117000" lon="82.95717000">
        <ele>4626.0000</ele>
        <time>2010-01-01T01:10:25Z</time>
      </trkpt>
      <trkpt lat="29.42122000" lon="82.95711000">
        <ele>4624.0000</ele>
        <time>2010-01-01T01:10:28Z</time>
      </trkpt>
      <trkpt lat="29.42124000" lon="82.95701000">
        <ele>4622.0000</ele>
        <time>2010-01-01T01:10:32Z</time>
      </trkpt>
      <trkpt lat="29.42134000" lon="82.95700000">
        <ele>4620.0000</ele>
        <time>2010-01-01T01:10:36Z</time>
      </trkpt>
      <trkpt lat="29.42150000" lon="82.95693000">
        <ele>4615.0000</ele>
        <time>2010-01-01T01:10:43Z</time>
      </trkpt>
      <trkpt lat="29.42165000" lon="82.95679000">
        <ele>4611.0000</ele>
        <time>2010-01-01T01:10:50Z</time>
      </trkpt>
      <trkpt lat="29.42170000" lon="82.95672000">
        <ele>4609.0000</ele>
        <time>2010-01-01T01:10:53Z</time>
      </trkpt>
      <trkpt lat="29.42186000" lon="82.95662000">
        <ele>4604.0000</ele>
        <time>2010-01-01T01:11:01Z</time>
      </trkpt>
      <trkpt lat="29.42194000" lon="82.95652000">
        <ele>4602.0000</ele>
        <time>2010-01-01T01:11:05Z</time>
      </trkpt>
      <trkpt lat="29.42196000" lon="82.95645000">
        <ele>4601.0000</ele>
        <time>2010-01-01T01:11:08Z</time>
      </trkpt>
      <trkpt lat="29.42217000" lon="82.95646000">
        <ele>4589.0000</ele>
        <time>2010-01-01T01:11:16Z</time>
      </trkpt>
      <trkpt lat="29.42223000" lon="82.95643000">
        <ele>4585.0000</ele>
        <time>2010-01-01T01:11:19Z</time>
      </trkpt>
      <trkpt lat="29.42226000" lon="82.95639000">
        <ele>4584.0000</ele>
        <time>2010-01-01T01:11:21Z</time>
      </trkpt>
      <trkpt lat="29.42227000" lon="82.95629000">
        <ele>4583.0000</ele>
        <time>2010-01-01T01:11:24Z</time>
      </trkpt>
      <trkpt lat="29.42243000" lon="82.95602000">
        <ele>4573.0000</ele>
        <time>2010-01-01T01:11:36Z</time>
      </trkpt>
      <trkpt lat="29.42265000" lon="82.95588000">
        <ele>4568.0000</ele>
        <time>2010-01-01T01:11:46Z</time>
      </trkpt>
      <trkpt lat="29.42272000" lon="82.95603000">
        <ele>4567.0000</ele>
        <time>2010-01-01T01:11:52Z</time>
      </trkpt>
      <trkpt lat="29.42290000" lon="82.95600000">
        <ele>4566.0000</ele>
        <time>2010-01-01T01:11:59Z</time>
      </trkpt>
      <trkpt lat="29.42298000" lon="82.95603000">
        <ele>4565.0000</ele>
        <time>2010-01-01T01:12:02Z</time>
      </trkpt>
      <trkpt lat="29.42304000" lon="82.95608000">
        <ele>4565.0000</ele>
        <time>2010-01-01T01:12:05Z</time>
      </trkpt>
      <trkpt lat="29.42325000" lon="82.95605000">
        <ele>4561.0000</ele>
        <time>2010-01-01T01:12:14Z</time>
      </trkpt>
      <trkpt lat="29.42345000" lon="82.95585000">
        <ele>4555.0000</ele>
        <time>2010-01-01T01:12:24Z</time>
      </trkpt>
      <trkpt lat="29.42349000" lon="82.95570000">
        <ele>4554.0000</ele>
        <time>2010-01-01T01:12:30Z</time>
      </trkpt>
      <trkpt lat="29.42379000" lon="82.95532000">
        <ele>4554.0000</ele>
        <time>2010-01-01T01:12:48Z</time>
      </trkpt>
      <trkpt lat="29.42378000" lon="82.95501000">
        <ele>4553.0000</ele>
        <time>2010-01-01T01:12:59Z</time>
      </trkpt>
      <trkpt lat="29.42390000" lon="82.95462000">
        <ele>4555.0000</ele>
        <time>2010-01-01T01:13:13Z</time>
      </trkpt>
      <trkpt lat="29.42408000" lon="82.95413000">
        <ele>4557.0000</ele>
        <time>2010-01-01T01:13:32Z</time>
      </trkpt>
      <trkpt lat="29.42415000" lon="82.95401000">
        <ele>4559.0000</ele>
        <time>2010-01-01T01:13:37Z</time>
      </trkpt>
      <trkpt lat="29.42425000" lon="82.95393000">
        <ele>4561.0000</ele>
        <time>2010-01-01T01:13:42Z</time>
      </trkpt>
      <trkpt lat="29.42432000" lon="82.95379000">
        <ele>4561.0000</ele>
        <time>2010-01-01T01:13:47Z</time>
      </trkpt>
      <trkpt lat="29.42441000" lon="82.95339000">
        <ele>4561.0000</ele>
        <time>2010-01-01T01:14:02Z</time>
      </trkpt>
      <trkpt lat="29.42448000" lon="82.95318000">
        <ele>4560.0000</ele>
        <time>2010-01-01T01:14:09Z</time>
      </trkpt>
      <trkpt lat="29.42477000" lon="82.95296000">
        <ele>4558.0000</ele>
        <time>2010-01-01T01:14:23Z</time>
      </trkpt>
      <trkpt lat="29.42490000" lon="82.95284000">
        <ele>4559.0000</ele>
        <time>2010-01-01T01:14:30Z</time>
      </trkpt>
      <trkpt lat="29.42510000" lon="82.95270000">
        <ele>4561.0000</ele>
        <time>2010-01-01T01:14:39Z</time>
      </trkpt>
      <trkpt lat="29.42524000" lon="82.95264000">
        <ele>4562.0000</ele>
        <time>2010-01-01T01:14:45Z</time>
      </trkpt>
      <trkpt lat="29.42542000" lon="82.95252000">
        <ele>4562.0000</ele>
        <time>2010-01-01T01:14:54Z</time>
      </trkpt>
      <trkpt lat="29.42562000" lon="82.95224000">
        <ele>4558.0000</ele>
        <time>2010-01-01T01:15:06Z</time>
      </trkpt>
      <trkpt lat="29.42577000" lon="82.95220000">
        <ele>4558.0000</ele>
        <time>2010-01-01T01:15:12Z</time>
      </trkpt>
      <trkpt lat="29.42588000" lon="82.95222000">
        <ele>4560.0000</ele>
        <time>2010-01-01T01:15:17Z</time>
      </trkpt>
      <trkpt lat="29.42602000" lon="82.95200000">
        <ele>4559.0000</ele>
        <time>2010-01-01T01:15:26Z</time>
      </trkpt>
      <trkpt lat="29.42643000" lon="82.95169000">
        <ele>4558.0000</ele>
        <time>2010-01-01T01:15:46Z</time>
      </trkpt>
      <trkpt lat="29.42664000" lon="82.95162000">
        <ele>4558.0000</ele>
        <time>2010-01-01T01:15:55Z</time>
      </trkpt>
      <trkpt lat="29.42685000" lon="82.95151000">
        <ele>4559.0000</ele>
        <time>2010-01-01T01:16:04Z</time>
      </trkpt>
      <trkpt lat="29.42704000" lon="82.95135000">
        <ele>4559.0000</ele>
        <time>2010-01-01T01:16:14Z</time>
      </trkpt>
      <trkpt lat="29.42729000" lon="82.95125000">
        <ele>4562.0000</ele>
        <time>2010-01-01T01:16:24Z</time>
      </trkpt>
      <trkpt lat="29.42732000" lon="82.95114000">
        <ele>4561.0000</ele>
        <time>2010-01-01T01:16:28Z</time>
      </trkpt>
      <trkpt lat="29.42733000" lon="82.95100000">
        <ele>4558.0000</ele>
        <time>2010-01-01T01:16:33Z</time>
      </trkpt>
      <trkpt lat="29.42758000" lon="82.95064000">
        <ele>4556.0000</ele>
        <time>2010-01-01T01:16:49Z</time>
      </trkpt>
      <trkpt lat="29.42772000" lon="82.95050000">
        <ele>4557.0000</ele>
        <time>2010-01-01T01:16:57Z</time>
      </trkpt>
      <trkpt lat="29.42793000" lon="82.95039000">
        <ele>4559.0000</ele>
        <time>2010-01-01T01:17:06Z</time>
      </trkpt>
      <trkpt lat="29.42799000" lon="82.95038000">
        <ele>4560.0000</ele>
        <time>2010-01-01T01:17:08Z</time>
      </trkpt>
      <trkpt lat="29.42802000" lon="82.95028000">
        <ele>4559.0000</ele>
        <time>2010-01-01T01:17:12Z</time>
      </trkpt>
      <trkpt lat="29.42828000" lon="82.95003000">
        <ele>4557.0000</ele>
        <time>2010-01-01T01:17:25Z</time>
      </trkpt>
      <trkpt lat="29.42836000" lon="82.94992000">
        <ele>4556.0000</ele>
        <time>2010-01-01T01:17:30Z</time>
      </trkpt>
      <trkpt lat="29.42846000" lon="82.94986000">
        <ele>4555.0000</ele>
        <time>2010-01-01T01:17:35Z</time>
      </trkpt>
      <trkpt lat="29.42851000" lon="82.94971000">
        <ele>4553.0000</ele>
        <time>2010-01-01T01:17:41Z</time>
      </trkpt>
      <trkpt lat="29.42859000" lon="82.94957000">
        <ele>4551.0000</ele>
        <time>2010-01-01T01:17:46Z</time>
      </trkpt>
      <trkpt lat="29.42901000" lon="82.94912000">
        <ele>4551.0000</ele>
        <time>2010-01-01T01:18:09Z</time>
      </trkpt>
      <trkpt lat="29.42920000" lon="82.94894000">
        <ele>4551.0000</ele>
        <time>2010-01-01T01:18:19Z</time>
      </trkpt>
      <trkpt lat="29.42926000" lon="82.94892000">
        <ele>4550.0000</ele>
        <time>2010-01-01T01:18:22Z</time>
      </trkpt>
      <trkpt lat="29.42945000" lon="82.94897000">
        <ele>4549.0000</ele>
        <time>2010-01-01T01:18:30Z</time>
      </trkpt>
      <trkpt lat="29.42958000" lon="82.94885000">
        <ele>4546.0000</ele>
        <time>2010-01-01T01:18:36Z</time>
      </trkpt>
      <trkpt lat="29.42971000" lon="82.94864000">
        <ele>4540.0000</ele>
        <time>2010-01-01T01:18:45Z</time>
      </trkpt>
      <trkpt lat="29.42969000" lon="82.94830000">
        <ele>4533.0000</ele>
        <time>2010-01-01T01:18:57Z</time>
      </trkpt>
      <trkpt lat="29.42975000" lon="82.94815000">
        <ele>4532.0000</ele>
        <time>2010-01-01T01:19:03Z</time>
      </trkpt>
      <trkpt lat="29.42993000" lon="82.94785000">
        <ele>4532.0000</ele>
        <time>2010-01-01T01:19:16Z</time>
      </trkpt>
      <trkpt lat="29.43005000" lon="82.94752000">
        <ele>4526.0000</ele>
        <time>2010-01-01T01:19:28Z</time>
      </trkpt>
      <trkpt lat="29.43006000" lon="82.94743000">
        <ele>4525.0000</ele>
        <time>2010-01-01T01:19:31Z</time>
      </trkpt>
      <trkpt lat="29.43017000" lon="82.94703000">
        <ele>4520.0000</ele>
        <time>2010-01-01T01:19:46Z</time>
      </trkpt>
      <trkpt lat="29.43015000" lon="82.94691000">
        <ele>4519.0000</ele>
        <time>2010-01-01T01:19:50Z</time>
      </trkpt>
      <trkpt lat="29.43014000" lon="82.94680000">
        <ele>4519.0000</ele>
        <time>2010-01-01T01:19:54Z</time>
      </trkpt>
      <trkpt lat="29.43017000" lon="82.94654000">
        <ele>4519.0000</ele>
        <time>2010-01-01T01:20:03Z</time>
      </trkpt>
      <trkpt lat="29.43010000" lon="82.94620000">
        <ele>4516.0000</ele>
        <time>2010-01-01T01:20:15Z</time>
      </trkpt>
      <trkpt lat="29.43002000" lon="82.94613000">
        <ele>4514.0000</ele>
        <time>2010-01-01T01:20:19Z</time>
      </trkpt>
      <trkpt lat="29.43000000" lon="82.94601000">
        <ele>4511.0000</ele>
        <time>2010-01-01T01:20:24Z</time>
      </trkpt>
      <trkpt lat="29.42989000" lon="82.94581000">
        <ele>4503.0000</ele>
        <time>2010-01-01T01:20:32Z</time>
      </trkpt>
      <trkpt lat="29.42988000" lon="82.94570000">
        <ele>4502.0000</ele>
        <time>2010-01-01T01:20:36Z</time>
      </trkpt>
      <trkpt lat="29.42996000" lon="82.94518000">
        <ele>4496.0000</ele>
        <time>2010-01-01T01:20:54Z</time>
      </trkpt>
      <trkpt lat="29.42993000" lon="82.94505000">
        <ele>4493.0000</ele>
        <time>2010-01-01T01:20:59Z</time>
      </trkpt>
      <trkpt lat="29.42994000" lon="82.94468000">
        <ele>4484.0000</ele>
        <time>2010-01-01T01:21:12Z</time>
      </trkpt>
      <trkpt lat="29.43000000" lon="82.94457000">
        <ele>4482.0000</ele>
        <time>2010-01-01T01:21:16Z</time>
      </trkpt>
      <trkpt lat="29.43011000" lon="82.94446000">
        <ele>4483.0000</ele>
        <time>2010-01-01T01:21:22Z</time>
      </trkpt>
      <trkpt lat="29.43020000" lon="82.94444000">
        <ele>4485.0000</ele>
        <time>2010-01-01T01:21:26Z</time>
      </trkpt>
      <trkpt lat="29.43024000" lon="82.94441000">
        <ele>4485.0000</ele>
        <time>2010-01-01T01:21:28Z</time>
      </trkpt>
      <trkpt lat="29.43024000" lon="82.94429000">
        <ele>4484.0000</ele>
        <time>2010-01-01T01:21:32Z</time>
      </trkpt>
      <trkpt lat="29.43016000" lon="82.94402000">
        <ele>4480.0000</ele>
        <time>2010-01-01T01:21:42Z</time>
      </trkpt>
      <trkpt lat="29.42997000" lon="82.94376000">
        <ele>4474.0000</ele>
        <time>2010-01-01T01:21:54Z</time>
      </trkpt>
      <trkpt lat="29.42988000" lon="82.94345000">
        <ele>4473.0000</ele>
        <time>2010-01-01T01:22:05Z</time>
      </trkpt>
      <trkpt lat="29.42971000" lon="82.94318000">
        <ele>4466.0000</ele>
        <time>2010-01-01T01:22:17Z</time>
      </trkpt>
      <trkpt lat="29.42964000" lon="82.94314000">
        <ele>4463.0000</ele>
        <time>2010-01-01T01:22:20Z</time>
      </trkpt>
      <trkpt lat="29.42953000" lon="82.94300000">
        <ele>4458.0000</ele>
        <time>2010-01-01T01:22:26Z</time>
      </trkpt>
      <trkpt lat="29.42950000" lon="82.94291000">
        <ele>4456.0000</ele>
        <time>2010-01-01T01:22:30Z</time>
      </trkpt>
      <trkpt lat="29.42952000" lon="82.94279000">
        <ele>4456.0000</ele>
        <time>2010-01-01T01:22:34Z</time>
      </trkpt>
      <trkpt lat="29.42953000" lon="82.94266000">
        <ele>4455.0000</ele>
        <time>2010-01-01T01:22:38Z</time>
      </trkpt>
      <trkpt lat="29.42951000" lon="82.94252000">
        <ele>4453.0000</ele>
        <time>2010-01-01T01:22:43Z</time>
      </trkpt>
      <trkpt lat="29.42944000" lon="82.94237000">
        <ele>4450.0000</ele>
        <time>2010-01-01T01:22:49Z</time>
      </trkpt>
      <trkpt lat="29.42943000" lon="82.94226000">
        <ele>4450.0000</ele>
        <time>2010-01-01T01:22:53Z</time>
      </trkpt>
      <trkpt lat="29.42939000" lon="82.94211000">
        <ele>4447.0000</ele>
        <time>2010-01-01T01:22:59Z</time>
      </trkpt>
      <trkpt lat="29.42939000" lon="82.94189000">
        <ele>4444.0000</ele>
        <time>2010-01-01T01:23:06Z</time>
      </trkpt>
      <trkpt lat="29.42937000" lon="82.94178000">
        <ele>4442.0000</ele>
        <time>2010-01-01T01:23:10Z</time>
      </trkpt>
      <trkpt lat="29.42943000" lon="82.94168000">
        <ele>4441.0000</ele>
        <time>2010-01-01T01:23:14Z</time>
      </trkpt>
      <trkpt lat="29.42946000" lon="82.94156000">
        <ele>4439.0000</ele>
        <time>2010-01-01T01:23:19Z</time>
      </trkpt>
      <trkpt lat="29.42944000" lon="82.94121000">
        <ele>4431.0000</ele>
        <time>2010-01-01T01:23:31Z</time>
      </trkpt>
      <trkpt lat="29.42949000" lon="82.94087000">
        <ele>4423.0000</ele>
        <time>2010-01-01T01:23:43Z</time>
      </trkpt>
      <trkpt lat="29.42949000" lon="82.94063000">
        <ele>4416.0000</ele>
        <time>2010-01-01T01:23:51Z</time>
      </trkpt>
      <trkpt lat="29.42951000" lon="82.94058000">
        <ele>4415.0000</ele>
        <time>2010-01-01T01:23:53Z</time>
      </trkpt>
      <trkpt lat="29.42951000" lon="82.94050000">
        <ele>4414.0000</ele>
        <time>2010-01-01T01:23:56Z</time>
      </trkpt>
      <trkpt lat="29.42948000" lon="82.94048000">
        <ele>4413.0000</ele>
        <time>2010-01-01T01:23:58Z</time>
      </trkpt>
      <trkpt lat="29.42938000" lon="82.94054000">
        <ele>4412.0000</ele>
        <time>2010-01-01T01:24:02Z</time>
      </trkpt>
      <trkpt lat="29.42932000" lon="82.94055000">
        <ele>4410.0000</ele>
        <time>2010-01-01T01:24:04Z</time>
      </trkpt>
      <trkpt lat="29.42926000" lon="82.94047000">
        <ele>4407.0000</ele>
        <time>2010-01-01T01:24:08Z</time>
      </trkpt>
      <trkpt lat="29.42928000" lon="82.94041000">
        <ele>4407.0000</ele>
        <time>2010-01-01T01:24:10Z</time>
      </trkpt>
      <trkpt lat="29.42923000" lon="82.94037000">
        <ele>4405.0000</ele>
        <time>2010-01-01T01:24:13Z</time>
      </trkpt>
      <trkpt lat="29.42923000" lon="82.94028000">
        <ele>4403.0000</ele>
        <time>2010-01-01T01:24:16Z</time>
      </trkpt>
      <trkpt lat="29.42915000" lon="82.94028000">
        <ele>4401.0000</ele>
        <time>2010-01-01T01:24:19Z</time>
      </trkpt>
      <trkpt lat="29.42911000" lon="82.94026000">
        <ele>4400.0000</ele>
        <time>2010-01-01T01:24:21Z</time>
      </trkpt>
      <trkpt lat="29.42906000" lon="82.94018000">
        <ele>4401.0000</ele>
        <time>2010-01-01T01:24:24Z</time>
      </trkpt>
      <trkpt lat="29.42904000" lon="82.94008000">
        <ele>4404.0000</ele>
        <time>2010-01-01T01:24:28Z</time>
      </trkpt>
      <trkpt lat="29.42884000" lon="82.94013000">
        <ele>4398.0000</ele>
        <time>2010-01-01T01:24:36Z</time>
      </trkpt>
      <trkpt lat="29.42868000" lon="82.94013000">
        <ele>4396.0000</ele>
        <time>2010-01-01T01:24:43Z</time>
      </trkpt>
      <trkpt lat="29.42838000" lon="82.94002000">
        <ele>4398.0000</ele>
        <time>2010-01-01T01:24:55Z</time>
      </trkpt>
      <trkpt lat="29.42823000" lon="82.94007000">
        <ele>4397.0000</ele>
        <time>2010-01-01T01:25:01Z</time>
      </trkpt>
      <trkpt lat="29.42801000" lon="82.94023000">
        <ele>4385.0000</ele>
        <time>2010-01-01T01:25:12Z</time>
      </trkpt>
      <trkpt lat="29.42780000" lon="82.94033000">
        <ele>4386.0000</ele>
        <time>2010-01-01T01:25:21Z</time>
      </trkpt>
      <trkpt lat="29.42745000" lon="82.94042000">
        <ele>4392.0000</ele>
        <time>2010-01-01T01:25:35Z</time>
      </trkpt>
      <trkpt lat="29.42727000" lon="82.94054000">
        <ele>4382.0000</ele>
        <time>2010-01-01T01:25:44Z</time>
      </trkpt>
      <trkpt lat="29.42715000" lon="82.94058000">
        <ele>4379.0000</ele>
        <time>2010-01-01T01:25:49Z</time>
      </trkpt>
      <trkpt lat="29.42702000" lon="82.94059000">
        <ele>4374.0000</ele>
        <time>2010-01-01T01:25:54Z</time>
      </trkpt>
      <trkpt lat="29.42681000" lon="82.94050000">
        <ele>4374.0000</ele>
        <time>2010-01-01T01:26:03Z</time>
      </trkpt>
      <trkpt lat="29.42627000" lon="82.94044000">
        <ele>4351.0000</ele>
        <time>2010-01-01T01:26:25Z</time>
      </trkpt>
      <trkpt lat="29.42616000" lon="82.94039000">
        <ele>4344.0000</ele>
        <time>2010-01-01T01:26:29Z</time>
      </trkpt>
      <trkpt lat="29.42613000" lon="82.94032000">
        <ele>4342.0000</ele>
        <time>2010-01-01T01:26:32Z</time>
      </trkpt>
      <trkpt lat="29.42613000" lon="82.94023000">
        <ele>4341.0000</ele>
        <time>2010-01-01T01:26:35Z</time>
      </trkpt>
      <trkpt lat="29.42619000" lon="82.94011000">
        <ele>4346.0000</ele>
        <time>2010-01-01T01:26:40Z</time>
      </trkpt>
      <trkpt lat="29.42627000" lon="82.93955000">
        <ele>4358.0000</ele>
        <time>2010-01-01T01:27:00Z</time>
      </trkpt>
      <trkpt lat="29.42660000" lon="82.93834000">
        <ele>4348.0000</ele>
        <time>2010-01-01T01:27:44Z</time>
      </trkpt>
      <trkpt lat="29.42674000" lon="82.93761000">
        <ele>4331.0000</ele>
        <time>2010-01-01T01:28:10Z</time>
      </trkpt>
      <trkpt lat="29.42670000" lon="82.93739000">
        <ele>4325.0000</ele>
        <time>2010-01-01T01:28:18Z</time>
      </trkpt>
      <trkpt lat="29.42656000" lon="82.93719000">
        <ele>4322.0000</ele>
        <time>2010-01-01T01:28:27Z</time>
      </trkpt>
      <trkpt lat="29.42652000" lon="82.93709000">
        <ele>4323.0000</ele>
        <time>2010-01-01T01:28:31Z</time>
      </trkpt>
      <trkpt lat="29.42633000" lon="82.93629000">
        <ele>4312.0000</ele>
        <time>2010-01-01T01:29:00Z</time>
      </trkpt>
      <trkpt lat="29.42630000" lon="82.93594000">
        <ele>4302.0000</ele>
        <time>2010-01-01T01:29:12Z</time>
      </trkpt>
      <trkpt lat="29.42642000" lon="82.93561000">
        <ele>4299.0000</ele>
        <time>2010-01-01T01:29:24Z</time>
      </trkpt>
      <trkpt lat="29.42640000" lon="82.93552000">
        <ele>4297.0000</ele>
        <time>2010-01-01T01:29:27Z</time>
      </trkpt>
      <trkpt lat="29.42629000" lon="82.93524000">
        <ele>4291.0000</ele>
        <time>2010-01-01T01:29:38Z</time>
      </trkpt>
      <trkpt lat="29.42628000" lon="82.93498000">
        <ele>4288.0000</ele>
        <time>2010-01-01T01:29:47Z</time>
      </trkpt>
      <trkpt lat="29.42625000" lon="82.93490000">
        <ele>4286.0000</ele>
        <time>2010-01-01T01:29:50Z</time>
      </trkpt>
      <trkpt lat="29.42628000" lon="82.93468000">
        <ele>4283.0000</ele>
        <time>2010-01-01T01:29:58Z</time>
      </trkpt>
      <trkpt lat="29.42625000" lon="82.93462000">
        <ele>4282.0000</ele>
        <time>2010-01-01T01:30:00Z</time>
      </trkpt>
      <trkpt lat="29.42626000" lon="82.93446000">
        <ele>4280.0000</ele>
        <time>2010-01-01T01:30:06Z</time>
      </trkpt>
      <trkpt lat="29.42624000" lon="82.93430000">
        <ele>4279.0000</ele>
        <time>2010-01-01T01:30:12Z</time>
      </trkpt>
      <trkpt lat="29.42618000" lon="82.93412000">
        <ele>4276.0000</ele>
        <time>2010-01-01T01:30:18Z</time>
      </trkpt>
      <trkpt lat="29.42610000" lon="82.93370000">
        <ele>4267.0000</ele>
        <time>2010-01-01T01:30:33Z</time>
      </trkpt>
      <trkpt lat="29.42592000" lon="82.93333000">
        <ele>4262.0000</ele>
        <time>2010-01-01T01:30:48Z</time>
      </trkpt>
      <trkpt lat="29.42578000" lon="82.93322000">
        <ele>4260.0000</ele>
        <time>2010-01-01T01:30:55Z</time>
      </trkpt>
      <trkpt lat="29.42571000" lon="82.93312000">
        <ele>4259.0000</ele>
        <time>2010-01-01T01:30:59Z</time>
      </trkpt>
      <trkpt lat="29.42557000" lon="82.93301000">
        <ele>4256.0000</ele>
        <time>2010-01-01T01:31:06Z</time>
      </trkpt>
      <trkpt lat="29.42543000" lon="82.93292000">
        <ele>4251.0000</ele>
        <time>2010-01-01T01:31:13Z</time>
      </trkpt>
      <trkpt lat="29.42537000" lon="82.93284000">
        <ele>4250.0000</ele>
        <time>2010-01-01T01:31:16Z</time>
      </trkpt>
      <trkpt lat="29.42522000" lon="82.93255000">
        <ele>4247.0000</ele>
        <time>2010-01-01T01:31:28Z</time>
      </trkpt>
      <trkpt lat="29.42522000" lon="82.93254000">
        <ele>4247.0000</ele>
        <time>2010-01-01T01:31:28Z</time>
      </trkpt>
      <trkpt lat="29.42512000" lon="82.93241000">
        <ele>4245.0000</ele>
        <time>2010-01-01T01:31:35Z</time>
      </trkpt>
      <trkpt lat="29.42489000" lon="82.93214000">
        <ele>4238.0000</ele>
        <time>2010-01-01T01:31:48Z</time>
      </trkpt>
      <trkpt lat="29.42477000" lon="82.93203000">
        <ele>4234.0000</ele>
        <time>2010-01-01T01:31:54Z</time>
      </trkpt>
      <trkpt lat="29.42455000" lon="82.93167000">
        <ele>4230.0000</ele>
        <time>2010-01-01T01:32:09Z</time>
      </trkpt>
      <trkpt lat="29.42441000" lon="82.93158000">
        <ele>4225.0000</ele>
        <time>2010-01-01T01:32:16Z</time>
      </trkpt>
      <trkpt lat="29.42434000" lon="82.93147000">
        <ele>4224.0000</ele>
        <time>2010-01-01T01:32:20Z</time>
      </trkpt>
      <trkpt lat="29.42429000" lon="82.93133000">
        <ele>4223.0000</ele>
        <time>2010-01-01T01:32:26Z</time>
      </trkpt>
      <trkpt lat="29.42426000" lon="82.93112000">
        <ele>4221.0000</ele>
        <time>2010-01-01T01:32:33Z</time>
      </trkpt>
      <trkpt lat="29.42416000" lon="82.93091000">
        <ele>4217.0000</ele>
        <time>2010-01-01T01:32:41Z</time>
      </trkpt>
      <trkpt lat="29.42414000" lon="82.93083000">
        <ele>4216.0000</ele>
        <time>2010-01-01T01:32:44Z</time>
      </trkpt>
      <trkpt lat="29.42414000" lon="82.93078000">
        <ele>4216.0000</ele>
        <time>2010-01-01T01:32:46Z</time>
      </trkpt>
      <trkpt lat="29.42421000" lon="82.93066000">
        <ele>4217.0000</ele>
        <time>2010-01-01T01:32:51Z</time>
      </trkpt>
      <trkpt lat="29.42423000" lon="82.93052000">
        <ele>4218.0000</ele>
        <time>2010-01-01T01:32:56Z</time>
      </trkpt>
      <trkpt lat="29.42414000" lon="82.93041000">
        <ele>4216.0000</ele>
        <time>2010-01-01T01:33:01Z</time>
      </trkpt>
      <trkpt lat="29.42403000" lon="82.93030000">
        <ele>4214.0000</ele>
        <time>2010-01-01T01:33:07Z</time>
      </trkpt>
      <trkpt lat="29.42380000" lon="82.93013000">
        <ele>4210.0000</ele>
        <time>2010-01-01T01:33:18Z</time>
      </trkpt>
      <trkpt lat="29.42375000" lon="82.93006000">
        <ele>4210.0000</ele>
        <time>2010-01-01T01:33:21Z</time>
      </trkpt>
      <trkpt lat="29.42370000" lon="82.92994000">
        <ele>4209.0000</ele>
        <time>2010-01-01T01:33:26Z</time>
      </trkpt>
      <trkpt lat="29.42369000" lon="82.92983000">
        <ele>4208.0000</ele>
        <time>2010-01-01T01:33:30Z</time>
      </trkpt>
      <trkpt lat="29.42370000" lon="82.92943000">
        <ele>4202.0000</ele>
        <time>2010-01-01T01:33:44Z</time>
      </trkpt>
      <trkpt lat="29.42364000" lon="82.92930000">
        <ele>4200.0000</ele>
        <time>2010-01-01T01:33:49Z</time>
      </trkpt>
      <trkpt lat="29.42359000" lon="82.92914000">
        <ele>4198.0000</ele>
        <time>2010-01-01T01:33:55Z</time>
      </trkpt>
      <trkpt lat="29.42348000" lon="82.92902000">
        <ele>4196.0000</ele>
        <time>2010-01-01T01:34:01Z</time>
      </trkpt>
      <trkpt lat="29.42342000" lon="82.92892000">
        <ele>4194.0000</ele>
        <time>2010-01-01T01:34:05Z</time>
      </trkpt>
      <trkpt lat="29.42331000" lon="82.92888000">
        <ele>4191.0000</ele>
        <time>2010-01-01T01:34:10Z</time>
      </trkpt>
      <trkpt lat="29.42308000" lon="82.92871000">
        <ele>4186.0000</ele>
        <time>2010-01-01T01:34:21Z</time>
      </trkpt>
      <trkpt lat="29.42309000" lon="82.92812000">
        <ele>4185.0000</ele>
        <time>2010-01-01T01:34:41Z</time>
      </trkpt>
      <trkpt lat="29.42300000" lon="82.92774000">
        <ele>4179.0000</ele>
        <time>2010-01-01T01:34:55Z</time>
      </trkpt>
      <trkpt lat="29.42299000" lon="82.92759000">
        <ele>4178.0000</ele>
        <time>2010-01-01T01:35:00Z</time>
      </trkpt>
      <trkpt lat="29.42303000" lon="82.92734000">
        <ele>4179.0000</ele>
        <time>2010-01-01T01:35:09Z</time>
      </trkpt>
      <trkpt lat="29.42300000" lon="82.92720000">
        <ele>4178.0000</ele>
        <time>2010-01-01T01:35:14Z</time>
      </trkpt>
      <trkpt lat="29.42299000" lon="82.92709000">
        <ele>4176.0000</ele>
        <time>2010-01-01T01:35:18Z</time>
      </trkpt>
      <trkpt lat="29.42295000" lon="82.92686000">
        <ele>4170.0000</ele>
        <time>2010-01-01T01:35:26Z</time>
      </trkpt>
      <trkpt lat="29.42308000" lon="82.92633000">
        <ele>4160.0000</ele>
        <time>2010-01-01T01:35:45Z</time>
      </trkpt>
      <trkpt lat="29.42310000" lon="82.92626000">
        <ele>4158.0000</ele>
        <time>2010-01-01T01:35:48Z</time>
      </trkpt>
      <trkpt lat="29.42314000" lon="82.92621000">
        <ele>4158.0000</ele>
        <time>2010-01-01T01:35:50Z</time>
      </trkpt>
      <trkpt lat="29.42321000" lon="82.92604000">
        <ele>4156.0000</ele>
        <time>2010-01-01T01:35:57Z</time>
      </trkpt>
      <trkpt lat="29.42324000" lon="82.92589000">
        <ele>4153.0000</ele>
        <time>2010-01-01T01:36:02Z</time>
      </trkpt>
      <trkpt lat="29.42334000" lon="82.92572000">
        <ele>4151.0000</ele>
        <time>2010-01-01T01:36:09Z</time>
      </trkpt>
      <trkpt lat="29.42342000" lon="82.92564000">
        <ele>4152.0000</ele>
        <time>2010-01-01T01:36:14Z</time>
      </trkpt>
      <trkpt lat="29.42347000" lon="82.92557000">
        <ele>4153.0000</ele>
        <time>2010-01-01T01:36:17Z</time>
      </trkpt>
      <trkpt lat="29.42352000" lon="82.92544000">
        <ele>4152.0000</ele>
        <time>2010-01-01T01:36:22Z</time>
      </trkpt>
      <trkpt lat="29.42354000" lon="82.92529000">
        <ele>4150.0000</ele>
        <time>2010-01-01T01:36:27Z</time>
      </trkpt>
      <trkpt lat="29.42354000" lon="82.92524000">
        <ele>4149.0000</ele>
        <time>2010-01-01T01:36:29Z</time>
      </trkpt>
      <trkpt lat="29.42340000" lon="82.92494000">
        <ele>4142.0000</ele>
        <time>2010-01-01T01:36:41Z</time>
      </trkpt>
      <trkpt lat="29.42338000" lon="82.92484000">
        <ele>4141.0000</ele>
        <time>2010-01-01T01:36:44Z</time>
      </trkpt>
      <trkpt lat="29.42337000" lon="82.92447000">
        <ele>4135.0000</ele>
        <time>2010-01-01T01:36:57Z</time>
      </trkpt>
      <trkpt lat="29.42336000" lon="82.92444000">
        <ele>4134.0000</ele>
        <time>2010-01-01T01:36:58Z</time>
      </trkpt>
      <trkpt lat="29.42330000" lon="82.92440000">
        <ele>4132.0000</ele>
        <time>2010-01-01T01:37:01Z</time>
      </trkpt>
      <trkpt lat="29.42327000" lon="82.92427000">
        <ele>4127.0000</ele>
        <time>2010-01-01T01:37:06Z</time>
      </trkpt>
      <trkpt lat="29.42324000" lon="82.92426000">
        <ele>4127.0000</ele>
        <time>2010-01-01T01:37:07Z</time>
      </trkpt>
      <trkpt lat="29.42323000" lon="82.92423000">
        <ele>4126.0000</ele>
        <time>2010-01-01T01:37:08Z</time>
      </trkpt>
      <trkpt lat="29.42319000" lon="82.92421000">
        <ele>4125.0000</ele>
        <time>2010-01-01T01:37:10Z</time>
      </trkpt>
      <trkpt lat="29.42316000" lon="82.92416000">
        <ele>4124.0000</ele>
        <time>2010-01-01T01:37:12Z</time>
      </trkpt>
      <trkpt lat="29.42316000" lon="82.92411000">
        <ele>4123.0000</ele>
        <time>2010-01-01T01:37:14Z</time>
      </trkpt>
      <trkpt lat="29.42321000" lon="82.92404000">
        <ele>4122.0000</ele>
        <time>2010-01-01T01:37:17Z</time>
      </trkpt>
      <trkpt lat="29.42321000" lon="82.92399000">
        <ele>4121.0000</ele>
        <time>2010-01-01T01:37:18Z</time>
      </trkpt>
      <trkpt lat="29.42315000" lon="82.92386000">
        <ele>4119.0000</ele>
        <time>2010-01-01T01:37:24Z</time>
      </trkpt>
      <trkpt lat="29.42315000" lon="82.92381000">
        <ele>4118.0000</ele>
        <time>2010-01-01T01:37:25Z</time>
      </trkpt>
      <trkpt lat="29.42324000" lon="82.92382000">
        <ele>4118.0000</ele>
        <time>2010-01-01T01:37:29Z</time>
      </trkpt>
      <trkpt lat="29.42327000" lon="82.92381000">
        <ele>4118.0000</ele>
        <time>2010-01-01T01:37:30Z</time>
      </trkpt>
      <trkpt lat="29.42328000" lon="82.92378000">
        <ele>4118.0000</ele>
        <time>2010-01-01T01:37:31Z</time>
      </trkpt>
      <trkpt lat="29.42345000" lon="82.92387000">
        <ele>4121.0000</ele>
        <time>2010-01-01T01:37:39Z</time>
      </trkpt>
      <trkpt lat="29.42370000" lon="82.92407000">
        <ele>4132.0000</ele>
        <time>2010-01-01T01:37:51Z</time>
      </trkpt>
      <trkpt lat="29.42380000" lon="82.92405000">
        <ele>4134.0000</ele>
        <time>2010-01-01T01:37:55Z</time>
      </trkpt>
      <trkpt lat="29.42384000" lon="82.92411000">
        <ele>4137.0000</ele>
        <time>2010-01-01T01:37:58Z</time>
      </trkpt>
      <trkpt lat="29.42396000" lon="82.92393000">
        <ele>4137.0000</ele>
        <time>2010-01-01T01:38:06Z</time>
      </trkpt>
      <trkpt lat="29.42411000" lon="82.92407000">
        <ele>4145.0000</ele>
        <time>2010-01-01T01:38:13Z</time>
      </trkpt>
      <trkpt lat="29.42448000" lon="82.92404000">
        <ele>4152.0000</ele>
        <time>2010-01-01T01:38:28Z</time>
      </trkpt>
      <trkpt lat="29.42463000" lon="82.92407000">
        <ele>4156.0000</ele>
        <time>2010-01-01T01:38:34Z</time>
      </trkpt>
      <trkpt lat="29.42469000" lon="82.92410000">
        <ele>4158.0000</ele>
        <time>2010-01-01T01:38:37Z</time>
      </trkpt>
      <trkpt lat="29.42506000" lon="82.92409000">
        <ele>4171.0000</ele>
        <time>2010-01-01T01:38:52Z</time>
      </trkpt>
      <trkpt lat="29.42532000" lon="82.92403000">
        <ele>4180.0000</ele>
        <time>2010-01-01T01:39:02Z</time>
      </trkpt>
      <trkpt lat="29.42569000" lon="82.92398000">
        <ele>4191.0000</ele>
        <time>2010-01-01T01:39:17Z</time>
      </trkpt>
      <trkpt lat="29.42613000" lon="82.92388000">
        <ele>4197.0000</ele>
        <time>2010-01-01T01:39:35Z</time>
      </trkpt>
      <trkpt lat="29.42682000" lon="82.92367000">
        <ele>4216.0000</ele>
        <time>2010-01-01T01:40:04Z</time>
      </trkpt>
      <trkpt lat="29.42689000" lon="82.92374000">
        <ele>4218.0000</ele>
        <time>2010-01-01T01:40:08Z</time>
      </trkpt>
      <trkpt lat="29.42695000" lon="82.92374000">
        <ele>4220.0000</ele>
        <time>2010-01-01T01:40:10Z</time>
      </trkpt>
      <trkpt lat="29.42695000" lon="82.92378000">
        <ele>4221.0000</ele>
        <time>2010-01-01T01:40:11Z</time>
      </trkpt>
      <trkpt lat="29.42731000" lon="82.92377000">
        <ele>4232.0000</ele>
        <time>2010-01-01T01:40:26Z</time>
      </trkpt>
      <trkpt lat="29.42740000" lon="82.92384000">
        <ele>4235.0000</ele>
        <time>2010-01-01T01:40:30Z</time>
      </trkpt>
      <trkpt lat="29.42748000" lon="82.92379000">
        <ele>4238.0000</ele>
        <time>2010-01-01T01:40:34Z</time>
      </trkpt>
      <trkpt lat="29.42771000" lon="82.92374000">
        <ele>4245.0000</ele>
        <time>2010-01-01T01:40:43Z</time>
      </trkpt>
      <trkpt lat="29.42791000" lon="82.92383000">
        <ele>4252.0000</ele>
        <time>2010-01-01T01:40:52Z</time>
      </trkpt>
      <trkpt lat="29.42803000" lon="82.92398000">
        <ele>4258.0000</ele>
        <time>2010-01-01T01:40:59Z</time>
      </trkpt>
      <trkpt lat="29.42820000" lon="82.92400000">
        <ele>4264.0000</ele>
        <time>2010-01-01T01:41:06Z</time>
      </trkpt>
      <trkpt lat="29.42855000" lon="82.92412000">
        <ele>4275.0000</ele>
        <time>2010-01-01T01:41:20Z</time>
      </trkpt>
      <trkpt lat="29.42899000" lon="82.92440000">
        <ele>4286.0000</ele>
        <time>2010-01-01T01:41:40Z</time>
      </trkpt>
      <trkpt lat="29.42938000" lon="82.92469000">
        <ele>4303.0000</ele>
        <time>2010-01-01T01:41:59Z</time>
      </trkpt>
      <trkpt lat="29.42953000" lon="82.92476000">
        <ele>4305.0000</ele>
        <time>2010-01-01T01:42:05Z</time>
      </trkpt>
      <trkpt lat="29.42972000" lon="82.92478000">
        <ele>4306.0000</ele>
        <time>2010-01-01T01:42:13Z</time>
      </trkpt>
      <trkpt lat="29.43004000" lon="82.92472000">
        <ele>4309.0000</ele>
        <time>2010-01-01T01:42:26Z</time>
      </trkpt>
      <trkpt lat="29.43043000" lon="82.92474000">
        <ele>4323.0000</ele>
        <time>2010-01-01T01:42:42Z</time>
      </trkpt>
      <trkpt lat="29.43083000" lon="82.92486000">
        <ele>4335.0000</ele>
        <time>2010-01-01T01:42:58Z</time>
      </trkpt>
      <trkpt lat="29.43110000" lon="82.92490000">
        <ele>4338.0000</ele>
        <time>2010-01-01T01:43:09Z</time>
      </trkpt>
      <trkpt lat="29.43130000" lon="82.92485000">
        <ele>4340.0000</ele>
        <time>2010-01-01T01:43:17Z</time>
      </trkpt>
      <trkpt lat="29.43161000" lon="82.92492000">
        <ele>4349.0000</ele>
        <time>2010-01-01T01:43:30Z</time>
      </trkpt>
      <trkpt lat="29.43193000" lon="82.92484000">
        <ele>4359.0000</ele>
        <time>2010-01-01T01:43:43Z</time>
      </trkpt>
      <trkpt lat="29.43230000" lon="82.92468000">
        <ele>4373.0000</ele>
        <time>2010-01-01T01:43:59Z</time>
      </trkpt>
      <trkpt lat="29.43256000" lon="82.92452000">
        <ele>4378.0000</ele>
        <time>2010-01-01T01:44:11Z</time>
      </trkpt>
      <trkpt lat="29.43277000" lon="82.92435000">
        <ele>4380.0000</ele>
        <time>2010-01-01T01:44:21Z</time>
      </trkpt>
      <trkpt lat="29.43385000" lon="82.92409000">
        <ele>4427.0000</ele>
        <time>2010-01-01T01:45:05Z</time>
      </trkpt>
      <trkpt lat="29.43436000" lon="82.92394000">
        <ele>4433.0000</ele>
        <time>2010-01-01T01:45:26Z</time>
      </trkpt>
      <trkpt lat="29.43448000" lon="82.92395000">
        <ele>4435.0000</ele>
        <time>2010-01-01T01:45:31Z</time>
      </trkpt>
      <trkpt lat="29.43468000" lon="82.92407000">
        <ele>4432.0000</ele>
        <time>2010-01-01T01:45:40Z</time>
      </trkpt>
      <trkpt lat="29.43490000" lon="82.92409000">
        <ele>4424.0000</ele>
        <time>2010-01-01T01:45:49Z</time>
      </trkpt>
      <trkpt lat="29.43500000" lon="82.92415000">
        <ele>4418.0000</ele>
        <time>2010-01-01T01:45:53Z</time>
      </trkpt>
      <trkpt lat="29.43513000" lon="82.92412000">
        <ele>4413.0000</ele>
        <time>2010-01-01T01:45:59Z</time>
      </trkpt>
      <trkpt lat="29.43520000" lon="82.92407000">
        <ele>4412.0000</ele>
        <time>2010-01-01T01:46:02Z</time>
      </trkpt>
      <trkpt lat="29.43529000" lon="82.92408000">
        <ele>4407.0000</ele>
        <time>2010-01-01T01:46:06Z</time>
      </trkpt>
      <trkpt lat="29.43533000" lon="82.92403000">
        <ele>4408.0000</ele>
        <time>2010-01-01T01:46:08Z</time>
      </trkpt>
      <trkpt lat="29.43540000" lon="82.92403000">
        <ele>4404.0000</ele>
        <time>2010-01-01T01:46:11Z</time>
      </trkpt>
      <trkpt lat="29.43551000" lon="82.92391000">
        <ele>4402.0000</ele>
        <time>2010-01-01T01:46:17Z</time>
      </trkpt>
      <trkpt lat="29.43556000" lon="82.92393000">
        <ele>4398.0000</ele>
        <time>2010-01-01T01:46:19Z</time>
      </trkpt>
      <trkpt lat="29.43561000" lon="82.92384000">
        <ele>4398.0000</ele>
        <time>2010-01-01T01:46:23Z</time>
      </trkpt>
      <trkpt lat="29.43565000" lon="82.92387000">
        <ele>4395.0000</ele>
        <time>2010-01-01T01:46:25Z</time>
      </trkpt>
      <trkpt lat="29.43575000" lon="82.92378000">
        <ele>4392.0000</ele>
        <time>2010-01-01T01:46:30Z</time>
      </trkpt>
      <trkpt lat="29.43598000" lon="82.92364000">
        <ele>4386.0000</ele>
        <time>2010-01-01T01:46:40Z</time>
      </trkpt>
      <trkpt lat="29.43626000" lon="82.92351000">
        <ele>4376.0000</ele>
        <time>2010-01-01T01:46:52Z</time>
      </trkpt>
      <trkpt lat="29.43713000" lon="82.92330000">
        <ele>4338.0000</ele>
        <time>2010-01-01T01:47:28Z</time>
      </trkpt>
      <trkpt lat="29.43735000" lon="82.92319000">
        <ele>4330.0000</ele>
        <time>2010-01-01T01:47:38Z</time>
      </trkpt>
      <trkpt lat="29.43746000" lon="82.92307000">
        <ele>4327.0000</ele>
        <time>2010-01-01T01:47:44Z</time>
      </trkpt>
      <trkpt lat="29.43749000" lon="82.92313000">
        <ele>4325.0000</ele>
        <time>2010-01-01T01:47:46Z</time>
      </trkpt>
      <trkpt lat="29.43764000" lon="82.92297000">
        <ele>4317.0000</ele>
        <time>2010-01-01T01:47:54Z</time>
      </trkpt>
      <trkpt lat="29.43770000" lon="82.92301000">
        <ele>4312.0000</ele>
        <time>2010-01-01T01:47:57Z</time>
      </trkpt>
      <trkpt lat="29.43781000" lon="82.92290000">
        <ele>4306.0000</ele>
        <time>2010-01-01T01:48:03Z</time>
      </trkpt>
      <trkpt lat="29.43782000" lon="82.92296000">
        <ele>4304.0000</ele>
        <time>2010-01-01T01:48:05Z</time>
      </trkpt>
      <trkpt lat="29.43797000" lon="82.92281000">
        <ele>4298.0000</ele>
        <time>2010-01-01T01:48:13Z</time>
      </trkpt>
      <trkpt lat="29.43807000" lon="82.92286000">
        <ele>4292.0000</ele>
        <time>2010-01-01T01:48:17Z</time>
      </trkpt>
      <trkpt lat="29.43816000" lon="82.92272000">
        <ele>4289.0000</ele>
        <time>2010-01-01T01:48:23Z</time>
      </trkpt>
      <trkpt lat="29.43819000" lon="82.92278000">
        <ele>4287.0000</ele>
        <time>2010-01-01T01:48:26Z</time>
      </trkpt>
      <trkpt lat="29.43825000" lon="82.92267000">
        <ele>4285.0000</ele>
        <time>2010-01-01T01:48:30Z</time>
      </trkpt>
      <trkpt lat="29.43832000" lon="82.92272000">
        <ele>4281.0000</ele>
        <time>2010-01-01T01:48:34Z</time>
      </trkpt>
      <trkpt lat="29.43834000" lon="82.92264000">
        <ele>4281.0000</ele>
        <time>2010-01-01T01:48:36Z</time>
      </trkpt>
      <trkpt lat="29.43838000" lon="82.92269000">
        <ele>4279.0000</ele>
        <time>2010-01-01T01:48:39Z</time>
      </trkpt>
      <trkpt lat="29.43842000" lon="82.92266000">
        <ele>4277.0000</ele>
        <time>2010-01-01T01:48:41Z</time>
      </trkpt>
      <trkpt lat="29.43848000" lon="82.92272000">
        <ele>4274.0000</ele>
        <time>2010-01-01T01:48:44Z</time>
      </trkpt>
      <trkpt lat="29.43853000" lon="82.92263000">
        <ele>4273.0000</ele>
        <time>2010-01-01T01:48:48Z</time>
      </trkpt>
      <trkpt lat="29.43860000" lon="82.92264000">
        <ele>4270.0000</ele>
        <time>2010-01-01T01:48:50Z</time>
      </trkpt>
      <trkpt lat="29.43869000" lon="82.92256000">
        <ele>4264.0000</ele>
        <time>2010-01-01T01:48:55Z</time>
      </trkpt>
      <trkpt lat="29.43874000" lon="82.92261000">
        <ele>4260.0000</ele>
        <time>2010-01-01T01:48:58Z</time>
      </trkpt>
      <trkpt lat="29.43882000" lon="82.92253000">
        <ele>4254.0000</ele>
        <time>2010-01-01T01:49:02Z</time>
      </trkpt>
      <trkpt lat="29.43887000" lon="82.92257000">
        <ele>4251.0000</ele>
        <time>2010-01-01T01:49:04Z</time>
      </trkpt>
      <trkpt lat="29.43892000" lon="82.92249000">
        <ele>4247.0000</ele>
        <time>2010-01-01T01:49:08Z</time>
      </trkpt>
      <trkpt lat="29.43897000" lon="82.92255000">
        <ele>4245.0000</ele>
        <time>2010-01-01T01:49:11Z</time>
      </trkpt>
      <trkpt lat="29.43903000" lon="82.92249000">
        <ele>4242.0000</ele>
        <time>2010-01-01T01:49:14Z</time>
      </trkpt>
      <trkpt lat="29.43910000" lon="82.92254000">
        <ele>4239.0000</ele>
        <time>2010-01-01T01:49:17Z</time>
      </trkpt>
      <trkpt lat="29.43926000" lon="82.92242000">
        <ele>4231.0000</ele>
        <time>2010-01-01T01:49:25Z</time>
      </trkpt>
      <trkpt lat="29.43936000" lon="82.92244000">
        <ele>4224.0000</ele>
        <time>2010-01-01T01:49:29Z</time>
      </trkpt>
      <trkpt lat="29.44017000" lon="82.92218000">
        <ele>4203.0000</ele>
        <time>2010-01-01T01:50:03Z</time>
      </trkpt>
      <trkpt lat="29.44030000" lon="82.92207000">
        <ele>4200.0000</ele>
        <time>2010-01-01T01:50:09Z</time>
      </trkpt>
      <trkpt lat="29.44052000" lon="82.92197000">
        <ele>4193.0000</ele>
        <time>2010-01-01T01:50:19Z</time>
      </trkpt>
      <trkpt lat="29.44060000" lon="82.92203000">
        <ele>4190.0000</ele>
        <time>2010-01-01T01:50:22Z</time>
      </trkpt>
      <trkpt lat="29.44072000" lon="82.92206000">
        <ele>4186.0000</ele>
        <time>2010-01-01T01:50:27Z</time>
      </trkpt>
      <trkpt lat="29.44090000" lon="82.92191000">
        <ele>4180.0000</ele>
        <time>2010-01-01T01:50:36Z</time>
      </trkpt>
      <trkpt lat="29.44127000" lon="82.92169000">
        <ele>4168.0000</ele>
        <time>2010-01-01T01:50:53Z</time>
      </trkpt>
      <trkpt lat="29.44143000" lon="82.92170000">
        <ele>4160.0000</ele>
        <time>2010-01-01T01:50:59Z</time>
      </trkpt>
      <trkpt lat="29.44155000" lon="82.92177000">
        <ele>4154.0000</ele>
        <time>2010-01-01T01:51:05Z</time>
      </trkpt>
      <trkpt lat="29.44171000" lon="82.92179000">
        <ele>4146.0000</ele>
        <time>2010-01-01T01:51:11Z</time>
      </trkpt>
      <trkpt lat="29.44220000" lon="82.92156000">
        <ele>4131.0000</ele>
        <time>2010-01-01T01:51:32Z</time>
      </trkpt>
      <trkpt lat="29.44225000" lon="82.92158000">
        <ele>4130.0000</ele>
        <time>2010-01-01T01:51:34Z</time>
      </trkpt>
      <trkpt lat="29.44233000" lon="82.92153000">
        <ele>4126.0000</ele>
        <time>2010-01-01T01:51:38Z</time>
      </trkpt>
      <trkpt lat="29.44238000" lon="82.92153000">
        <ele>4124.0000</ele>
        <time>2010-01-01T01:51:40Z</time>
      </trkpt>
      <trkpt lat="29.44242000" lon="82.92157000">
        <ele>4123.0000</ele>
        <time>2010-01-01T01:51:42Z</time>
      </trkpt>
      <trkpt lat="29.44246000" lon="82.92150000">
        <ele>4121.0000</ele>
        <time>2010-01-01T01:51:45Z</time>
      </trkpt>
      <trkpt lat="29.44256000" lon="82.92140000">
        <ele>4117.0000</ele>
        <time>2010-01-01T01:51:50Z</time>
      </trkpt>
      <trkpt lat="29.44265000" lon="82.92139000">
        <ele>4116.0000</ele>
        <time>2010-01-01T01:51:54Z</time>
      </trkpt>
      <trkpt lat="29.44276000" lon="82.92142000">
        <ele>4114.0000</ele>
        <time>2010-01-01T01:51:59Z</time>
      </trkpt>
      <trkpt lat="29.44280000" lon="82.92137000">
        <ele>4113.0000</ele>
        <time>2010-01-01T01:52:01Z</time>
      </trkpt>
      <trkpt lat="29.44292000" lon="82.92130000">
        <ele>4110.0000</ele>
        <time>2010-01-01T01:52:06Z</time>
      </trkpt>
      <trkpt lat="29.44297000" lon="82.92122000">
        <ele>4109.0000</ele>
        <time>2010-01-01T01:52:10Z</time>
      </trkpt>
      <trkpt lat="29.44317000" lon="82.92105000">
        <ele>4104.0000</ele>
        <time>2010-01-01T01:52:20Z</time>
      </trkpt>
      <trkpt lat="29.44329000" lon="82.92103000">
        <ele>4100.0000</ele>
        <time>2010-01-01T01:52:25Z</time>
      </trkpt>
      <trkpt lat="29.44344000" lon="82.92095000">
        <ele>4094.0000</ele>
        <time>2010-01-01T01:52:31Z</time>
      </trkpt>
      <trkpt lat="29.44352000" lon="82.92086000">
        <ele>4091.0000</ele>
        <time>2010-01-01T01:52:36Z</time>
      </trkpt>
      <trkpt lat="29.44362000" lon="82.92082000">
        <ele>4087.0000</ele>
        <time>2010-01-01T01:52:40Z</time>
      </trkpt>
      <trkpt lat="29.44381000" lon="82.92067000">
        <ele>4083.0000</ele>
        <time>2010-01-01T01:52:49Z</time>
      </trkpt>
      <trkpt lat="29.44391000" lon="82.92063000">
        <ele>4082.0000</ele>
        <time>2010-01-01T01:52:53Z</time>
      </trkpt>
      <trkpt lat="29.44399000" lon="82.92056000">
        <ele>4081.0000</ele>
        <time>2010-01-01T01:52:57Z</time>
      </trkpt>
      <trkpt lat="29.44409000" lon="82.92054000">
        <ele>4080.0000</ele>
        <time>2010-01-01T01:53:01Z</time>
      </trkpt>
      <trkpt lat="29.44417000" lon="82.92038000">
        <ele>4078.0000</ele>
        <time>2010-01-01T01:53:08Z</time>
      </trkpt>
      <trkpt lat="29.44424000" lon="82.92034000">
        <ele>4076.0000</ele>
        <time>2010-01-01T01:53:11Z</time>
      </trkpt>
      <trkpt lat="29.44427000" lon="82.92023000">
        <ele>4075.0000</ele>
        <time>2010-01-01T01:53:15Z</time>
      </trkpt>
      <trkpt lat="29.44447000" lon="82.92020000">
        <ele>4071.0000</ele>
        <time>2010-01-01T01:53:23Z</time>
      </trkpt>
      <trkpt lat="29.44450000" lon="82.92017000">
        <ele>4069.0000</ele>
        <time>2010-01-01T01:53:25Z</time>
      </trkpt>
      <trkpt lat="29.44448000" lon="82.91994000">
        <ele>4068.0000</ele>
        <time>2010-01-01T01:53:33Z</time>
      </trkpt>
      <trkpt lat="29.44456000" lon="82.91990000">
        <ele>4064.0000</ele>
        <time>2010-01-01T01:53:36Z</time>
      </trkpt>
      <trkpt lat="29.44451000" lon="82.91969000">
        <ele>4062.0000</ele>
        <time>2010-01-01T01:53:44Z</time>
      </trkpt>
      <trkpt lat="29.44461000" lon="82.91960000">
        <ele>4056.0000</ele>
        <time>2010-01-01T01:53:49Z</time>
      </trkpt>
      <trkpt lat="29.44466000" lon="82.91950000">
        <ele>4051.0000</ele>
        <time>2010-01-01T01:53:53Z</time>
      </trkpt>
      <trkpt lat="29.44481000" lon="82.91940000">
        <ele>4045.0000</ele>
        <time>2010-01-01T01:54:00Z</time>
      </trkpt>
      <trkpt lat="29.44499000" lon="82.91930000">
        <ele>4041.0000</ele>
        <time>2010-01-01T01:54:08Z</time>
      </trkpt>
      <trkpt lat="29.44512000" lon="82.91926000">
        <ele>4036.0000</ele>
        <time>2010-01-01T01:54:13Z</time>
      </trkpt>
      <trkpt lat="29.44525000" lon="82.91919000">
        <ele>4032.0000</ele>
        <time>2010-01-01T01:54:19Z</time>
      </trkpt>
      <trkpt lat="29.44543000" lon="82.91920000">
        <ele>4026.0000</ele>
        <time>2010-01-01T01:54:26Z</time>
      </trkpt>
      <trkpt lat="29.44567000" lon="82.91907000">
        <ele>4021.0000</ele>
        <time>2010-01-01T01:54:37Z</time>
      </trkpt>
      <trkpt lat="29.44591000" lon="82.91889000">
        <ele>4017.0000</ele>
        <time>2010-01-01T01:54:48Z</time>
      </trkpt>
      <trkpt lat="29.44605000" lon="82.91887000">
        <ele>4012.0000</ele>
        <time>2010-01-01T01:54:54Z</time>
      </trkpt>
      <trkpt lat="29.44611000" lon="82.91889000">
        <ele>4010.0000</ele>
        <time>2010-01-01T01:54:56Z</time>
      </trkpt>
      <trkpt lat="29.44640000" lon="82.91886000">
        <ele>3998.0000</ele>
        <time>2010-01-01T01:55:08Z</time>
      </trkpt>
      <trkpt lat="29.44644000" lon="82.91890000">
        <ele>3997.0000</ele>
        <time>2010-01-01T01:55:10Z</time>
      </trkpt>
      <trkpt lat="29.44656000" lon="82.91888000">
        <ele>3995.0000</ele>
        <time>2010-01-01T01:55:15Z</time>
      </trkpt>
      <trkpt lat="29.44664000" lon="82.91890000">
        <ele>3993.0000</ele>
        <time>2010-01-01T01:55:18Z</time>
      </trkpt>
      <trkpt lat="29.44669000" lon="82.91889000">
        <ele>3992.0000</ele>
        <time>2010-01-01T01:55:20Z</time>
      </trkpt>
      <trkpt lat="29.44687000" lon="82.91891000">
        <ele>3985.0000</ele>
        <time>2010-01-01T01:55:28Z</time>
      </trkpt>
      <trkpt lat="29.44700000" lon="82.91889000">
        <ele>3980.0000</ele>
        <time>2010-01-01T01:55:33Z</time>
      </trkpt>
      <trkpt lat="29.44709000" lon="82.91891000">
        <ele>3974.0000</ele>
        <time>2010-01-01T01:55:37Z</time>
      </trkpt>
      <trkpt lat="29.44716000" lon="82.91887000">
        <ele>3970.0000</ele>
        <time>2010-01-01T01:55:40Z</time>
      </trkpt>
      <trkpt lat="29.44724000" lon="82.91889000">
        <ele>3965.0000</ele>
        <time>2010-01-01T01:55:43Z</time>
      </trkpt>
      <trkpt lat="29.44728000" lon="82.91887000">
        <ele>3964.0000</ele>
        <time>2010-01-01T01:55:45Z</time>
      </trkpt>
      <trkpt lat="29.44735000" lon="82.91882000">
        <ele>3964.0000</ele>
        <time>2010-01-01T01:55:48Z</time>
      </trkpt>
      <trkpt lat="29.44743000" lon="82.91879000">
        <ele>3962.0000</ele>
        <time>2010-01-01T01:55:51Z</time>
      </trkpt>
      <trkpt lat="29.44748000" lon="82.91896000">
        <ele>3958.0000</ele>
        <time>2010-01-01T01:55:58Z</time>
      </trkpt>
      <trkpt lat="29.44757000" lon="82.91882000">
        <ele>3956.0000</ele>
        <time>2010-01-01T01:56:04Z</time>
      </trkpt>
      <trkpt lat="29.44770000" lon="82.91883000">
        <ele>3951.0000</ele>
        <time>2010-01-01T01:56:09Z</time>
      </trkpt>
      <trkpt lat="29.44785000" lon="82.91881000">
        <ele>3945.0000</ele>
        <time>2010-01-01T01:56:15Z</time>
      </trkpt>
      <trkpt lat="29.44798000" lon="82.91881000">
        <ele>3940.0000</ele>
        <time>2010-01-01T01:56:20Z</time>
      </trkpt>
      <trkpt lat="29.44805000" lon="82.91886000">
        <ele>3936.0000</ele>
        <time>2010-01-01T01:56:23Z</time>
      </trkpt>
      <trkpt lat="29.44834000" lon="82.91878000">
        <ele>3933.0000</ele>
        <time>2010-01-01T01:56:35Z</time>
      </trkpt>
      <trkpt lat="29.44843000" lon="82.91880000">
        <ele>3930.0000</ele>
        <time>2010-01-01T01:56:39Z</time>
      </trkpt>
      <trkpt lat="29.44847000" lon="82.91870000">
        <ele>3932.0000</ele>
        <time>2010-01-01T01:56:43Z</time>
      </trkpt>
      <trkpt lat="29.44851000" lon="82.91872000">
        <ele>3930.0000</ele>
        <time>2010-01-01T01:56:45Z</time>
      </trkpt>
      <trkpt lat="29.44857000" lon="82.91868000">
        <ele>3930.0000</ele>
        <time>2010-01-01T01:56:47Z</time>
      </trkpt>
      <trkpt lat="29.44867000" lon="82.91871000">
        <ele>3927.0000</ele>
        <time>2010-01-01T01:56:52Z</time>
      </trkpt>
      <trkpt lat="29.44868000" lon="82.91868000">
        <ele>3928.0000</ele>
        <time>2010-01-01T01:56:53Z</time>
      </trkpt>
      <trkpt lat="29.44871000" lon="82.91873000">
        <ele>3926.0000</ele>
        <time>2010-01-01T01:56:55Z</time>
      </trkpt>
      <trkpt lat="29.44886000" lon="82.91864000">
        <ele>3925.0000</ele>
        <time>2010-01-01T01:57:02Z</time>
      </trkpt>
      <trkpt lat="29.44890000" lon="82.91866000">
        <ele>3924.0000</ele>
        <time>2010-01-01T01:57:03Z</time>
      </trkpt>
      <trkpt lat="29.44899000" lon="82.91862000">
        <ele>3921.0000</ele>
        <time>2010-01-01T01:57:07Z</time>
      </trkpt>
      <trkpt lat="29.44906000" lon="82.91867000">
        <ele>3916.0000</ele>
        <time>2010-01-01T01:57:11Z</time>
      </trkpt>
      <trkpt lat="29.44915000" lon="82.91867000">
        <ele>3911.0000</ele>
        <time>2010-01-01T01:57:14Z</time>
      </trkpt>
      <trkpt lat="29.44937000" lon="82.91878000">
        <ele>3903.0000</ele>
        <time>2010-01-01T01:57:24Z</time>
      </trkpt>
      <trkpt lat="29.44945000" lon="82.91878000">
        <ele>3901.0000</ele>
        <time>2010-01-01T01:57:27Z</time>
      </trkpt>
      <trkpt lat="29.44950000" lon="82.91884000">
        <ele>3899.0000</ele>
        <time>2010-01-01T01:57:30Z</time>
      </trkpt>
      <trkpt lat="29.44964000" lon="82.91888000">
        <ele>3895.0000</ele>
        <time>2010-01-01T01:57:36Z</time>
      </trkpt>
      <trkpt lat="29.45002000" lon="82.91891000">
        <ele>3881.0000</ele>
        <time>2010-01-01T01:57:51Z</time>
      </trkpt>
      <trkpt lat="29.45034000" lon="82.91905000">
        <ele>3872.0000</ele>
        <time>2010-01-01T01:58:05Z</time>
      </trkpt>
      <trkpt lat="29.45043000" lon="82.91916000">
        <ele>3872.0000</ele>
        <time>2010-01-01T01:58:10Z</time>
      </trkpt>
      <trkpt lat="29.45060000" lon="82.91901000">
        <ele>3869.0000</ele>
        <time>2010-01-01T01:58:18Z</time>
      </trkpt>
      <trkpt lat="29.45077000" lon="82.91898000">
        <ele>3867.0000</ele>
        <time>2010-01-01T01:58:25Z</time>
      </trkpt>
      <trkpt lat="29.45095000" lon="82.91889000">
        <ele>3863.0000</ele>
        <time>2010-01-01T01:58:33Z</time>
      </trkpt>
      <trkpt lat="29.45109000" lon="82.91891000">
        <ele>3860.0000</ele>
        <time>2010-01-01T01:58:39Z</time>
      </trkpt>
      <trkpt lat="29.45148000" lon="82.91890000">
        <ele>3852.0000</ele>
        <time>2010-01-01T01:58:54Z</time>
      </trkpt>
      <trkpt lat="29.45174000" lon="82.91905000">
        <ele>3853.0000</ele>
        <time>2010-01-01T01:59:06Z</time>
      </trkpt>
      <trkpt lat="29.45170000" lon="82.91913000">
        <ele>3853.0000</ele>
        <time>2010-01-01T01:59:09Z</time>
      </trkpt>
      <trkpt lat="29.45169000" lon="82.91928000">
        <ele>3854.0000</ele>
        <time>2010-01-01T01:59:14Z</time>
      </trkpt>
      <trkpt lat="29.45164000" lon="82.91945000">
        <ele>3855.0000</ele>
        <time>2010-01-01T01:59:21Z</time>
      </trkpt>
      <trkpt lat="29.45172583" lon="82.91939735">
        <ele>3855.0000</ele>
        <time>2010-01-01T00:00:00Z</time>
      </trkpt>
      <trkpt lat="29.45166000" lon="82.91937000">
        <ele>3855.0000</ele>
        <time>2010-01-01T00:00:02Z</time>
      </trkpt>
      <trkpt lat="29.45169000" lon="82.91928000">
        <ele>3854.0000</ele>
        <time>2010-01-01T00:00:06Z</time>
      </trkpt>
      <trkpt lat="29.45170000" lon="82.91913000">
        <ele>3853.0000</ele>
        <time>2010-01-01T00:00:11Z</time>
      </trkpt>
      <trkpt lat="29.45174000" lon="82.91905000">
        <ele>3853.0000</ele>
        <time>2010-01-01T00:00:14Z</time>
      </trkpt>
      <trkpt lat="29.45176000" lon="82.91891000">
        <ele>3852.0000</ele>
        <time>2010-01-01T00:00:19Z</time>
      </trkpt>
      <trkpt lat="29.45186000" lon="82.91855000">
        <ele>3847.0000</ele>
        <time>2010-01-01T00:00:32Z</time>
      </trkpt>
      <trkpt lat="29.45188000" lon="82.91819000">
        <ele>3846.0000</ele>
        <time>2010-01-01T00:00:45Z</time>
      </trkpt>
      <trkpt lat="29.45195000" lon="82.91808000">
        <ele>3846.0000</ele>
        <time>2010-01-01T00:00:50Z</time>
      </trkpt>
      <trkpt lat="29.45202000" lon="82.91790000">
        <ele>3846.0000</ele>
        <time>2010-01-01T00:00:56Z</time>
      </trkpt>
      <trkpt lat="29.45211000" lon="82.91752000">
        <ele>3847.0000</ele>
        <time>2010-01-01T00:01:10Z</time>
      </trkpt>
      <trkpt lat="29.45209000" lon="82.91735000">
        <ele>3847.0000</ele>
        <time>2010-01-01T00:01:16Z</time>
      </trkpt>
      <trkpt lat="29.45206000" lon="82.91729000">
        <ele>3846.0000</ele>
        <time>2010-01-01T00:01:19Z</time>
      </trkpt>
      <trkpt lat="29.45194000" lon="82.91711000">
        <ele>3845.0000</ele>
        <time>2010-01-01T00:01:26Z</time>
      </trkpt>
      <trkpt lat="29.45188000" lon="82.91705000">
        <ele>3844.0000</ele>
        <time>2010-01-01T00:01:30Z</time>
      </trkpt>
      <trkpt lat="29.45185000" lon="82.91698000">
        <ele>3844.0000</ele>
        <time>2010-01-01T00:01:32Z</time>
      </trkpt>
      <trkpt lat="29.45187000" lon="82.91693000">
        <ele>3845.0000</ele>
        <time>2010-01-01T00:01:34Z</time>
      </trkpt>
      <trkpt lat="29.45197000" lon="82.91688000">
        <ele>3847.0000</ele>
        <time>2010-01-01T00:01:39Z</time>
      </trkpt>
      <trkpt lat="29.45210000" lon="82.91675000">
        <ele>3850.0000</ele>
        <time>2010-01-01T00:01:46Z</time>
      </trkpt>
      <trkpt lat="29.45226000" lon="82.91667000">
        <ele>3853.0000</ele>
        <time>2010-01-01T00:01:53Z</time>
      </trkpt>
      <trkpt lat="29.45241000" lon="82.91666000">
        <ele>3854.0000</ele>
        <time>2010-01-01T00:01:59Z</time>
      </trkpt>
      <trkpt lat="29.45245000" lon="82.91670000">
        <ele>3854.0000</ele>
        <time>2010-01-01T00:02:01Z</time>
      </trkpt>
      <trkpt lat="29.45250000" lon="82.91681000">
        <ele>3853.0000</ele>
        <time>2010-01-01T00:02:05Z</time>
      </trkpt>
      <trkpt lat="29.45252000" lon="82.91709000">
        <ele>3852.0000</ele>
        <time>2010-01-01T00:02:15Z</time>
      </trkpt>
      <trkpt lat="29.45253000" lon="82.91714000">
        <ele>3852.0000</ele>
        <time>2010-01-01T00:02:17Z</time>
      </trkpt>
      <trkpt lat="29.45264000" lon="82.91722000">
        <ele>3855.0000</ele>
        <time>2010-01-01T00:02:22Z</time>
      </trkpt>
      <trkpt lat="29.45281000" lon="82.91730000">
        <ele>3860.0000</ele>
        <time>2010-01-01T00:02:29Z</time>
      </trkpt>
      <trkpt lat="29.45300000" lon="82.91775000">
        <ele>3865.0000</ele>
        <time>2010-01-01T00:02:47Z</time>
      </trkpt>
      <trkpt lat="29.45302000" lon="82.91791000">
        <ele>3865.0000</ele>
        <time>2010-01-01T00:02:52Z</time>
      </trkpt>
      <trkpt lat="29.45306000" lon="82.91795000">
        <ele>3866.0000</ele>
        <time>2010-01-01T00:02:54Z</time>
      </trkpt>
      <trkpt lat="29.45311000" lon="82.91819000">
        <ele>3867.0000</ele>
        <time>2010-01-01T00:03:03Z</time>
      </trkpt>
      <trkpt lat="29.45316000" lon="82.91823000">
        <ele>3869.0000</ele>
        <time>2010-01-01T00:03:05Z</time>
      </trkpt>
      <trkpt lat="29.45327000" lon="82.91826000">
        <ele>3874.0000</ele>
        <time>2010-01-01T00:03:10Z</time>
      </trkpt>
      <trkpt lat="29.45330000" lon="82.91831000">
        <ele>3875.0000</ele>
        <time>2010-01-01T00:03:12Z</time>
      </trkpt>
      <trkpt lat="29.45328000" lon="82.91845000">
        <ele>3876.0000</ele>
        <time>2010-01-01T00:03:17Z</time>
      </trkpt>
      <trkpt lat="29.45331000" lon="82.91864000">
        <ele>3879.0000</ele>
        <time>2010-01-01T00:03:24Z</time>
      </trkpt>
      <trkpt lat="29.45330000" lon="82.91879000">
        <ele>3881.0000</ele>
        <time>2010-01-01T00:03:29Z</time>
      </trkpt>
      <trkpt lat="29.45328000" lon="82.91885000">
        <ele>3881.0000</ele>
        <time>2010-01-01T00:03:31Z</time>
      </trkpt>
      <trkpt lat="29.45321000" lon="82.91898000">
        <ele>3880.0000</ele>
        <time>2010-01-01T00:03:37Z</time>
      </trkpt>
      <trkpt lat="29.45320000" lon="82.91904000">
        <ele>3880.0000</ele>
        <time>2010-01-01T00:03:39Z</time>
      </trkpt>
      <trkpt lat="29.45316000" lon="82.91915000">
        <ele>3879.0000</ele>
        <time>2010-01-01T00:03:43Z</time>
      </trkpt>
      <trkpt lat="29.45315000" lon="82.91939000">
        <ele>3882.0000</ele>
        <time>2010-01-01T00:03:51Z</time>
      </trkpt>
      <trkpt lat="29.45310000" lon="82.91965000">
        <ele>3883.0000</ele>
        <time>2010-01-01T00:04:00Z</time>
      </trkpt>
      <trkpt lat="29.45306000" lon="82.91973000">
        <ele>3881.0000</ele>
        <time>2010-01-01T00:04:04Z</time>
      </trkpt>
      <trkpt lat="29.45297000" lon="82.91983000">
        <ele>3881.0000</ele>
        <time>2010-01-01T00:04:09Z</time>
      </trkpt>
      <trkpt lat="29.45294000" lon="82.91988000">
        <ele>3882.0000</ele>
        <time>2010-01-01T00:04:11Z</time>
      </trkpt>
      <trkpt lat="29.45299000" lon="82.91992000">
        <ele>3885.0000</ele>
        <time>2010-01-01T00:04:13Z</time>
      </trkpt>
      <trkpt lat="29.45322000" lon="82.92002000">
        <ele>3904.0000</ele>
        <time>2010-01-01T00:04:23Z</time>
      </trkpt>
      <trkpt lat="29.45352000" lon="82.92008000">
        <ele>3920.0000</ele>
        <time>2010-01-01T00:04:35Z</time>
      </trkpt>
      <trkpt lat="29.45359000" lon="82.92013000">
        <ele>3924.0000</ele>
        <time>2010-01-01T00:04:39Z</time>
      </trkpt>
      <trkpt lat="29.45365000" lon="82.92012000">
        <ele>3927.0000</ele>
        <time>2010-01-01T00:04:41Z</time>
      </trkpt>
      <trkpt lat="29.45363000" lon="82.92002000">
        <ele>3925.0000</ele>
        <time>2010-01-01T00:04:45Z</time>
      </trkpt>
      <trkpt lat="29.45358000" lon="82.91999000">
        <ele>3922.0000</ele>
        <time>2010-01-01T00:04:47Z</time>
      </trkpt>
      <trkpt lat="29.45350000" lon="82.91985000">
        <ele>3914.0000</ele>
        <time>2010-01-01T00:04:53Z</time>
      </trkpt>
      <trkpt lat="29.45357000" lon="82.91955000">
        <ele>3909.0000</ele>
        <time>2010-01-01T00:05:03Z</time>
      </trkpt>
      <trkpt lat="29.45363000" lon="82.91942000">
        <ele>3908.0000</ele>
        <time>2010-01-01T00:05:09Z</time>
      </trkpt>
      <trkpt lat="29.45372000" lon="82.91913000">
        <ele>3906.0000</ele>
        <time>2010-01-01T00:05:19Z</time>
      </trkpt>
      <trkpt lat="29.45375000" lon="82.91897000">
        <ele>3903.0000</ele>
        <time>2010-01-01T00:05:25Z</time>
      </trkpt>
      <trkpt lat="29.45372000" lon="82.91879000">
        <ele>3897.0000</ele>
        <time>2010-01-01T00:05:31Z</time>
      </trkpt>
      <trkpt lat="29.45360000" lon="82.91853000">
        <ele>3888.0000</ele>
        <time>2010-01-01T00:05:42Z</time>
      </trkpt>
      <trkpt lat="29.45362000" lon="82.91849000">
        <ele>3888.0000</ele>
        <time>2010-01-01T00:05:43Z</time>
      </trkpt>
      <trkpt lat="29.45380000" lon="82.91842000">
        <ele>3894.0000</ele>
        <time>2010-01-01T00:05:51Z</time>
      </trkpt>
      <trkpt lat="29.45394000" lon="82.91840000">
        <ele>3899.0000</ele>
        <time>2010-01-01T00:05:57Z</time>
      </trkpt>
      <trkpt lat="29.45423000" lon="82.91831000">
        <ele>3908.0000</ele>
        <time>2010-01-01T00:06:09Z</time>
      </trkpt>
      <trkpt lat="29.45535000" lon="82.91812000">
        <ele>3909.0000</ele>
        <time>2010-01-01T00:06:54Z</time>
      </trkpt>
      <trkpt lat="29.45563000" lon="82.91819000">
        <ele>3913.0000</ele>
        <time>2010-01-01T00:07:05Z</time>
      </trkpt>
      <trkpt lat="29.45580000" lon="82.91818000">
        <ele>3916.0000</ele>
        <time>2010-01-01T00:07:12Z</time>
      </trkpt>
      <trkpt lat="29.45597000" lon="82.91815000">
        <ele>3918.0000</ele>
        <time>2010-01-01T00:07:19Z</time>
      </trkpt>
      <trkpt lat="29.45607000" lon="82.91806000">
        <ele>3917.0000</ele>
        <time>2010-01-01T00:07:24Z</time>
      </trkpt>
      <trkpt lat="29.45607000" lon="82.91801000">
        <ele>3917.0000</ele>
        <time>2010-01-01T00:07:26Z</time>
      </trkpt>
      <trkpt lat="29.45604000" lon="82.91798000">
        <ele>3917.0000</ele>
        <time>2010-01-01T00:07:27Z</time>
      </trkpt>
      <trkpt lat="29.45573000" lon="82.91782000">
        <ele>3911.0000</ele>
        <time>2010-01-01T00:07:41Z</time>
      </trkpt>
      <trkpt lat="29.45570000" lon="82.91775000">
        <ele>3911.0000</ele>
        <time>2010-01-01T00:07:44Z</time>
      </trkpt>
      <trkpt lat="29.45567000" lon="82.91765000">
        <ele>3912.0000</ele>
        <time>2010-01-01T00:07:48Z</time>
      </trkpt>
      <trkpt lat="29.45566000" lon="82.91754000">
        <ele>3913.0000</ele>
        <time>2010-01-01T00:07:51Z</time>
      </trkpt>
      <trkpt lat="29.45571000" lon="82.91743000">
        <ele>3916.0000</ele>
        <time>2010-01-01T00:07:56Z</time>
      </trkpt>
      <trkpt lat="29.45578000" lon="82.91740000">
        <ele>3918.0000</ele>
        <time>2010-01-01T00:07:59Z</time>
      </trkpt>
      <trkpt lat="29.45677000" lon="82.91751000">
        <ele>3946.0000</ele>
        <time>2010-01-01T00:08:38Z</time>
      </trkpt>
      <trkpt lat="29.45700000" lon="82.91744000">
        <ele>3953.0000</ele>
        <time>2010-01-01T00:08:48Z</time>
      </trkpt>
      <trkpt lat="29.45713000" lon="82.91729000">
        <ele>3959.0000</ele>
        <time>2010-01-01T00:08:55Z</time>
      </trkpt>
      <trkpt lat="29.45729000" lon="82.91726000">
        <ele>3965.0000</ele>
        <time>2010-01-01T00:09:02Z</time>
      </trkpt>
      <trkpt lat="29.45741000" lon="82.91727000">
        <ele>3972.0000</ele>
        <time>2010-01-01T00:09:07Z</time>
      </trkpt>
      <trkpt lat="29.45748000" lon="82.91714000">
        <ele>3978.0000</ele>
        <time>2010-01-01T00:09:12Z</time>
      </trkpt>
      <trkpt lat="29.45770000" lon="82.91699000">
        <ele>3986.0000</ele>
        <time>2010-01-01T00:09:22Z</time>
      </trkpt>
      <trkpt lat="29.45783000" lon="82.91695000">
        <ele>3991.0000</ele>
        <time>2010-01-01T00:09:28Z</time>
      </trkpt>
      <trkpt lat="29.45809000" lon="82.91684000">
        <ele>4001.0000</ele>
        <time>2010-01-01T00:09:39Z</time>
      </trkpt>
      <trkpt lat="29.45823000" lon="82.91671000">
        <ele>4009.0000</ele>
        <time>2010-01-01T00:09:46Z</time>
      </trkpt>
      <trkpt lat="29.45856000" lon="82.91678000">
        <ele>4018.0000</ele>
        <time>2010-01-01T00:09:59Z</time>
      </trkpt>
      <trkpt lat="29.45862000" lon="82.91648000">
        <ele>4023.0000</ele>
        <time>2010-01-01T00:10:10Z</time>
      </trkpt>
      <trkpt lat="29.45938000" lon="82.91634000">
        <ele>4043.0000</ele>
        <time>2010-01-01T00:10:41Z</time>
      </trkpt>
      <trkpt lat="29.45985000" lon="82.91607000">
        <ele>4060.0000</ele>
        <time>2010-01-01T00:11:02Z</time>
      </trkpt>
      <trkpt lat="29.45968000" lon="82.91562000">
        <ele>4059.0000</ele>
        <time>2010-01-01T00:11:19Z</time>
      </trkpt>
      <trkpt lat="29.45972000" lon="82.91553000">
        <ele>4060.0000</ele>
        <time>2010-01-01T00:11:23Z</time>
      </trkpt>
      <trkpt lat="29.45995000" lon="82.91554000">
        <ele>4071.0000</ele>
        <time>2010-01-01T00:11:32Z</time>
      </trkpt>
      <trkpt lat="29.46018000" lon="82.91534000">
        <ele>4084.0000</ele>
        <time>2010-01-01T00:11:43Z</time>
      </trkpt>
      <trkpt lat="29.46038000" lon="82.91524000">
        <ele>4093.0000</ele>
        <time>2010-01-01T00:11:52Z</time>
      </trkpt>
      <trkpt lat="29.46089000" lon="82.91512000">
        <ele>4110.0000</ele>
        <time>2010-01-01T00:12:13Z</time>
      </trkpt>
      <trkpt lat="29.46135000" lon="82.91504000">
        <ele>4132.0000</ele>
        <time>2010-01-01T00:12:32Z</time>
      </trkpt>
      <trkpt lat="29.46219000" lon="82.91433000">
        <ele>4175.0000</ele>
        <time>2010-01-01T00:13:13Z</time>
      </trkpt>
      <trkpt lat="29.46244000" lon="82.91423000">
        <ele>4192.0000</ele>
        <time>2010-01-01T00:13:24Z</time>
      </trkpt>
      <trkpt lat="29.46241000" lon="82.91409000">
        <ele>4189.0000</ele>
        <time>2010-01-01T00:13:29Z</time>
      </trkpt>
      <trkpt lat="29.46253000" lon="82.91393000">
        <ele>4195.0000</ele>
        <time>2010-01-01T00:13:36Z</time>
      </trkpt>
      <trkpt lat="29.46281000" lon="82.91360000">
        <ele>4206.0000</ele>
        <time>2010-01-01T00:13:52Z</time>
      </trkpt>
      <trkpt lat="29.46295000" lon="82.91349000">
        <ele>4214.0000</ele>
        <time>2010-01-01T00:13:59Z</time>
      </trkpt>
      <trkpt lat="29.46302000" lon="82.91322000">
        <ele>4220.0000</ele>
        <time>2010-01-01T00:14:09Z</time>
      </trkpt>
      <trkpt lat="29.46310000" lon="82.91316000">
        <ele>4226.0000</ele>
        <time>2010-01-01T00:14:13Z</time>
      </trkpt>
      <trkpt lat="29.46316000" lon="82.91320000">
        <ele>4229.0000</ele>
        <time>2010-01-01T00:14:16Z</time>
      </trkpt>
      <trkpt lat="29.46322000" lon="82.91311000">
        <ele>4234.0000</ele>
        <time>2010-01-01T00:14:19Z</time>
      </trkpt>
      <trkpt lat="29.46340000" lon="82.91345000">
        <ele>4241.0000</ele>
        <time>2010-01-01T00:14:33Z</time>
      </trkpt>
      <trkpt lat="29.46339000" lon="82.91371000">
        <ele>4241.0000</ele>
        <time>2010-01-01T00:14:42Z</time>
      </trkpt>
      <trkpt lat="29.46365000" lon="82.91394000">
        <ele>4261.0000</ele>
        <time>2010-01-01T00:14:56Z</time>
      </trkpt>
      <trkpt lat="29.46369000" lon="82.91406000">
        <ele>4265.0000</ele>
        <time>2010-01-01T00:15:00Z</time>
      </trkpt>
      <trkpt lat="29.46369000" lon="82.91430000">
        <ele>4267.0000</ele>
        <time>2010-01-01T00:15:08Z</time>
      </trkpt>
      <trkpt lat="29.46373000" lon="82.91443000">
        <ele>4271.0000</ele>
        <time>2010-01-01T00:15:13Z</time>
      </trkpt>
      <trkpt lat="29.46388000" lon="82.91462000">
        <ele>4284.0000</ele>
        <time>2010-01-01T00:15:22Z</time>
      </trkpt>
      <trkpt lat="29.46405000" lon="82.91500000">
        <ele>4298.0000</ele>
        <time>2010-01-01T00:15:37Z</time>
      </trkpt>
      <trkpt lat="29.46409000" lon="82.91530000">
        <ele>4303.0000</ele>
        <time>2010-01-01T00:15:48Z</time>
      </trkpt>
      <trkpt lat="29.46409000" lon="82.91552000">
        <ele>4307.0000</ele>
        <time>2010-01-01T00:15:55Z</time>
      </trkpt>
      <trkpt lat="29.46414000" lon="82.91550000">
        <ele>4309.0000</ele>
        <time>2010-01-01T00:15:57Z</time>
      </trkpt>
      <trkpt lat="29.46416000" lon="82.91573000">
        <ele>4310.0000</ele>
        <time>2010-01-01T00:16:05Z</time>
      </trkpt>
      <trkpt lat="29.46434000" lon="82.91565000">
        <ele>4316.0000</ele>
        <time>2010-01-01T00:16:13Z</time>
      </trkpt>
      <trkpt lat="29.46443000" lon="82.91567000">
        <ele>4319.0000</ele>
        <time>2010-01-01T00:16:17Z</time>
      </trkpt>
      <trkpt lat="29.46475000" lon="82.91554000">
        <ele>4332.0000</ele>
        <time>2010-01-01T00:16:30Z</time>
      </trkpt>
      <trkpt lat="29.46483000" lon="82.91545000">
        <ele>4336.0000</ele>
        <time>2010-01-01T00:16:35Z</time>
      </trkpt>
      <trkpt lat="29.46499000" lon="82.91541000">
        <ele>4342.0000</ele>
        <time>2010-01-01T00:16:41Z</time>
      </trkpt>
      <trkpt lat="29.46501000" lon="82.91532000">
        <ele>4344.0000</ele>
        <time>2010-01-01T00:16:45Z</time>
      </trkpt>
      <trkpt lat="29.46507000" lon="82.91531000">
        <ele>4345.0000</ele>
        <time>2010-01-01T00:16:47Z</time>
      </trkpt>
      <trkpt lat="29.46510000" lon="82.91522000">
        <ele>4347.0000</ele>
        <time>2010-01-01T00:16:51Z</time>
      </trkpt>
      <trkpt lat="29.46519000" lon="82.91523000">
        <ele>4349.0000</ele>
        <time>2010-01-01T00:16:54Z</time>
      </trkpt>
      <trkpt lat="29.46522000" lon="82.91506000">
        <ele>4352.0000</ele>
        <time>2010-01-01T00:17:00Z</time>
      </trkpt>
      <trkpt lat="29.46534000" lon="82.91504000">
        <ele>4357.0000</ele>
        <time>2010-01-01T00:17:05Z</time>
      </trkpt>
      <trkpt lat="29.46557000" lon="82.91490000">
        <ele>4365.0000</ele>
        <time>2010-01-01T00:17:15Z</time>
      </trkpt>
      <trkpt lat="29.46570000" lon="82.91485000">
        <ele>4369.0000</ele>
        <time>2010-01-01T00:17:21Z</time>
      </trkpt>
      <trkpt lat="29.46577000" lon="82.91487000">
        <ele>4371.0000</ele>
        <time>2010-01-01T00:17:24Z</time>
      </trkpt>
      <trkpt lat="29.46582000" lon="82.91478000">
        <ele>4373.0000</ele>
        <time>2010-01-01T00:17:28Z</time>
      </trkpt>
      <trkpt lat="29.46589000" lon="82.91481000">
        <ele>4376.0000</ele>
        <time>2010-01-01T00:17:31Z</time>
      </trkpt>
      <trkpt lat="29.46591000" lon="82.91474000">
        <ele>4377.0000</ele>
        <time>2010-01-01T00:17:33Z</time>
      </trkpt>
      <trkpt lat="29.46602000" lon="82.91476000">
        <ele>4381.0000</ele>
        <time>2010-01-01T00:17:38Z</time>
      </trkpt>
      <trkpt lat="29.46610000" lon="82.91468000">
        <ele>4385.0000</ele>
        <time>2010-01-01T00:17:42Z</time>
      </trkpt>
      <trkpt lat="29.46617000" lon="82.91471000">
        <ele>4388.0000</ele>
        <time>2010-01-01T00:17:45Z</time>
      </trkpt>
      <trkpt lat="29.46625000" lon="82.91461000">
        <ele>4390.0000</ele>
        <time>2010-01-01T00:17:50Z</time>
      </trkpt>
      <trkpt lat="29.46637000" lon="82.91471000">
        <ele>4395.0000</ele>
        <time>2010-01-01T00:17:55Z</time>
      </trkpt>
      <trkpt lat="29.46640000" lon="82.91467000">
        <ele>4396.0000</ele>
        <time>2010-01-01T00:17:57Z</time>
      </trkpt>
      <trkpt lat="29.46653000" lon="82.91470000">
        <ele>4401.0000</ele>
        <time>2010-01-01T00:18:03Z</time>
      </trkpt>
      <trkpt lat="29.46663000" lon="82.91460000">
        <ele>4405.0000</ele>
        <time>2010-01-01T00:18:08Z</time>
      </trkpt>
      <trkpt lat="29.46692000" lon="82.91454000">
        <ele>4418.0000</ele>
        <time>2010-01-01T00:18:20Z</time>
      </trkpt>
      <trkpt lat="29.46708000" lon="82.91462000">
        <ele>4425.0000</ele>
        <time>2010-01-01T00:18:27Z</time>
      </trkpt>
      <trkpt lat="29.46716000" lon="82.91473000">
        <ele>4430.0000</ele>
        <time>2010-01-01T00:18:32Z</time>
      </trkpt>
      <trkpt lat="29.46746000" lon="82.91553000">
        <ele>4452.0000</ele>
        <time>2010-01-01T00:19:02Z</time>
      </trkpt>
      <trkpt lat="29.46753000" lon="82.91579000">
        <ele>4460.0000</ele>
        <time>2010-01-01T00:19:12Z</time>
      </trkpt>
      <trkpt lat="29.46764000" lon="82.91599000">
        <ele>4466.0000</ele>
        <time>2010-01-01T00:19:20Z</time>
      </trkpt>
      <trkpt lat="29.46764000" lon="82.91610000">
        <ele>4468.0000</ele>
        <time>2010-01-01T00:19:24Z</time>
      </trkpt>
      <trkpt lat="29.46779000" lon="82.91687000">
        <ele>4489.0000</ele>
        <time>2010-01-01T00:19:51Z</time>
      </trkpt>
      <trkpt lat="29.46780000" lon="82.91714000">
        <ele>4493.0000</ele>
        <time>2010-01-01T00:20:01Z</time>
      </trkpt>
      <trkpt lat="29.46786000" lon="82.91737000">
        <ele>4496.0000</ele>
        <time>2010-01-01T00:20:09Z</time>
      </trkpt>
      <trkpt lat="29.46797000" lon="82.91760000">
        <ele>4501.0000</ele>
        <time>2010-01-01T00:20:18Z</time>
      </trkpt>
      <trkpt lat="29.46811000" lon="82.91775000">
        <ele>4507.0000</ele>
        <time>2010-01-01T00:20:26Z</time>
      </trkpt>
      <trkpt lat="29.46825000" lon="82.91796000">
        <ele>4511.0000</ele>
        <time>2010-01-01T00:20:35Z</time>
      </trkpt>
      <trkpt lat="29.46853000" lon="82.91820000">
        <ele>4505.0000</ele>
        <time>2010-01-01T00:20:49Z</time>
      </trkpt>
      <trkpt lat="29.46871000" lon="82.91838000">
        <ele>4510.0000</ele>
        <time>2010-01-01T00:20:58Z</time>
      </trkpt>
      <trkpt lat="29.46899000" lon="82.91849000">
        <ele>4514.0000</ele>
        <time>2010-01-01T00:21:10Z</time>
      </trkpt>
      <trkpt lat="29.46945000" lon="82.91892000">
        <ele>4525.0000</ele>
        <time>2010-01-01T00:21:34Z</time>
      </trkpt>
      <trkpt lat="29.46976000" lon="82.91911000">
        <ele>4525.0000</ele>
        <time>2010-01-01T00:21:48Z</time>
      </trkpt>
      <trkpt lat="29.46996000" lon="82.91915000">
        <ele>4528.0000</ele>
        <time>2010-01-01T00:21:56Z</time>
      </trkpt>
      <trkpt lat="29.47040000" lon="82.91940000">
        <ele>4532.0000</ele>
        <time>2010-01-01T00:22:16Z</time>
      </trkpt>
      <trkpt lat="29.47097000" lon="82.91978000">
        <ele>4537.0000</ele>
        <time>2010-01-01T00:22:42Z</time>
      </trkpt>
      <trkpt lat="29.47106000" lon="82.91979000">
        <ele>4537.0000</ele>
        <time>2010-01-01T00:22:46Z</time>
      </trkpt>
      <trkpt lat="29.47117000" lon="82.91989000">
        <ele>4539.0000</ele>
        <time>2010-01-01T00:22:52Z</time>
      </trkpt>
      <trkpt lat="29.47446373" lon="82.91913986">
        <ele>4482.0000</ele>
        <time>2010-01-01T00:25:06Z</time>
      </trkpt>
      <trkpt lat="29.47685481" lon="82.91673660">
        <ele>4507.0000</ele>
        <time>2010-01-01T00:27:13Z</time>
      </trkpt>
      <trkpt lat="29.47790089" lon="82.91381835">
        <ele>4495.0000</ele>
        <time>2010-01-01T00:29:03Z</time>
      </trkpt>
      <trkpt lat="29.48234426" lon="82.90918350">
        <ele>4651.0000</ele>
        <time>2010-01-01T00:33:03Z</time>
      </trkpt>
      <trkpt lat="29.48578115" lon="82.90712356">
        <ele>4796.0000</ele>
        <time>2010-01-01T00:35:39Z</time>
      </trkpt>
      <trkpt lat="29.48876966" lon="82.90575027">
        <ele>4717.0000</ele>
        <time>2010-01-01T00:37:47Z</time>
      </trkpt>
      <trkpt lat="29.49224602" lon="82.90523529">
        <ele>4562.0000</ele>
        <time>2010-01-01T00:40:08Z</time>
      </trkpt>
      <trkpt lat="29.49687787" lon="82.90437698">
        <ele>4404.0000</ele>
        <time>2010-01-01T00:43:16Z</time>
      </trkpt>
      <trkpt lat="29.50046367" lon="82.90266036">
        <ele>4275.0000</ele>
        <time>2010-01-01T00:45:51Z</time>
      </trkpt>
      <trkpt lat="29.50343190" lon="82.90008544">
        <ele>4156.0000</ele>
        <time>2010-01-01T00:48:20Z</time>
      </trkpt>
      <trkpt lat="29.50462710" lon="82.89742469">
        <ele>4053.0000</ele>
        <time>2010-01-01T00:50:04Z</time>
      </trkpt>
      <trkpt lat="29.50597169" lon="82.89339065">
        <ele>3915.0000</ele>
        <time>2010-01-01T00:52:35Z</time>
      </trkpt>
      <trkpt lat="29.50612109" lon="82.89047241">
        <ele>3808.0000</ele>
        <time>2010-01-01T00:54:17Z</time>
      </trkpt>
      <trkpt lat="29.50671868" lon="82.88506507">
        <ele>3610.0000</ele>
        <time>2010-01-01T00:57:26Z</time>
      </trkpt>
      <trkpt lat="29.50664398" lon="82.88171768">
        <ele>3514.0000</ele>
        <time>2010-01-01T00:59:23Z</time>
      </trkpt>
      <trkpt lat="29.50686807" lon="82.87785530">
        <ele>3400.0000</ele>
        <time>2010-01-01T01:01:38Z</time>
      </trkpt>
      <trkpt lat="29.50821263" lon="82.87759780">
        <ele>3466.0000</ele>
        <time>2010-01-01T01:02:33Z</time>
      </trkpt>
      <trkpt lat="29.50933308" lon="82.87802696">
        <ele>3498.0000</ele>
        <time>2010-01-01T01:03:20Z</time>
      </trkpt>
      <trkpt lat="29.51060291" lon="82.87879943">
        <ele>3507.0000</ele>
        <time>2010-01-01T01:04:17Z</time>
      </trkpt>
      <trkpt lat="29.51149925" lon="82.87914276">
        <ele>3482.0000</ele>
        <time>2010-01-01T01:04:55Z</time>
      </trkpt>
      <trkpt lat="29.51247028" lon="82.87905693">
        <ele>3555.0000</ele>
        <time>2010-01-01T01:05:34Z</time>
      </trkpt>
      <trkpt lat="29.51351599" lon="82.87922859">
        <ele>3629.0000</ele>
        <time>2010-01-01T01:06:16Z</time>
      </trkpt>
      <trkpt lat="29.51471108" lon="82.87965774">
        <ele>3666.0000</ele>
        <time>2010-01-01T01:07:07Z</time>
      </trkpt>
      <trkpt lat="29.51583146" lon="82.88034439">
        <ele>3678.0000</ele>
        <time>2010-01-01T01:07:57Z</time>
      </trkpt>
      <trkpt lat="29.51702651" lon="82.87991523">
        <ele>3711.0000</ele>
        <time>2010-01-01T01:08:47Z</time>
      </trkpt>
      <trkpt lat="29.51799749" lon="82.87905693">
        <ele>3712.0000</ele>
        <time>2010-01-01T01:09:37Z</time>
      </trkpt>
      <trkpt lat="29.51896845" lon="82.87794113">
        <ele>3755.0000</ele>
        <time>2010-01-01T01:10:31Z</time>
      </trkpt>
      <trkpt lat="29.51949127" lon="82.87648200">
        <ele>3836.0000</ele>
        <time>2010-01-01T01:11:26Z</time>
      </trkpt>
      <trkpt lat="29.51993941" lon="82.87485122">
        <ele>3918.0000</ele>
        <time>2010-01-01T01:12:26Z</time>
      </trkpt>
      <trkpt lat="29.51986472" lon="82.87347793">
        <ele>3971.0000</ele>
        <time>2010-01-01T01:13:14Z</time>
      </trkpt>
      <trkpt lat="29.51986472" lon="82.87322044">
        <ele>3979.0000</ele>
        <time>2010-01-01T00:00:00Z</time>
      </trkpt>
      <trkpt lat="29.52093019" lon="82.87107467">
        <ele>3964.0000</ele>
        <time>2010-01-01T00:02:52Z</time>
      </trkpt>
      <trkpt lat="29.52257331" lon="82.86867141">
        <ele>4104.0000</ele>
        <time>2010-01-01T00:06:25Z</time>
      </trkpt>
      <trkpt lat="29.52406703" lon="82.86661148">
        <ele>4144.0000</ele>
        <time>2010-01-01T00:09:31Z</time>
      </trkpt>
      <trkpt lat="29.52496325" lon="82.86317825">
        <ele>4127.0000</ele>
        <time>2010-01-01T00:13:41Z</time>
      </trkpt>
      <trkpt lat="29.52630757" lon="82.85957336">
        <ele>4329.0000</ele>
        <time>2010-01-01T00:18:14Z</time>
      </trkpt>
      <trkpt lat="29.52795060" lon="82.85888671">
        <ele>4294.0000</ele>
        <time>2010-01-01T00:20:34Z</time>
      </trkpt>
      <trkpt lat="29.52959360" lon="82.85682678">
        <ele>4308.0000</ele>
        <time>2010-01-01T00:23:49Z</time>
      </trkpt>
      <trkpt lat="29.52959360" lon="82.85425186">
        <ele>4381.0000</ele>
        <time>2010-01-01T00:26:48Z</time>
      </trkpt>
      <trkpt lat="29.53004169" lon="82.85184860">
        <ele>4347.0000</ele>
        <time>2010-01-01T00:29:39Z</time>
      </trkpt>
      <trkpt lat="29.53063914" lon="82.84893035">
        <ele>4598.0000</ele>
        <time>2010-01-01T00:33:08Z</time>
      </trkpt>
      <trkpt lat="29.53228210" lon="82.84687042">
        <ele>4710.0000</ele>
        <time>2010-01-01T00:36:23Z</time>
      </trkpt>
      <trkpt lat="29.53377568" lon="82.84463882">
        <ele>4787.0000</ele>
        <time>2010-01-01T00:39:39Z</time>
      </trkpt>
      <trkpt lat="29.53541858" lon="82.84189224">
        <ele>4846.0000</ele>
        <time>2010-01-01T00:43:31Z</time>
      </trkpt>
      <trkpt lat="29.53661341" lon="82.83897399">
        <ele>5014.0000</ele>
        <time>2010-01-01T00:47:16Z</time>
      </trkpt>
      <trkpt lat="29.53885367" lon="82.83708572">
        <ele>5143.0000</ele>
        <time>2010-01-01T00:50:58Z</time>
      </trkpt>
      <trkpt lat="29.54277634" lon="82.83382415">
        <ele>5291.0000</ele>
        <time>2010-01-01T00:57:26Z</time>
      </trkpt>
      <trkpt lat="29.54661953" lon="82.83073425">
        <ele>5316.0000</ele>
        <time>2010-01-01T01:03:41Z</time>
      </trkpt>
      <trkpt lat="29.54885957" lon="82.82815933">
        <ele>5413.0000</ele>
        <time>2010-01-01T01:07:55Z</time>
      </trkpt>
      <trkpt lat="29.54990490" lon="82.82712936">
        <ele>5417.0000</ele>
        <time>2010-01-01T01:09:45Z</time>
      </trkpt>
      <trkpt lat="29.55229420" lon="82.82506942">
        <ele>5341.0000</ele>
        <time>2010-01-01T01:13:44Z</time>
      </trkpt>
      <trkpt lat="29.55408613" lon="82.82386779">
        <ele>5304.0000</ele>
        <time>2010-01-01T01:16:30Z</time>
      </trkpt>
      <trkpt lat="29.55587804" lon="82.82249450">
        <ele>5364.0000</ele>
        <time>2010-01-01T01:19:23Z</time>
      </trkpt>
      <trkpt lat="29.55766991" lon="82.82077789">
        <ele>5448.0000</ele>
        <time>2010-01-01T01:22:30Z</time>
      </trkpt>
      <trkpt lat="29.55961107" lon="82.81923294">
        <ele>5509.0000</ele>
        <time>2010-01-01T01:25:39Z</time>
      </trkpt>
      <trkpt lat="29.56125356" lon="82.81820297">
        <ele>5494.0000</ele>
        <time>2010-01-01T01:28:08Z</time>
      </trkpt>
      <trkpt lat="29.56498639" lon="82.81597137">
        <ele>5377.0000</ele>
        <time>2010-01-01T01:33:45Z</time>
      </trkpt>
      <trkpt lat="29.56692740" lon="82.81597137">
        <ele>5400.0000</ele>
        <time>2010-01-01T01:36:21Z</time>
      </trkpt>
      <trkpt lat="29.56827116" lon="82.81768798">
        <ele>5366.0000</ele>
        <time>2010-01-01T01:39:01Z</time>
      </trkpt>
      <trkpt lat="29.56931630" lon="82.82026290">
        <ele>5291.0000</ele>
        <time>2010-01-01T01:42:19Z</time>
      </trkpt>
      <trkpt lat="29.57036142" lon="82.82163619">
        <ele>5202.0000</ele>
        <time>2010-01-01T01:44:26Z</time>
      </trkpt>
      <trkpt lat="29.57275023" lon="82.82335281">
        <ele>5060.0000</ele>
        <time>2010-01-01T01:48:12Z</time>
      </trkpt>
      <trkpt lat="29.57513899" lon="82.82558441">
        <ele>4956.0000</ele>
        <time>2010-01-01T01:52:18Z</time>
      </trkpt>
      <trkpt lat="29.57663193" lon="82.82764434">
        <ele>4874.0000</ele>
        <time>2010-01-01T01:55:25Z</time>
      </trkpt>
      <trkpt lat="29.57827415" lon="82.83004760">
        <ele>4791.0000</ele>
        <time>2010-01-01T01:58:58Z</time>
      </trkpt>
      <trkpt lat="29.57961775" lon="82.83227920">
        <ele>4707.0000</ele>
        <time>2010-01-01T02:02:07Z</time>
      </trkpt>
      <trkpt lat="29.58051348" lon="82.83433914">
        <ele>4617.0000</ele>
        <time>2010-01-01T02:04:47Z</time>
      </trkpt>
      <trkpt lat="29.58170778" lon="82.83657073">
        <ele>4578.0000</ele>
        <time>2010-01-01T02:07:50Z</time>
      </trkpt>
      <trkpt lat="29.58334991" lon="82.83725738">
        <ele>4499.0000</ele>
        <time>2010-01-01T02:10:10Z</time>
      </trkpt>
      <trkpt lat="29.58467362" lon="82.83708572">
        <ele>4492.0000</ele>
        <time>2010-01-01T02:11:56Z</time>
      </trkpt>
      <trkpt lat="29.58609178" lon="82.83657073">
        <ele>4516.0000</ele>
        <time>2010-01-01T02:13:55Z</time>
      </trkpt>
      <trkpt lat="29.58758457" lon="82.83433914">
        <ele>4515.0000</ele>
        <time>2010-01-01T02:17:11Z</time>
      </trkpt>
      <trkpt lat="29.58848022" lon="82.83279418">
        <ele>4525.0000</ele>
        <time>2010-01-01T02:19:21Z</time>
      </trkpt>
      <trkpt lat="29.58967442" lon="82.83142089">
        <ele>4541.0000</ele>
        <time>2010-01-01T02:21:36Z</time>
      </trkpt>
      <trkpt lat="29.59161497" lon="82.83073425">
        <ele>4547.0000</ele>
        <time>2010-01-01T02:24:18Z</time>
      </trkpt>
      <trkpt lat="29.59392864" lon="82.83107757">
        <ele>4543.0000</ele>
        <time>2010-01-01T02:27:25Z</time>
      </trkpt>
      <trkpt lat="29.59601837" lon="82.83064842">
        <ele>4578.0000</ele>
        <time>2010-01-01T02:30:15Z</time>
      </trkpt>
      <trkpt lat="29.59788416" lon="82.83047676">
        <ele>4581.0000</ele>
        <time>2010-01-01T02:32:45Z</time>
      </trkpt>
      <trkpt lat="29.59945139" lon="82.83064842">
        <ele>4602.0000</ele>
        <time>2010-01-01T02:34:51Z</time>
      </trkpt>
      <trkpt lat="29.60109324" lon="82.82987594">
        <ele>4609.0000</ele>
        <time>2010-01-01T02:37:13Z</time>
      </trkpt>
      <trkpt lat="29.60295893" lon="82.82918930">
        <ele>4612.0000</ele>
        <time>2010-01-01T02:39:50Z</time>
      </trkpt>
      <trkpt lat="29.60460072" lon="82.82850265">
        <ele>4618.0000</ele>
        <time>2010-01-01T02:42:10Z</time>
      </trkpt>
      <trkpt lat="29.60601860" lon="82.82824516">
        <ele>4618.0000</ele>
        <time>2010-01-01T02:44:05Z</time>
      </trkpt>
      <trkpt lat="29.60766033" lon="82.82824516">
        <ele>4628.0000</ele>
        <time>2010-01-01T02:46:16Z</time>
      </trkpt>
      <trkpt lat="29.60922742" lon="82.82867431">
        <ele>4664.0000</ele>
        <time>2010-01-01T02:48:25Z</time>
      </trkpt>
      <trkpt lat="29.61101834" lon="82.82918930">
        <ele>4684.0000</ele>
        <time>2010-01-01T02:50:53Z</time>
      </trkpt>
      <trkpt lat="29.61295848" lon="82.82944679">
        <ele>4710.0000</ele>
        <time>2010-01-01T02:53:29Z</time>
      </trkpt>
      <trkpt lat="29.61303309" lon="82.82953262">
        <ele>4712.0000</ele>
        <time>2010-01-01T00:00:00Z</time>
      </trkpt>
      <trkpt lat="29.61437624" lon="82.83004760">
        <ele>4730.0000</ele>
        <time>2010-01-01T00:00:56Z</time>
      </trkpt>
      <trkpt lat="29.61594322" lon="82.83047676">
        <ele>4733.0000</ele>
        <time>2010-01-01T00:02:01Z</time>
      </trkpt>
      <trkpt lat="29.61751018" lon="82.83099174">
        <ele>4758.0000</ele>
        <time>2010-01-01T00:03:06Z</time>
      </trkpt>
      <trkpt lat="29.61877865" lon="82.83185005">
        <ele>4752.0000</ele>
        <time>2010-01-01T00:04:05Z</time>
      </trkpt>
      <trkpt lat="29.62109170" lon="82.83313751">
        <ele>4791.0000</ele>
        <time>2010-01-01T00:05:48Z</time>
      </trkpt>
      <trkpt lat="29.62265858" lon="82.83433914">
        <ele>4802.0000</ele>
        <time>2010-01-01T00:07:03Z</time>
      </trkpt>
      <trkpt lat="29.62385237" lon="82.83502578">
        <ele>4829.0000</ele>
        <time>2010-01-01T00:07:56Z</time>
      </trkpt>
      <trkpt lat="29.62526998" lon="82.83605575">
        <ele>4816.0000</ele>
        <time>2010-01-01T00:09:04Z</time>
      </trkpt>
      <trkpt lat="29.62668758" lon="82.83725738">
        <ele>4804.0000</ele>
        <time>2010-01-01T00:10:14Z</time>
      </trkpt>
      <trkpt lat="29.62795593" lon="82.83828735">
        <ele>4825.0000</ele>
        <time>2010-01-01T00:11:16Z</time>
      </trkpt>
      <trkpt lat="29.62929888" lon="82.83931732">
        <ele>4820.0000</ele>
        <time>2010-01-01T00:12:21Z</time>
      </trkpt>
      <trkpt lat="29.63064181" lon="82.84008979">
        <ele>4796.0000</ele>
        <time>2010-01-01T00:13:21Z</time>
      </trkpt>
      <trkpt lat="29.63265617" lon="82.84120559">
        <ele>4801.0000</ele>
        <time>2010-01-01T00:14:50Z</time>
      </trkpt>
      <trkpt lat="29.63392445" lon="82.84137725">
        <ele>4806.0000</ele>
        <time>2010-01-01T00:15:42Z</time>
      </trkpt>
      <trkpt lat="29.63519271" lon="82.84129142">
        <ele>4804.0000</ele>
        <time>2010-01-01T00:16:32Z</time>
      </trkpt>
      <trkpt lat="29.63638636" lon="82.84137725">
        <ele>4810.0000</ele>
        <time>2010-01-01T00:17:20Z</time>
      </trkpt>
      <trkpt lat="29.63795299" lon="82.84146308">
        <ele>4833.0000</ele>
        <time>2010-01-01T00:18:23Z</time>
      </trkpt>
      <trkpt lat="29.64019101" lon="82.84146308">
        <ele>4841.0000</ele>
        <time>2010-01-01T00:19:53Z</time>
      </trkpt>
      <trkpt lat="29.64183218" lon="82.84086227">
        <ele>4813.0000</ele>
        <time>2010-01-01T00:21:02Z</time>
      </trkpt>
      <trkpt lat="29.64392092" lon="82.84008979">
        <ele>4829.0000</ele>
        <time>2010-01-01T00:22:29Z</time>
      </trkpt>
      <trkpt lat="29.64511446" lon="82.83914566">
        <ele>4880.0000</ele>
        <time>2010-01-01T00:23:27Z</time>
      </trkpt>
      <trkpt lat="29.64630799" lon="82.83854484">
        <ele>4904.0000</ele>
        <time>2010-01-01T00:24:20Z</time>
      </trkpt>
      <trkpt lat="29.64750150" lon="82.83760070">
        <ele>4941.0000</ele>
        <time>2010-01-01T00:25:18Z</time>
      </trkpt>
      <trkpt lat="29.64772528" lon="82.83657073">
        <ele>5019.0000</ele>
        <time>2010-01-01T00:25:54Z</time>
      </trkpt>
      <trkpt lat="29.64765069" lon="82.83545494">
        <ele>5082.0000</ele>
        <time>2010-01-01T00:26:33Z</time>
      </trkpt>
      <trkpt lat="29.64705394" lon="82.83399581">
        <ele>5122.0000</ele>
        <time>2010-01-01T00:27:30Z</time>
      </trkpt>
      <trkpt lat="29.64653177" lon="82.83288002">
        <ele>5150.0000</ele>
        <time>2010-01-01T00:28:14Z</time>
      </trkpt>
      <trkpt lat="29.64668096" lon="82.83202171">
        <ele>5170.0000</ele>
        <time>2010-01-01T00:28:44Z</time>
      </trkpt>
      <trkpt lat="29.64697934" lon="82.83193588">
        <ele>5169.0000</ele>
        <time>2010-01-01T00:28:56Z</time>
      </trkpt>
      <trkpt lat="29.64802366" lon="82.83176422">
        <ele>5191.0000</ele>
        <time>2010-01-01T00:29:39Z</time>
      </trkpt>
      <trkpt lat="29.64936634" lon="82.83176422">
        <ele>5253.0000</ele>
        <time>2010-01-01T00:30:32Z</time>
      </trkpt>
      <trkpt lat="29.65085818" lon="82.83142089">
        <ele>5209.0000</ele>
        <time>2010-01-01T00:31:33Z</time>
      </trkpt>
      <trkpt lat="29.65227542" lon="82.83064842">
        <ele>5230.0000</ele>
        <time>2010-01-01T00:32:36Z</time>
      </trkpt>
      <trkpt lat="29.65302132" lon="82.82953262">
        <ele>5258.0000</ele>
        <time>2010-01-01T00:33:25Z</time>
      </trkpt>
      <trkpt lat="29.65339427" lon="82.82833099">
        <ele>5294.0000</ele>
        <time>2010-01-01T00:34:09Z</time>
      </trkpt>
      <trkpt lat="29.65339427" lon="82.82747268">
        <ele>5340.0000</ele>
        <time>2010-01-01T00:34:39Z</time>
      </trkpt>
      <trkpt lat="29.65354345" lon="82.82584190">
        <ele>5391.0000</ele>
        <time>2010-01-01T00:35:36Z</time>
      </trkpt>
      <trkpt lat="29.65421475" lon="82.82395362">
        <ele>5271.0000</ele>
        <time>2010-01-01T00:36:47Z</time>
      </trkpt>
      <trkpt lat="29.65481146" lon="82.82155036">
        <ele>5205.0000</ele>
        <time>2010-01-01T00:38:14Z</time>
      </trkpt>
      <trkpt lat="29.65540817" lon="82.81957626">
        <ele>5182.0000</ele>
        <time>2010-01-01T00:39:27Z</time>
      </trkpt>
      <trkpt lat="29.65585570" lon="82.81743049">
        <ele>5091.0000</ele>
        <time>2010-01-01T00:40:44Z</time>
      </trkpt>
      <trkpt lat="29.65652699" lon="82.81571388">
        <ele>5016.0000</ele>
        <time>2010-01-01T00:41:49Z</time>
      </trkpt>
      <trkpt lat="29.65734745" lon="82.81202316">
        <ele>4910.0000</ele>
        <time>2010-01-01T00:44:02Z</time>
      </trkpt>
      <trkpt lat="29.65757121" lon="82.80833244">
        <ele>4874.0000</ele>
        <time>2010-01-01T00:46:10Z</time>
      </trkpt>
      <trkpt lat="29.65757121" lon="82.80421257">
        <ele>4799.0000</ele>
        <time>2010-01-01T00:48:34Z</time>
      </trkpt>
      <trkpt lat="29.65734745" lon="82.80146598">
        <ele>4731.0000</ele>
        <time>2010-01-01T00:50:10Z</time>
      </trkpt>
      <trkpt lat="29.65704910" lon="82.79794692">
        <ele>4696.0000</ele>
        <time>2010-01-01T00:52:13Z</time>
      </trkpt>
      <trkpt lat="29.65652699" lon="82.79459953">
        <ele>4685.0000</ele>
        <time>2010-01-01T00:54:11Z</time>
      </trkpt>
      <trkpt lat="29.65570653" lon="82.79159545">
        <ele>4662.0000</ele>
        <time>2010-01-01T00:56:00Z</time>
      </trkpt>
      <trkpt lat="29.65570653" lon="82.78927803">
        <ele>4652.0000</ele>
        <time>2010-01-01T00:57:21Z</time>
      </trkpt>
      <trkpt lat="29.65570653" lon="82.78687477">
        <ele>4634.0000</ele>
        <time>2010-01-01T00:58:45Z</time>
      </trkpt>
      <trkpt lat="29.65548276" lon="82.78661727">
        <ele>4628.0000</ele>
        <time>2010-01-01T00:00:00Z</time>
      </trkpt>
      <trkpt lat="29.65466229" lon="82.78344154">
        <ele>4593.0000</ele>
        <time>2010-01-01T00:03:50Z</time>
      </trkpt>
      <trkpt lat="29.65331968" lon="82.78017997">
        <ele>4557.0000</ele>
        <time>2010-01-01T00:08:01Z</time>
      </trkpt>
      <trkpt lat="29.65302132" lon="82.77760505">
        <ele>4531.0000</ele>
        <time>2010-01-01T00:11:02Z</time>
      </trkpt>
      <trkpt lat="29.65354345" lon="82.77503013">
        <ele>4509.0000</ele>
        <time>2010-01-01T00:14:06Z</time>
      </trkpt>
      <trkpt lat="29.65287214" lon="82.77159690">
        <ele>4473.0000</ele>
        <time>2010-01-01T00:18:11Z</time>
      </trkpt>
      <trkpt lat="29.65272296" lon="82.76893615">
        <ele>4454.0000</ele>
        <time>2010-01-01T00:21:16Z</time>
      </trkpt>
      <trkpt lat="29.65324509" lon="82.76618957">
        <ele>4429.0000</ele>
        <time>2010-01-01T00:24:32Z</time>
      </trkpt>
      <trkpt lat="29.65421475" lon="82.76103973">
        <ele>4416.0000</ele>
        <time>2010-01-01T00:30:38Z</time>
      </trkpt>
      <trkpt lat="29.65533358" lon="82.75769233">
        <ele>4441.0000</ele>
        <time>2010-01-01T00:34:48Z</time>
      </trkpt>
      <trkpt lat="29.65689993" lon="82.75211334">
        <ele>4397.0000</ele>
        <time>2010-01-01T00:41:36Z</time>
      </trkpt>
      <trkpt lat="29.65757121" lon="82.74919509">
        <ele>4426.0000</ele>
        <time>2010-01-01T00:45:06Z</time>
      </trkpt>
      <trkpt lat="29.65869001" lon="82.74730682">
        <ele>4430.0000</ele>
        <time>2010-01-01T00:47:45Z</time>
      </trkpt>
      <trkpt lat="29.66003254" lon="82.74498939">
        <ele>4448.0000</ele>
        <time>2010-01-01T00:50:59Z</time>
      </trkpt>
      <trkpt lat="29.66122589" lon="82.74258613">
        <ele>4465.0000</ele>
        <time>2010-01-01T00:54:11Z</time>
      </trkpt>
      <trkpt lat="29.66286673" lon="82.74009704">
        <ele>4432.0000</ele>
        <time>2010-01-01T00:57:49Z</time>
      </trkpt>
      <trkpt lat="29.66376172" lon="82.73777961">
        <ele>4329.0000</ele>
        <time>2010-01-01T01:00:45Z</time>
      </trkpt>
      <trkpt lat="29.66428379" lon="82.73537635">
        <ele>4396.0000</ele>
        <time>2010-01-01T01:03:37Z</time>
      </trkpt>
      <trkpt lat="29.66585000" lon="82.73383140">
        <ele>4634.0000</ele>
        <time>2010-01-01T01:06:22Z</time>
      </trkpt>
      <trkpt lat="29.66704328" lon="82.73091316">
        <ele>4692.0000</ele>
        <time>2010-01-01T01:10:07Z</time>
      </trkpt>
      <trkpt lat="29.66599916" lon="82.72868156">
        <ele>4339.0000</ele>
        <time>2010-01-01T01:13:03Z</time>
      </trkpt>
      <trkpt lat="29.66532793" lon="82.72739410">
        <ele>4359.0000</ele>
        <time>2010-01-01T01:14:48Z</time>
      </trkpt>
      <trkpt lat="29.66517877" lon="82.72644996">
        <ele>4401.0000</ele>
        <time>2010-01-01T01:15:54Z</time>
      </trkpt>
      <trkpt lat="29.66517877" lon="82.72404670">
        <ele>4549.0000</ele>
        <time>2010-01-01T01:18:42Z</time>
      </trkpt>
      <trkpt lat="29.66473128" lon="82.72207260">
        <ele>4327.0000</ele>
        <time>2010-01-01T01:21:03Z</time>
      </trkpt>
      <trkpt lat="29.66450754" lon="82.72052764">
        <ele>4362.0000</ele>
        <time>2010-01-01T01:22:52Z</time>
      </trkpt>
      <trkpt lat="29.66353797" lon="82.71906852">
        <ele>4363.0000</ele>
        <time>2010-01-01T01:25:00Z</time>
      </trkpt>
      <trkpt lat="29.66241923" lon="82.71812438">
        <ele>4351.0000</ele>
        <time>2010-01-01T01:26:51Z</time>
      </trkpt>
      <trkpt lat="29.66144965" lon="82.71752357">
        <ele>4420.0000</ele>
        <time>2010-01-01T01:28:19Z</time>
      </trkpt>
      <trkpt lat="29.66040547" lon="82.71623611">
        <ele>4424.0000</ele>
        <time>2010-01-01T01:30:22Z</time>
      </trkpt>
      <trkpt lat="29.66025630" lon="82.71503448">
        <ele>4465.0000</ele>
        <time>2010-01-01T01:31:46Z</time>
      </trkpt>
      <trkpt lat="29.66077839" lon="82.71460533">
        <ele>4507.0000</ele>
        <time>2010-01-01T01:32:38Z</time>
      </trkpt>
      <trkpt lat="29.66271756" lon="82.71460533">
        <ele>4535.0000</ele>
        <time>2010-01-01T01:35:13Z</time>
      </trkpt>
      <trkpt lat="29.66346339" lon="82.71486282">
        <ele>4571.0000</ele>
        <time>2010-01-01T01:36:15Z</time>
      </trkpt>
      <trkpt lat="29.66473128" lon="82.71486282">
        <ele>4580.0000</ele>
        <time>2010-01-01T01:37:57Z</time>
      </trkpt>
      <trkpt lat="29.66614832" lon="82.71314620">
        <ele>4522.0000</ele>
        <time>2010-01-01T01:40:42Z</time>
      </trkpt>
      <trkpt lat="29.66726702" lon="82.71125793">
        <ele>4496.0000</ele>
        <time>2010-01-01T01:43:21Z</time>
      </trkpt>
      <trkpt lat="29.66771449" lon="82.70919799">
        <ele>4448.0000</ele>
        <time>2010-01-01T01:45:48Z</time>
      </trkpt>
      <trkpt lat="29.66816197" lon="82.70670890">
        <ele>4384.0000</ele>
        <time>2010-01-01T01:48:45Z</time>
      </trkpt>
      <trkpt lat="29.66853486" lon="82.70482063">
        <ele>4332.0000</ele>
        <time>2010-01-01T01:51:00Z</time>
      </trkpt>
      <trkpt lat="29.66898233" lon="82.70344734">
        <ele>4296.0000</ele>
        <time>2010-01-01T01:52:42Z</time>
      </trkpt>
      <trkpt lat="29.66928064" lon="82.70078659">
        <ele>4177.0000</ele>
        <time>2010-01-01T01:55:48Z</time>
      </trkpt>
      <trkpt lat="29.66965353" lon="82.69821166">
        <ele>3899.0000</ele>
        <time>2010-01-01T01:58:50Z</time>
      </trkpt>
      <trkpt lat="29.66987727" lon="82.69683837">
        <ele>3813.0000</ele>
        <time>2010-01-01T02:00:27Z</time>
      </trkpt>
      <trkpt lat="29.67017558" lon="82.69417762">
        <ele>3745.0000</ele>
        <time>2010-01-01T02:03:34Z</time>
      </trkpt>
      <trkpt lat="29.67047388" lon="82.69271850">
        <ele>3764.0000</ele>
        <time>2010-01-01T02:05:18Z</time>
      </trkpt>
    </trkseg>
  </trk>
</gpx>
